GFSSGP_con_mlcape_000.txt.gz
CAPE
0 0 0 0 0 0 0 0 0 0 0 11 250 377 485 611 631 610 1310 1389 1268 1412 1169 929 455 274 386 1078 1549 1853 1792 2019 1894 1627 1581 1637 1397 1106 726 1063 1278 1333 1166 1204 1307 1200 1405 1435 1291
0 0 0 0 0 0 0 0 0 0 0 0 36 600 451 577 895 1157 1273 1483 1219 1437 1296 1058 515 319 211 228 715 1287 1587 1392 450 1682 1491 1363 1283 152 0 691 1168 1196 1298 1543 1454 1217 1323 1417 1383
0 0 0 0 0 0 0 0 0 0 0 0 236 531 753 901 1300 1411 1532 1572 1746 1628 1424 1058 776 497 373 204 272 740 1012 1092 1269 1537 1549 1463 1260 763 119 998 1522 1560 1465 1542 1696 1610 1636 1361 1368
0 0 0 0 0 0 0 0 0 0 0 19 360 682 958 613 1492 1747 1588 1632 1749 1743 1544 1323 1035 921 549 263 198 492 801 778 858 948 1155 1508 1446 1477 1318 1359 1387 1426 1464 1176 1281 1430 1289 1141 1021
0 0 0 0 0 0 0 0 0 0 54 200 389 758 1061 744 1475 1913 1864 1574 1630 1706 1667 1752 1388 1213 984 694 345 665 885 830 875 1060 1152 1267 1474 1541 1580 1408 1281 1358 1269 1245 1284 1150 984 805 739
0 0 0 0 0 0 0 0 0 0 39 162 738 856 836 1085 1341 1908 2058 1864 1618 1614 1673 1837 1530 1438 1363 1183 911 730 807 1015 971 887 828 933 964 1028 1097 1272 1246 1285 1204 1014 890 826 654 466 488
0 0 0 0 0 0 0 0 0 0 10 47 68 636 1024 715 562 827 1704 1513 1235 1004 1157 1443 1551 1383 1186 1016 1011 938 721 890 979 1005 811 625 726 884 725 567 762 915 1166 1066 937 632 414 212 152
0 0 0 0 0 0 0 0 0 0 0 0 0 394 804 434 500 550 562 978 958 797 836 1214 1505 1423 1392 1217 305 249 573 700 736 947 964 632 570 761 861 553 369 534 620 659 698 584 408 252 72
0 0 0 0 0 0 0 0 0 0 0 0 0 38 146 339 257 849 961 546 422 194 134 790 1311 1259 918 523 118 479 480 395 453 646 538 601 767 476 350 1 0 118 247 336 483 436 181 44 7
0 0 0 0 0 0 0 0 0 0 0 0 0 0 1 152 423 459 159 38 0 0 0 1 427 586 587 103 160 1117 1219 1047 838 811 698 526 276 105 23 0 0 0 0 0 246 227 88 4 40
0 0 0 0 0 0 0 0 0 0 0 0 0 0 0 0 0 0 0 0 0 0 0 0 0 5 315 402 541 776 588 574 236 284 242 187 0 0 0 0 0 0 0 0 1 45 162 155 125
0 0 0 0 0 0 0 0 0 0 0 0 0 0 0 0 0 0 0 0 0 0 0 0 0 0 0 27 54 40 0 0 0 26 203 205 148 40 2 0 2 0 0 0 4 0 0 42 221
0 0 0 0 0 0 0 0 0 0 0 0 0 0 0 0 0 0 0 0 0 0 0 0 0 0 0 0 0 0 0 0 0 0 0 0 13 11 3 0 0 0 0 0 0 0 24 56 51
0 0 0 0 0 0 0 0 0 0 0 0 0 0 0 0 0 0 0 0 0 0 0 0 0 0 0 0 0 0 0 0 0 0 0 0 0 3 57 0 0 13 53 98 35 47 1 33 2
0 0 0 0 0 0 0 0 0 0 0 0 0 0 0 0 0 0 0 0 0 0 0 0 0 0 0 0 0 0 0 0 0 0 0 0 0 0 0 0 0 0 3 21 104 94 108 133 119
0 0 0 0 0 0 0 0 0 0 0 0 0 0 0 0 0 0 0 0 0 0 0 0 0 0 0 0 0 0 0 0 0 0 0 0 0 0 0 0 0 0 0 0 0 0 0 26 47
0 0 0 0 0 0 0 0 0 0 0 0 0 0 0 0 0 0 0 0 0 0 0 0 0 0 0 0 0 0 0 0 0 0 0 0 0 0 0 0 0 0 0 0 0 0 0 0 0
0 0 0 0 0 0 0 0 0 0 0 0 0 0 0 0 0 0 0 0 0 0 0 0 0 0 0 0 0 0 0 0 0 0 0 0 0 0 0 0 0 0 0 0 0 0 0 0 0
0 0 0 0 0 0 0 0 0 0 0 0 0 0 0 0 0 0 0 0 0 0 0 0 0 0 0 0 0 0 0 0 0 0 0 0 0 0 0 0 0 0 0 0 0 0 0 0 0
0 0 0 0 0 0 0 0 0 0 0 0 0 0 0 0 0 0 0 0 0 0 0 0 0 0 0 0 0 0 0 0 0 0 0 0 0 0 0 0 0 0 0 0 0 0 0 0 0
0 0 0 0 0 0 0 0 0 0 0 0 0 0 0 0 0 0 0 0 0 0 0 0 0 0 0 0 0 0 0 0 0 0 0 0 0 0 0 0 0 0 0 0 0 0 0 0 0
0 0 0 0 0 0 0 0 0 0 0 0 0 0 0 0 0 0 0 0 0 0 0 0 0 0 0 0 0 0 0 0 0 0 0 0 0 0 0 0 0 0 0 0 0 0 0 0 0
0 0 0 0 0 0 0 0 0 0 0 0 0 0 0 0 0 0 0 0 0 0 0 0 0 0 0 0 0 0 0 0 0 0 0 0 0 0 0 0 0 7 13 8 8 5 0 0 0
0 0 0 0 0 0 0 0 0 0 0 0 0 0 0 0 0 0 0 0 0 0 0 0 0 0 0 0 0 0 0 0 0 0 0 0 0 0 0 0 0 0 0 4 7 12 21 16 7
0 0 0 0 0 0 0 0 0 0 0 0 0 0 0 0 0 0 0 0 0 0 0 0 0 0 0 0 0 0 0 0 0 0 0 0 0 0 0 0 0 0 0 0 0 0 0 0 0
0 0 0 0 0 0 0 0 0 0 0 0 0 0 0 0 0 0 0 0 0 0 0 0 0 0 0 0 0 0 0 0 0 0 0 0 0 0 0 0 0 0 0 0 0 0 0 0 0
0 0 0 0 0 0 0 0 0 0 0 0 0 0 0 0 0 0 0 0 0 0 0 0 0 0 0 0 0 0 0 0 0 0 0 0 0 0 0 0 0 0 0 0 0 0 0 0 0
0 0 0 0 0 0 0 0 0 0 0 0 0 0 0 0 0 0 0 0 0 0 0 0 0 0 0 0 0 0 0 0 0 0 0 0 0 0 0 0 0 0 0 0 0 0 0 0 0
0 0 0 0 0 0 0 0 0 0 0 0 0 0 0 0 0 0 0 0 0 0 0 0 0 0 0 0 0 0 0 0 0 0 0 0 0 0 0 0 0 0 0 0 0 0 0 0 0
0 0 0 0 0 0 0 0 0 0 0 0 0 0 0 0 0 0 0 0 0 0 0 0 0 0 0 0 0 0 0 0 0 0 0 0 0 0 0 0 0 0 0 0 0 0 0 0 0

GFSSGP_con_mlcape_003.txt.gz
CAPE
0 0 0 0 0 0 0 0 0 0 0 66 94 215 398 460 631 580 770 1251 1302 1266 1048 815 246 239 598 1149 1339 1514 1829 2074 1898 1843 1627 1413 1008 410 776 602 393 345 518 687 954 915 910 1120 979
0 0 0 0 0 0 0 0 0 0 0 0 241 236 363 739 727 964 1082 1483 1460 1277 1161 942 276 238 225 691 1043 1356 1699 1743 943 1768 1682 1278 903 44 116 10 1 23 440 366 702 753 874 1043 928
0 0 0 0 0 0 0 0 0 0 0 0 202 581 777 1034 1062 1074 1230 1483 1588 1430 1195 875 565 512 289 330 670 1122 1384 1405 1436 1431 1588 1352 1212 464 62 0 1 7 796 834 809 802 1031 1231 1169
0 0 0 0 0 0 0 0 0 0 0 0 209 714 894 1136 1327 1219 1389 1481 1717 1559 1530 1020 850 777 445 275 665 1040 919 948 1020 1066 1205 1241 1315 815 298 52 199 486 836 693 646 618 1007 976 954
0 0 0 0 0 0 0 0 0 0 61 151 252 612 965 1342 1633 1678 1526 1636 1603 1685 1737 1608 1195 1198 1070 773 396 685 1107 977 847 995 1240 956 990 1127 1033 978 784 695 358 139 798 988 659 562 635
0 0 0 0 0 0 0 0 0 8 58 313 545 844 1031 1359 1785 1882 1627 1487 1497 1607 1639 1850 1348 1180 1073 911 770 562 671 943 1002 944 879 971 742 707 538 614 820 768 836 814 889 776 566 284 167
0 0 0 0 0 0 0 0 0 0 15 40 322 516 1194 1113 1468 1696 1754 1641 1316 1170 1413 1633 1713 1448 1104 633 390 497 555 501 699 898 871 767 721 631 701 297 289 450 641 553 644 644 386 138 111
0 0 0 0 0 0 0 0 0 0 0 0 0 340 710 1104 1561 1532 1560 1770 1755 1510 1321 1400 1507 1451 1463 1313 275 146 280 470 528 655 687 568 601 607 288 198 74 1 23 0 43 302 414 248 103
0 0 0 0 0 0 0 0 0 0 0 0 0 2 701 1205 1433 1424 1477 1459 1262 856 840 1501 1652 1646 1143 643 163 683 608 463 483 592 301 362 1028 709 566 73 66 1 0 0 0 0 49 97 35
0 0 0 0 0 0 0 0 0 0 0 0 0 129 682 942 889 1027 1043 809 248 99 48 178 977 1319 1086 523 224 1098 1177 829 823 873 865 612 639 630 503 148 3 0 0 0 0 0 0 30 155
0 0 0 0 0 0 0 0 0 0 0 0 0 10 402 630 644 668 381 82 0 0 0 0 279 821 1207 838 901 1066 806 787 550 612 444 432 112 66 178 237 193 19 0 2 0 0 0 0 0
0 0 0 0 0 0 0 0 0 0 0 0 0 0 86 207 179 70 0 0 0 0 0 0 125 386 403 406 445 541 282 146 112 307 309 199 66 92 84 109 27 19 3 2 0 0 0 0 0
0 0 0 0 0 0 0 0 0 0 0 0 0 0 0 0 0 0 0 0 0 0 0 0 0 35 182 76 15 0 0 0 0 0 0 0 0 0 0 0 1 0 0 1 3 0 0 0 0
0 0 0 0 0 0 0 0 0 0 0 0 0 0 0 0 0 0 0 0 0 0 0 0 0 0 0 0 0 0 0 0 0 0 0 0 0 0 1 0 0 1 2 20 86 38 83 68 37
0 0 0 0 0 0 0 0 0 0 0 0 0 0 0 0 0 0 0 0 0 0 0 0 0 0 0 0 0 0 0 0 0 0 0 0 0 0 0 0 0 0 0 0 0 0 4 89 128
0 0 0 0 0 0 0 0 0 0 0 0 0 0 0 0 0 0 0 0 0 0 0 0 0 0 0 0 0 0 0 0 0 0 0 0 0 0 0 0 0 0 0 0 0 0 0 0 5
0 0 0 0 0 0 0 0 0 0 0 0 0 0 0 0 0 0 0 0 0 0 0 0 0 0 0 0 0 0 0 0 0 0 0 0 0 0 0 0 0 0 0 0 0 0 0 0 0
0 0 0 0 0 0 0 0 0 0 0 0 0 0 0 0 0 0 0 0 0 0 0 0 0 0 0 0 0 0 0 0 0 0 0 0 0 0 0 0 0 0 0 0 0 0 0 0 0
0 0 0 0 0 0 0 0 0 0 0 0 0 0 0 0 0 0 0 0 0 0 0 0 0 0 0 0 0 0 0 0 0 0 0 0 0 0 0 0 0 0 0 0 0 0 0 0 0
0 0 0 0 0 0 0 0 0 0 0 0 0 0 0 0 0 0 0 0 0 0 0 0 0 0 0 0 0 0 0 0 0 0 0 0 0 0 0 0 0 0 0 0 0 0 0 0 0
0 0 0 0 0 0 0 0 0 0 0 0 0 0 0 0 0 0 0 0 0 0 0 0 0 0 0 0 0 0 0 0 0 0 0 0 0 0 0 0 0 0 0 0 0 0 0 0 0
0 0 0 0 0 0 0 0 0 0 0 0 0 0 0 0 0 0 0 0 0 0 0 0 0 0 0 0 0 0 0 0 0 0 0 0 0 1 4 0 0 0 0 1 4 2 1 3 1
0 0 0 0 0 0 0 0 0 0 0 0 0 0 0 0 0 0 0 0 0 0 0 0 0 0 0 0 0 0 0 0 0 0 0 0 0 0 0 0 0 1 0 2 7 19 28 16 19
0 0 0 0 0 0 0 0 0 0 0 0 0 0 0 0 0 0 0 0 0 0 0 0 0 0 0 0 0 0 0 0 0 0 0 0 0 0 0 0 0 0 0 0 2 12 14 23 24
0 0 0 0 0 0 0 0 0 0 0 0 0 0 0 0 0 0 0 0 0 0 0 0 0 0 0 0 0 0 0 0 0 0 0 0 0 0 0 0 0 0 0 0 0 0 0 0 0
0 0 0 0 0 0 0 0 0 0 0 0 0 0 0 0 0 0 0 0 0 0 0 0 0 0 0 0 0 0 0 0 0 0 0 0 0 0 0 0 0 0 0 0 0 0 0 0 0
0 0 0 0 0 0 0 0 0 0 0 0 0 0 0 0 0 1 0 0 0 0 0 0 0 0 0 0 0 0 0 0 0 0 0 0 0 0 0 0 0 0 0 0 0 0 0 0 0
0 0 0 2 0 2 0 0 0 0 1 0 0 0 0 0 1 1 2 0 0 0 0 0 0 0 0 0 0 0 0 0 0 0 0 0 0 0 0 0 0 0 0 0 0 0 0 0 0
0 0 0 0 0 4 3 0 0 0 0 0 0 0 0 0 0 0 1 0 1 2 0 0 0 0 0 0 0 0 0 0 0 0 0 0 0 0 0 0 0 0 0 0 0 0 0 0 0
0 0 0 0 0 0 8 0 0 0 0 0 0 2 0 0 0 1 1 3 2 3 0 0 0 0 0 0 0 0 0 0 0 0 0 0 0 0 0 0 0 0 0 0 0 0 0 0 0

GFSSGP_con_mlcape_006.txt.gz
CAPE
0 0 0 0 0 0 0 0 0 0 0 21 16 319 328 419 488 351 859 1081 1159 1070 857 120 43 59 428 1047 1488 1689 1969 1386 1688 1898 1649 1439 1212 961 878 644 289 152 33 0 170 602 538 787 657
0 0 0 0 0 0 0 0 0 0 0 0 23 351 411 538 806 830 1239 1258 1206 1122 765 384 211 190 168 499 1094 1505 1570 1421 1272 1591 1494 1452 1152 753 818 305 0 1 45 9 21 389 392 555 473
0 0 0 0 0 0 0 0 0 0 0 0 36 479 287 813 781 949 1378 1382 1329 1253 1097 584 401 389 273 336 708 1070 1121 1233 1246 1385 1399 1271 1323 838 541 355 248 172 511 1008 635 67 265 432 552
0 0 0 0 0 0 0 0 0 0 0 0 82 580 925 1117 988 1167 1294 1458 1489 1480 1349 790 742 723 559 343 840 1027 859 931 1100 1040 1017 1628 1225 851 422 31 59 184 685 400 114 1 11 345 290
0 0 0 0 0 0 0 0 0 0 21 22 134 454 801 1461 1458 1264 1286 1329 1494 1574 1734 1132 885 993 960 738 569 696 977 846 744 765 956 1114 1118 1354 1130 1099 888 570 455 12 0 0 0 34 98
0 0 0 0 0 0 0 0 0 9 39 94 193 135 961 1444 1625 1638 1348 1235 1497 1714 1868 1686 1134 967 896 751 592 418 543 721 884 809 582 740 710 544 635 637 540 503 475 331 114 119 248 499 176
0 0 0 0 0 0 0 0 0 0 26 29 116 240 366 661 1701 1672 1352 1233 1089 1193 1408 1771 1860 1388 1152 724 415 529 507 613 850 952 832 566 837 736 347 305 357 269 228 282 430 471 494 349 279
0 0 0 0 0 0 0 0 0 0 0 0 0 143 368 920 1573 1597 1460 1463 1465 1338 1355 1335 1452 1920 1413 723 152 231 419 515 646 805 809 843 700 400 272 190 48 28 31 2 13 4 209 390 266
0 0 0 0 0 0 0 0 0 0 0 0 0 42 1050 1364 1432 1325 1287 1192 1193 809 741 1321 1536 1674 1387 1082 256 754 581 581 629 563 431 422 1121 658 272 0 0 0 0 0 0 0 0 0 0
0 0 0 0 0 0 0 0 0 0 0 0 0 0 390 952 1109 905 742 798 500 95 17 90 599 1118 1290 1061 314 1466 1247 1043 961 1028 873 839 763 394 274 86 0 0 0 0 0 0 0 0 0
0 0 0 0 0 0 0 0 0 0 0 0 0 0 41 225 318 427 281 161 2 0 0 0 303 916 1291 1087 1164 1273 994 936 762 711 575 411 206 164 191 194 224 105 0 0 0 0 0 0 0
0 0 0 0 0 0 0 0 0 0 0 0 0 0 0 62 161 170 98 0 0 0 0 0 255 572 596 572 483 650 429 376 283 298 299 180 137 70 119 39 9 0 0 2 1 0 0 0 0
0 0 0 0 0 0 0 0 0 0 0 0 0 0 0 0 21 0 0 0 0 0 0 0 6 248 431 224 81 1 0 0 0 0 0 0 1 18 3 0 0 0 0 0 0 0 0 0 0
0 0 0 0 0 0 0 0 0 0 0 0 0 0 0 0 0 0 0 0 0 0 0 0 0 0 0 37 0 0 0 0 0 0 0 0 0 0 0 0 0 0 0 0 1 6 9 4 0
0 0 0 0 0 0 0 0 0 0 0 0 0 0 0 0 0 0 0 0 0 0 0 0 0 0 0 0 0 0 0 0 0 0 0 0 0 0 0 0 0 0 0 0 0 0 0 0 0
0 0 0 0 0 0 0 0 0 0 0 0 0 0 0 0 0 0 0 0 0 0 0 0 0 0 0 0 0 0 0 0 0 0 0 0 0 0 0 0 0 0 0 0 0 0 0 0 0
0 0 0 0 0 0 0 0 0 0 0 0 0 0 0 0 0 0 0 0 0 0 0 0 0 0 0 0 0 0 0 0 0 0 0 0 0 0 0 0 0 0 0 0 0 0 0 0 0
0 0 0 0 0 0 0 0 0 0 0 0 0 0 0 0 0 0 0 0 0 0 0 0 0 0 0 0 0 0 0 0 0 0 0 0 0 0 0 0 0 0 0 0 0 0 0 0 0
0 0 0 0 0 0 0 0 0 0 0 0 0 0 0 0 0 0 0 0 0 0 0 0 0 0 0 0 0 0 0 0 0 0 0 0 0 0 0 0 0 0 0 0 0 0 0 0 0
0 0 0 0 0 0 0 0 0 0 0 0 0 0 0 0 0 0 0 0 0 0 0 0 0 0 0 0 0 0 0 0 0 0 0 0 0 0 0 0 0 0 0 0 0 0 0 0 0
0 0 0 0 0 0 0 0 0 0 0 0 0 0 0 0 0 0 0 0 0 0 0 0 0 0 0 0 0 0 0 0 0 0 0 0 0 0 0 0 0 0 0 0 0 0 0 0 0
0 0 0 0 0 0 0 0 0 0 0 0 0 0 0 0 0 0 0 0 0 0 0 0 0 0 0 0 0 0 0 0 0 0 0 0 0 0 3 5 11 11 4 0 0 0 1 0 0
0 0 0 0 0 0 0 0 0 0 0 0 0 0 0 0 0 0 0 0 0 0 0 0 0 0 0 0 0 0 0 0 0 0 0 0 0 0 0 0 0 2 9 5 0 0 0 0 0
0 0 0 0 0 0 0 0 0 0 0 0 0 0 0 0 0 0 0 0 0 0 0 0 0 0 0 0 0 0 0 0 0 0 0 0 0 0 0 0 0 0 0 0 0 0 0 0 0
0 0 0 0 0 0 0 0 0 0 0 0 0 0 0 0 0 0 0 0 0 0 0 0 0 0 0 0 0 0 0 0 0 0 0 0 0 0 0 0 0 0 0 0 0 0 0 0 0
0 0 0 0 0 0 0 0 0 0 0 0 0 0 0 0 0 0 0 0 0 0 0 0 0 0 0 0 0 0 0 0 0 0 0 0 0 0 0 0 0 0 0 0 0 0 0 0 0
0 0 0 0 0 0 0 0 0 0 0 0 0 0 0 0 0 0 0 0 0 0 0 0 0 0 0 0 0 0 0 0 0 0 0 0 0 0 0 0 0 0 0 0 0 0 0 0 0
0 0 0 0 0 0 0 0 0 7 3 0 2 0 0 0 0 0 0 0 0 0 0 0 0 0 0 0 0 0 0 0 0 0 0 0 0 0 0 0 0 0 0 0 0 0 0 0 0
0 0 4 3 3 6 1 0 0 0 0 0 0 0 0 0 0 0 0 0 0 0 0 0 0 0 0 0 0 0 0 0 0 0 0 0 0 0 0 0 0 0 0 0 0 0 0 0 0
0 0 2 3 0 0 1 0 0 0 8 3 11 9 2 0 0 0 0 0 0 0 0 0 0 0 0 0 0 0 0 0 0 0 0 0 0 0 0 0 0 0 0 0 0 0 0 0 0

GFSSGP_con_mlcape_009.txt.gz
CAPE
0 0 0 0 0 0 0 0 0 0 0 191 255 272 354 362 436 340 970 1065 875 479 75 34 16 78 534 1027 1440 1527 1101 1249 1674 1802 1651 1393 1290 1074 917 841 892 685 298 171 183 559 527 416 387
0 0 0 0 0 0 0 0 0 0 0 239 316 127 254 532 967 1069 1072 1090 817 588 297 212 81 50 215 830 1125 1309 1300 1311 1366 1537 1687 1517 1287 1092 931 761 278 144 122 131 534 488 188 34 167
0 0 0 0 0 0 0 0 0 0 0 0 371 299 555 618 847 1317 1374 1199 1075 768 448 393 212 110 257 805 993 1024 1017 998 1168 1419 1446 1581 1191 828 723 501 402 366 562 803 364 241 307 186 93
0 0 0 0 0 0 0 0 0 0 0 234 546 582 812 938 1053 1401 1428 1328 1227 966 573 596 540 325 213 515 737 790 701 729 605 833 1491 1502 1246 979 665 188 275 356 851 917 623 231 27 155 54
0 0 0 0 0 0 0 0 0 0 68 212 285 214 302 1092 1156 1054 1422 1367 1435 1307 775 735 733 663 562 322 311 448 475 527 878 949 960 1084 1270 1197 1077 956 778 895 653 373 178 133 77 0 64
0 0 0 0 0 0 0 0 0 0 5 59 213 248 443 1255 1440 1237 1299 1487 1497 1507 1195 968 781 756 657 475 372 403 509 630 776 916 1041 831 1006 1229 1125 1022 859 811 404 76 2 0 0 0 0
0 0 0 0 0 0 0 0 0 0 0 0 33 52 267 800 1598 1582 980 888 1410 1709 1772 1298 1165 1150 863 589 402 407 465 651 746 906 961 972 789 514 484 568 570 567 451 436 421 372 304 316 245
0 0 0 0 0 0 0 0 0 0 0 0 13 345 281 709 1624 1581 1308 1198 1089 1093 1104 1525 1463 1263 852 436 287 417 414 537 762 836 912 720 483 432 330 220 246 224 202 250 193 281 323 237 178
0 0 0 0 0 0 0 0 0 0 0 0 49 519 109 233 1465 1463 1077 1262 509 427 638 632 887 1298 911 526 362 609 608 641 701 642 588 704 680 408 144 67 0 0 0 0 0 0 33 1 0
0 0 0 0 0 0 0 0 0 0 0 0 3 940 1124 1126 1081 1203 1103 777 194 0 15 47 69 643 842 941 527 853 850 809 844 852 620 620 766 281 92 86 25 1 0 0 0 0 0 0 0
0 0 0 0 0 0 0 0 0 0 0 0 0 111 682 1015 882 693 214 40 0 0 0 0 264 711 811 799 1075 944 700 731 578 515 494 330 227 125 166 87 113 32 0 0 0 0 0 0 0
0 0 0 0 0 0 0 0 0 0 0 0 0 0 3 43 104 135 14 0 0 0 0 0 30 319 414 191 683 552 564 328 408 323 238 1 94 9 88 16 6 0 0 0 0 0 0 0 0
0 0 0 0 0 0 0 0 0 0 0 0 0 0 0 0 0 0 0 0 0 0 0 0 0 118 186 8 2 0 0 0 0 0 0 0 0 0 0 0 0 0 0 0 0 0 0 0 0
0 0 0 0 0 0 0 0 0 0 0 0 0 0 0 0 0 0 0 0 0 0 0 0 0 0 0 0 0 0 0 0 0 0 0 0 0 0 0 0 0 0 0 0 0 0 0 0 0
0 0 0 0 0 0 0 0 0 0 0 0 0 0 0 0 0 0 0 0 0 0 0 0 0 0 0 0 0 0 0 0 0 0 0 0 0 0 0 0 0 0 0 0 0 0 0 0 0
0 0 0 0 0 0 0 0 0 0 0 0 0 0 0 0 0 0 0 0 0 0 0 0 0 0 0 0 0 0 0 0 0 0 0 0 0 0 0 0 0 0 0 0 0 0 0 0 0
0 0 0 0 0 0 0 0 0 0 0 0 0 0 0 0 0 0 0 0 0 0 0 0 0 0 0 0 0 0 0 0 0 0 0 0 0 0 0 0 0 0 0 0 0 0 0 0 0
0 0 0 0 0 0 0 0 0 0 0 0 0 0 0 0 0 0 0 0 0 0 0 0 0 0 0 0 0 0 0 0 0 0 0 0 0 0 0 0 0 0 0 0 0 0 0 0 0
0 0 0 0 0 0 0 0 0 0 0 0 0 0 0 0 0 0 0 0 0 0 0 0 0 0 0 0 0 0 0 0 0 0 0 0 0 0 0 0 0 0 0 0 0 0 0 0 0
0 0 0 0 0 0 0 0 0 0 0 0 0 0 0 0 0 0 0 0 0 0 0 0 0 0 0 0 0 0 0 0 0 0 0 0 0 0 0 0 0 0 0 0 0 0 0 0 0
0 0 0 0 0 0 0 0 0 0 0 0 0 0 0 0 0 0 0 0 0 0 0 0 0 0 0 0 0 0 0 0 0 0 0 0 0 0 0 0 0 0 0 0 0 0 0 0 0
0 0 0 0 0 0 0 0 0 0 0 0 0 0 0 0 0 0 0 0 0 0 0 0 0 0 0 0 0 0 0 0 0 0 0 0 0 0 0 0 0 0 0 0 0 0 0 0 0
0 0 0 0 0 0 0 0 0 0 0 0 0 0 0 0 0 0 0 0 0 0 0 0 0 0 0 0 0 0 0 0 0 0 0 0 0 0 0 0 0 0 0 0 0 0 0 0 0
0 0 0 0 0 0 0 0 0 0 0 0 0 0 0 0 0 0 0 0 0 0 0 0 0 0 0 0 0 0 0 0 0 0 0 0 0 0 0 0 0 0 0 0 0 0 0 0 0
0 0 0 0 0 0 0 0 0 0 0 0 0 0 0 0 0 0 0 0 0 0 0 0 0 0 0 0 0 0 0 0 0 0 0 0 0 0 0 0 0 0 0 0 0 0 0 0 0
0 0 0 0 0 0 0 0 0 0 0 0 0 0 0 0 0 0 0 0 0 0 0 0 0 0 0 0 0 0 0 0 0 0 0 0 0 0 0 0 0 0 0 0 0 0 0 0 0
0 0 0 0 0 0 0 0 0 0 0 0 0 0 0 0 0 0 0 0 0 0 0 0 0 0 0 0 0 0 0 0 0 0 0 0 0 0 0 0 0 0 0 0 0 0 0 0 0
0 0 0 0 0 0 0 0 0 0 0 0 0 0 0 0 0 0 0 0 0 0 0 0 0 0 0 0 0 0 0 0 0 0 0 0 0 0 0 0 0 0 0 0 0 0 0 0 0
0 0 0 1 0 7 8 0 0 0 0 0 0 4 0 0 0 0 0 0 0 0 0 0 0 0 0 0 0 0 0 0 0 0 0 0 0 0 0 0 0 0 0 0 0 0 0 0 0
0 0 0 0 0 0 0 0 0 0 0 0 0 0 0 0 0 0 0 0 0 0 0 0 0 0 0 0 0 0 0 0 0 0 0 0 0 0 0 0 0 0 0 0 0 0 0 0 0

GFSSGP_con_mlcape_012.txt.gz
CAPE
0 0 0 0 0 0 0 0 0 0 80 199 266 216 236 346 281 134 907 557 135 53 11 42 259 724 1063 1334 1470 1191 1517 1761 1724 1588 1373 1317 1307 1203 1094 987 896 508 370 530 761 1112 1033 806 503
0 0 0 0 0 0 0 0 0 25 162 65 151 372 403 653 803 861 917 553 427 240 149 72 155 554 912 1036 1147 1210 1330 1319 1425 1715 1766 1596 1499 1313 1172 950 465 195 248 1101 863 756 589 620 527
0 0 0 0 0 0 0 0 0 58 38 81 372 496 633 788 1102 1044 1048 821 611 367 330 217 122 398 609 710 819 815 966 1251 1522 1640 1739 1688 1559 1432 1326 1003 674 618 815 910 799 868 712 394 119
0 0 0 0 0 0 0 0 0 1 156 296 427 535 755 785 1001 1136 1161 989 884 506 420 289 88 133 356 472 541 593 568 576 753 1547 1732 1648 1477 1269 943 490 502 706 771 1506 1048 890 663 187 11
0 0 0 0 0 0 0 0 2 13 102 185 236 361 866 1088 1233 1198 1190 1105 1011 439 513 491 359 286 268 407 530 583 682 661 725 828 902 1382 1534 1352 1353 1223 902 1114 1076 954 866 799 466 395 32
0 0 0 0 0 0 0 0 0 0 49 108 53 112 452 1032 1151 1333 1306 1355 1059 785 717 767 665 571 406 356 401 493 639 794 844 897 861 805 842 1054 1093 1076 1052 985 514 204 94 37 132 4 35
0 0 0 0 0 0 0 0 0 0 0 0 37 46 585 1060 1117 1211 1441 1459 1471 1225 947 934 980 864 653 436 321 342 495 748 907 979 939 792 642 568 599 676 705 711 614 633 574 265 48 353 162
0 0 0 0 0 0 0 0 0 0 0 72 139 0 134 1130 1313 990 1256 1453 1533 1514 1434 1140 1115 901 623 326 439 342 347 574 802 889 773 641 584 494 400 447 439 443 474 400 499 614 481 332 262
0 0 0 0 0 0 0 0 0 0 0 0 154 20 135 1025 1335 1120 834 755 899 1309 1359 1359 1334 1134 577 167 422 510 575 604 719 680 767 568 433 306 155 178 152 105 36 5 5 38 105 9 5
0 0 0 0 0 0 0 0 0 0 0 93 175 190 209 1289 1256 796 880 695 301 166 62 153 405 943 849 577 523 548 692 730 731 570 679 637 551 215 101 43 1 0 0 0 0 0 0 0 0
0 0 0 0 0 0 0 0 0 0 0 0 5 166 671 823 317 430 941 400 102 4 0 0 4 405 636 608 503 692 663 648 732 759 540 572 429 252 54 9 10 0 0 0 0 0 0 0 0
0 0 0 0 0 0 0 0 0 0 0 0 100 389 433 251 331 633 326 194 0 0 0 0 0 380 70 528 849 715 489 473 320 242 127 50 41 5 7 7 0 0 0 0 0 0 0 0 0
0 0 0 0 0 0 0 0 0 0 0 0 1 184 260 317 472 298 0 0 0 0 0 0 0 10 24 1 6 11 9 39 7 0 0 0 0 0 0 0 0 0 0 0 0 0 0 0 0
0 0 0 0 0 0 0 0 0 0 0 0 0 0 0 0 0 0 0 0 0 0 0 0 0 0 0 0 0 0 0 0 0 0 0 0 0 0 0 0 0 0 0 0 0 0 0 0 0
0 0 0 0 0 0 0 0 0 0 0 0 0 0 0 0 0 0 0 0 0 0 0 0 0 0 0 0 0 0 0 0 0 0 0 0 0 0 0 0 0 0 0 0 0 0 0 0 0
0 0 0 0 0 0 0 0 0 0 0 0 0 0 0 0 0 0 0 0 0 0 0 0 0 0 0 0 0 0 0 0 0 0 0 0 0 0 0 0 0 0 0 0 0 0 0 0 0
0 0 0 0 0 0 0 0 0 0 0 0 0 0 0 0 0 0 0 0 0 0 0 0 0 0 0 0 0 0 0 0 0 0 0 0 0 0 0 0 0 0 0 0 0 0 0 0 0
0 0 0 0 0 0 0 0 0 0 0 0 0 0 0 0 0 0 0 0 0 0 0 0 0 0 0 0 0 0 0 0 0 0 0 0 0 0 0 0 0 0 0 0 0 0 0 0 0
0 0 0 0 0 0 0 0 0 0 0 0 0 0 0 0 0 0 0 0 0 0 0 0 0 0 0 0 0 0 0 0 0 0 0 0 0 0 0 0 0 0 0 0 0 0 0 0 0
0 0 0 0 0 0 0 0 0 0 0 0 0 0 0 0 0 0 0 0 0 0 0 0 0 0 0 0 0 0 0 0 0 0 0 0 0 0 0 0 0 0 0 0 0 0 0 0 0
0 0 0 0 0 0 0 0 0 0 0 0 0 0 0 0 0 0 0 0 0 0 0 0 0 0 0 0 0 0 0 0 0 0 0 0 0 0 0 0 0 0 0 0 0 0 0 0 0
0 0 0 0 0 0 0 0 0 0 0 0 0 0 0 0 0 0 0 0 0 0 0 0 0 0 0 0 0 0 0 0 0 0 0 0 0 0 0 0 0 0 0 0 0 0 0 0 0
0 0 0 0 0 0 0 0 0 0 0 0 0 0 0 0 0 0 0 0 0 0 0 0 0 0 0 0 0 0 0 0 0 0 0 0 0 0 0 0 0 0 0 0 0 0 0 0 0
0 0 0 0 0 0 0 0 0 0 0 0 0 0 0 0 0 0 0 0 0 0 0 0 0 0 0 0 0 0 0 0 0 0 0 0 0 0 0 0 0 0 0 0 0 0 0 0 0
0 0 0 0 0 0 0 0 0 0 0 0 0 0 0 0 0 0 0 0 0 0 0 0 0 0 0 0 0 0 0 0 0 0 0 0 0 0 0 0 0 0 0 0 0 0 0 0 0
0 0 0 0 0 0 0 0 0 0 0 0 0 0 0 0 0 0 0 0 0 0 0 0 0 0 0 0 0 0 0 0 0 0 0 0 0 0 0 0 0 0 0 0 0 0 0 0 0
0 0 0 0 0 0 0 0 0 0 0 0 0 0 0 0 0 0 0 0 0 0 0 0 0 0 0 0 0 0 0 0 0 0 0 0 0 0 0 0 0 0 0 0 0 0 0 0 0
0 0 0 0 0 0 0 0 0 0 0 0 0 0 0 0 0 0 0 0 0 0 0 0 0 0 0 0 0 0 0 0 0 0 0 0 0 0 0 0 0 0 0 0 0 0 0 0 0
0 0 0 0 0 6 4 0 0 0 0 0 0 0 0 0 0 0 0 0 0 0 0 0 0 0 0 0 0 0 0 0 0 0 0 0 0 0 0 0 0 0 0 0 0 0 0 0 0
0 0 0 0 0 0 1 0 0 0 0 0 0 0 0 0 0 0 0 0 0 0 0 0 0 0 0 0 0 0 0 0 0 0 0 0 0 0 0 0 0 0 0 0 0 0 0 0 0

GFSSGP_con_mlcape_015.txt.gz
CAPE
0 0 0 0 0 0 0 0 0 0 65 174 152 57 70 222 77 59 605 450 25 20 159 449 859 1171 1327 1190 1291 1622 1777 1847 1750 1491 1446 1461 1312 1205 1094 1043 722 486 478 621 907 1133 1319 1106 806
0 0 0 0 0 0 0 0 0 70 230 263 334 425 384 364 613 711 556 169 61 66 68 231 625 940 1060 1164 1235 1288 1406 1502 1781 1911 1739 1620 1506 1509 1370 1006 553 262 564 633 816 952 1259 1032 735
0 0 0 0 0 0 0 0 22 113 107 67 384 556 578 660 878 895 690 387 240 187 83 133 386 651 789 931 964 1095 1266 1496 1668 1828 1909 1885 1765 1616 1486 1110 884 818 957 1038 1080 1239 877 819 715
0 0 0 0 0 0 0 0 62 113 150 386 522 517 714 696 928 953 658 495 525 220 134 109 300 352 350 396 319 322 318 567 1412 1744 1849 1778 1668 1412 938 429 537 968 1054 1425 1157 1267 1096 517 264
0 0 0 0 0 0 0 0 0 0 94 148 161 322 694 960 996 916 937 816 377 338 316 202 176 215 279 372 295 214 300 539 655 921 1263 1519 1533 1507 1450 1336 763 992 1171 1159 1350 1030 899 499 194
0 0 0 0 0 0 0 0 0 0 16 65 128 159 530 915 1066 1026 1068 928 386 387 488 471 401 362 243 269 355 486 579 673 838 752 735 1055 1198 1274 1193 1212 1287 1146 647 274 163 121 455 384 100
0 0 0 0 0 0 0 0 0 0 0 0 27 53 574 997 1168 1242 1239 1047 753 758 755 808 808 767 548 340 303 469 659 746 892 747 667 527 427 503 663 808 875 871 862 862 627 174 83 188 292
0 0 0 0 0 0 0 0 0 0 0 13 31 4 475 966 1129 1344 1354 1219 1138 980 885 923 953 880 610 285 356 350 522 662 781 844 773 631 546 503 555 629 649 678 515 533 603 602 446 324 285
0 0 0 0 0 0 0 0 0 0 0 0 53 0 91 1035 961 1092 1243 1199 1299 1263 1178 1008 1083 954 598 169 294 365 425 529 694 792 724 561 461 345 225 274 244 141 35 7 3 21 6 0 0
0 0 0 0 0 0 0 0 0 0 0 0 2 55 512 1193 846 951 1145 1152 1162 1285 1284 1166 1145 1082 706 279 277 403 460 537 574 526 606 510 308 124 106 49 16 20 0 0 0 0 0 0 0
0 0 0 0 0 0 0 0 0 0 0 0 0 8 820 1181 1022 860 770 792 907 857 364 370 246 484 637 577 202 371 449 493 511 450 374 396 515 134 14 3 19 1 0 0 0 0 0 0 0
0 0 0 0 0 0 0 0 0 0 0 0 0 0 392 868 822 756 637 456 229 21 0 0 1 100 30 298 375 456 509 379 391 323 200 231 126 34 3 0 0 0 0 0 0 0 0 0 0
0 0 0 0 0 0 0 0 0 0 0 0 9 96 135 150 38 99 421 285 9 0 0 0 0 5 0 137 181 379 174 216 90 23 0 0 0 0 0 0 0 0 0 0 0 0 0 0 0
0 0 0 0 0 0 0 0 0 0 0 0 0 22 52 1 15 105 61 7 0 0 0 0 0 0 0 0 0 0 0 0 0 0 0 0 0 0 0 0 0 0 0 0 0 0 0 0 0
0 0 0 0 0 0 0 0 0 0 0 0 0 0 0 0 0 40 1 0 0 0 0 0 0 0 0 0 0 0 0 0 0 0 0 0 0 0 0 0 0 0 0 0 0 0 0 0 0
0 0 0 0 0 0 0 0 0 0 0 0 0 0 0 0 0 0 0 0 0 0 0 0 0 0 0 0 0 0 0 0 0 0 0 0 0 0 0 0 0 0 0 0 0 0 0 0 0
0 0 0 0 0 0 0 0 0 0 0 0 0 0 0 0 0 0 0 0 0 0 0 0 0 0 0 0 0 0 0 0 0 0 0 0 0 0 0 0 0 0 0 0 0 0 0 0 0
0 0 0 0 0 0 0 0 0 0 0 0 0 0 0 0 0 0 0 0 0 0 0 0 0 0 0 0 0 0 0 0 0 0 0 0 0 0 0 0 0 0 0 0 0 0 0 0 0
0 0 0 0 0 0 0 0 0 0 0 0 0 0 0 0 0 0 0 0 0 0 0 0 0 0 0 0 0 0 0 0 0 0 0 0 0 0 0 0 0 0 0 0 0 0 0 0 0
0 0 0 0 0 0 0 0 0 0 0 0 0 0 0 0 0 0 0 0 0 0 0 0 0 0 0 0 0 0 0 0 0 0 0 0 0 0 0 0 0 0 0 0 0 0 0 0 0
0 0 0 0 0 0 0 0 0 0 0 0 0 0 0 0 0 0 0 0 0 0 0 0 0 0 0 0 0 0 0 0 0 0 0 0 0 0 0 0 0 0 0 0 0 0 0 0 0
0 0 0 0 0 0 0 0 0 0 0 0 0 0 0 0 0 0 0 0 0 0 0 0 0 0 0 0 0 0 0 0 0 0 0 0 0 0 0 0 0 0 0 0 0 0 0 0 0
0 0 0 0 0 0 0 0 0 0 0 0 0 0 0 0 0 0 0 0 0 0 0 0 0 0 0 0 0 0 0 0 0 0 0 0 0 0 0 0 0 0 0 0 0 0 0 0 0
0 0 0 0 0 0 0 0 0 0 0 0 0 0 0 0 0 0 0 0 0 0 0 0 0 0 0 0 0 0 0 0 0 0 0 0 0 0 0 0 0 0 0 0 0 0 0 0 0
0 0 0 0 0 0 0 0 0 0 0 0 0 0 0 0 0 0 0 0 0 0 0 0 0 0 0 0 0 0 0 0 0 0 0 0 0 0 0 0 0 0 0 0 0 0 0 0 0
0 0 0 0 0 0 0 0 0 0 0 0 0 0 0 0 0 0 0 0 0 0 0 0 0 0 0 0 0 0 0 0 0 0 0 0 0 0 0 0 0 0 0 0 0 0 0 0 0
0 0 0 0 0 0 0 0 0 0 0 0 0 0 0 0 0 0 0 0 0 0 0 0 0 0 0 0 0 0 0 0 0 0 0 0 0 0 0 0 0 0 0 0 0 0 0 0 0
0 0 0 0 0 0 0 0 0 0 0 0 0 0 0 0 0 0 0 0 0 0 0 0 0 0 0 0 0 0 0 0 0 0 0 0 0 0 0 0 0 0 0 0 0 0 0 0 0
0 0 0 0 0 0 2 0 0 0 0 0 0 0 0 0 0 0 0 0 0 0 0 0 0 0 0 0 0 0 0 0 0 0 0 0 0 0 0 0 0 0 0 0 0 0 0 0 0
0 0 0 0 0 0 0 0 0 0 0 0 0 0 0 0 0 0 0 0 0 0 0 0 0 0 0 0 0 0 0 0 0 0 0 0 0 0 0 0 0 0 0 0 0 0 0 0 0

GFSSGP_con_mlcape_018.txt.gz
CAPE
0 0 0 0 0 0 0 0 0 0 20 51 48 27 70 197 87 32 446 515 215 82 368 703 1007 1158 1075 1391 1671 1711 1746 1626 1385 1366 1301 1163 1257 1300 1137 1114 763 482 812 982 1011 1135 1329 1039 843
0 0 0 0 0 0 0 0 0 15 139 153 159 165 202 30 526 473 456 157 50 43 199 606 939 1042 1087 1126 1207 1355 1508 1771 1952 1778 1727 1705 1626 1539 1392 906 437 346 823 728 804 1076 1267 1141 1099
0 0 0 0 0 0 0 0 21 126 38 104 203 367 390 392 632 578 392 172 125 48 112 492 668 798 843 915 1015 1180 1357 1500 1677 1906 1967 1920 1797 1832 1458 1159 879 1011 1224 1090 1062 1142 996 1052 1076
0 0 0 0 0 0 0 0 100 102 106 282 403 147 524 573 842 818 395 356 237 102 86 260 267 323 350 260 236 272 452 989 1548 1823 1869 1833 1626 1263 826 632 579 1010 1217 1383 1166 1227 1242 905 683
0 0 0 0 0 0 0 26 56 36 83 221 218 220 470 789 798 643 629 438 235 89 31 175 290 328 344 296 207 223 310 469 664 973 1366 1535 1576 1547 1453 1212 770 1195 1217 1189 1746 1253 1128 858 561
0 0 0 0 0 0 0 0 0 1 16 115 191 168 441 802 712 734 725 384 196 112 186 217 349 304 368 419 399 468 527 679 664 690 963 1061 1099 1112 1097 1155 1225 997 593 387 294 139 639 481 199
0 0 0 0 0 0 0 0 0 0 0 0 13 28 487 855 890 886 833 249 279 385 467 487 563 490 378 265 274 383 565 639 776 699 650 529 548 662 797 911 987 861 885 897 751 456 472 570 446
0 0 0 0 0 0 0 0 0 0 0 0 0 3 128 871 998 980 985 525 517 519 609 709 682 595 369 148 266 284 457 663 766 760 590 473 407 425 488 426 493 361 319 341 384 309 196 75 6
0 0 0 0 0 0 0 0 0 0 0 0 29 16 61 875 986 1038 1017 953 846 800 742 736 801 709 435 44 166 268 321 463 669 674 500 352 275 169 106 175 141 72 23 7 0 0 0 0 0
0 0 0 0 0 0 0 0 0 0 0 0 0 0 320 856 1040 1194 1171 985 980 1035 1083 854 875 834 567 242 66 183 261 323 409 472 358 280 157 41 11 0 0 1 0 0 0 0 0 0 0
0 0 0 0 0 0 0 0 0 0 0 0 0 0 691 940 892 1120 1081 904 727 1014 1067 893 777 669 635 565 127 100 164 246 260 197 307 244 221 65 2 0 0 0 0 0 0 0 0 0 0
0 0 0 0 0 0 0 0 0 0 0 0 0 16 555 796 715 850 804 674 672 776 754 360 65 0 9 169 262 105 208 214 208 240 150 133 133 96 5 0 0 0 0 0 0 0 0 0 0
0 0 0 0 0 0 0 0 0 0 0 0 0 103 282 475 374 556 557 351 281 505 105 0 0 0 0 36 66 95 181 228 126 58 6 10 10 0 0 0 0 0 0 0 0 0 0 0 0
0 0 0 0 0 0 0 0 0 0 0 0 0 0 143 276 334 428 453 283 66 59 0 0 0 0 0 0 0 31 82 14 3 0 0 0 0 0 0 0 0 0 0 0 0 0 0 0 0
0 0 0 0 0 0 0 0 0 0 0 0 0 0 0 0 9 0 0 6 60 0 0 0 0 0 0 0 0 0 0 0 0 0 0 0 0 0 0 0 0 0 0 0 0 0 0 0 0
0 0 0 0 0 0 0 0 0 0 0 0 0 0 0 0 0 0 0 0 0 0 0 0 0 0 0 0 0 0 0 0 0 0 0 0 0 0 0 0 0 0 0 0 0 0 0 0 0
0 0 0 0 0 0 0 0 0 0 0 0 0 0 0 0 0 0 0 0 0 0 0 0 0 0 0 0 0 0 0 0 0 0 0 0 0 0 0 0 0 0 0 0 0 0 0 0 0
0 0 0 0 0 0 0 0 0 0 0 0 0 0 0 0 0 0 0 0 0 0 0 0 0 0 0 0 0 0 0 0 0 0 0 0 0 0 0 0 0 0 0 0 0 0 0 0 0
0 0 0 0 0 0 0 0 0 0 0 0 0 0 0 0 0 0 0 0 0 0 0 0 0 0 0 0 0 0 0 0 0 0 0 0 0 0 0 0 0 0 0 0 0 0 0 0 0
0 0 0 0 0 0 0 0 0 0 0 0 0 0 0 0 0 0 0 0 0 0 0 0 0 0 0 0 0 0 0 0 0 0 0 0 0 0 0 0 0 0 0 0 0 0 0 0 0
0 0 0 0 0 0 0 0 0 0 0 0 0 0 0 0 0 0 0 0 0 0 0 0 0 0 0 0 0 0 0 0 0 0 0 0 0 0 0 0 0 0 0 0 0 0 0 0 0
0 0 0 0 0 0 0 0 0 0 0 0 0 0 0 0 0 0 0 0 0 0 0 0 0 0 0 0 0 0 0 0 0 0 0 0 0 0 0 0 0 0 0 0 0 0 0 0 0
0 0 0 0 0 0 0 0 0 0 0 0 0 0 0 0 0 0 0 0 0 0 0 0 0 0 0 0 0 0 0 0 0 0 0 0 0 0 0 0 0 0 0 0 0 0 0 0 0
0 0 0 0 0 0 0 0 0 0 0 0 0 0 0 0 0 0 0 0 0 0 0 0 0 0 0 0 0 0 0 0 0 0 0 0 0 0 0 0 0 0 0 0 0 0 0 0 0
0 0 0 0 0 0 0 0 0 0 0 0 0 0 0 0 0 0 0 0 0 0 0 0 0 0 0 0 0 0 0 0 0 0 0 0 0 0 0 0 0 0 0 0 0 0 0 0 0
0 0 0 0 0 0 0 0 0 0 0 0 0 0 0 0 0 0 0 0 0 0 0 0 0 0 0 0 0 0 0 0 0 0 0 0 0 0 0 0 0 0 0 0 0 0 0 0 2
0 0 0 0 0 0 0 0 0 0 0 0 0 0 0 0 0 0 0 0 0 0 0 0 0 0 0 0 0 0 0 0 0 0 0 0 0 0 0 0 0 0 0 0 0 0 1 1 3
0 0 0 0 0 0 0 0 0 0 0 0 0 0 0 0 0 0 0 0 0 0 0 0 0 0 0 0 0 0 0 0 0 0 0 0 0 0 0 0 0 0 0 0 0 0 0 0 0
0 0 0 0 0 0 0 0 0 0 0 0 0 0 0 0 0 0 0 0 0 0 0 0 0 0 0 0 0 0 0 0 0 0 0 0 0 0 0 0 0 0 0 0 0 0 0 0 0
0 0 0 0 0 0 0 0 0 0 0 0 0 0 0 0 0 0 0 0 0 0 0 0 0 0 0 0 0 0 0 0 0 0 0 0 0 0 0 0 0 0 0 0 0 0 0 0 0

GFSSGP_con_mlcape_024.txt.gz
CAPE
0 0 0 0 0 0 0 0 0 32 32 110 100 30 135 216 125 240 472 305 163 327 668 875 811 1017 1273 1326 1290 1242 1058 1036 1084 1329 1422 1394 1442 1394 1307 1107 962 1084 1016 1099 1064 1401 1530 1513 1166
0 0 0 0 0 0 0 0 11 24 73 92 89 62 40 127 386 507 560 242 165 301 565 873 836 851 1038 1275 1410 1593 1601 1469 1285 1176 1260 1342 1360 1332 1210 849 705 762 999 1151 1322 1549 1586 1648 1276
0 0 0 0 0 0 0 0 30 72 82 115 91 156 171 120 389 520 567 147 73 170 490 802 772 777 824 894 1088 1228 1410 1622 1664 1691 1707 1727 1661 1429 1288 952 969 972 1445 1582 1565 1870 1366 1093 890
0 0 0 0 0 0 0 0 77 72 117 109 88 99 274 470 501 554 422 219 83 100 293 460 523 397 324 263 246 496 969 1355 1585 1680 1729 1629 1514 1337 1119 865 715 1193 1365 1475 1447 1449 1234 718 450
0 0 0 0 0 0 0 33 68 43 73 138 124 141 299 666 779 541 528 459 81 36 119 184 191 203 167 196 264 280 288 342 587 1068 1388 1534 1593 1473 1295 942 1003 987 804 743 850 889 877 589 300
0 0 0 0 0 0 8 54 7 0 14 58 66 52 267 753 686 676 525 294 24 17 194 164 192 242 147 196 216 265 310 322 400 432 478 570 693 778 882 967 942 781 676 369 250 205 312 391 405
0 0 0 0 0 0 0 0 0 0 0 0 10 10 273 628 693 680 507 151 43 71 193 365 428 274 92 132 182 284 360 386 373 306 263 252 278 367 522 568 597 621 629 596 501 364 281 217 150
0 0 0 0 0 0 0 0 0 0 0 0 17 0 72 368 695 612 296 122 234 380 508 723 756 705 678 493 65 193 295 349 347 269 217 181 215 226 276 260 240 218 218 205 129 34 0 0 0
0 0 0 0 0 0 0 0 0 0 0 0 0 17 200 612 727 504 240 238 482 656 939 1009 928 1069 886 502 428 121 150 287 344 395 146 315 652 553 479 26 11 0 0 0 0 0 0 0 0
0 0 0 0 0 0 0 0 0 0 0 0 0 22 391 879 824 630 371 373 458 745 984 1190 1357 1392 1229 433 608 728 656 680 827 855 835 596 805 608 217 54 0 0 0 0 0 0 0 0 0
0 0 0 0 0 0 0 0 0 0 0 0 0 0 480 901 971 902 578 275 272 746 964 1286 1564 1700 1353 512 410 265 397 568 827 1067 1033 894 770 737 636 497 383 349 0 3 0 0 0 0 0
0 0 0 0 0 0 0 0 0 0 0 0 0 0 266 539 585 643 367 115 275 441 786 1543 1651 1462 1027 219 137 250 290 443 568 792 1185 964 604 563 563 377 250 150 4 0 0 0 0 0 0
0 0 0 0 0 0 0 0 0 0 0 0 0 4 128 178 184 246 224 30 92 221 598 1507 1674 1063 134 247 269 460 572 440 644 777 740 863 393 250 235 69 10 0 0 0 0 0 1 0 0
0 0 0 0 0 0 0 0 0 0 0 0 0 0 41 121 74 208 418 348 390 563 881 1539 1275 330 128 128 324 238 410 322 463 251 211 726 503 119 0 0 0 0 0 0 0 0 0 0 0
0 0 0 0 0 0 0 0 0 0 0 0 0 0 3 88 171 140 102 208 222 456 894 1323 959 248 142 122 92 48 4 112 3 0 44 107 141 12 0 0 0 0 0 0 0 0 0 0 0
0 0 0 0 0 0 0 0 0 0 0 0 0 0 0 59 200 185 308 471 619 747 645 784 423 132 93 32 9 0 0 0 0 0 0 0 13 21 0 0 0 0 0 0 0 0 0 0 0
0 0 0 0 0 0 0 0 0 0 0 0 0 0 0 0 115 410 318 338 218 268 397 502 531 251 58 18 4 0 1 0 0 0 0 0 0 1 6 0 0 0 0 0 0 0 0 0 0
0 0 0 0 0 0 0 0 0 0 0 0 0 0 0 0 0 62 0 0 0 2 36 132 259 111 23 8 0 0 0 0 0 0 0 0 0 0 0 0 0 0 0 0 0 0 0 0 0
0 0 0 0 0 0 0 0 0 0 0 0 0 0 0 0 0 0 0 0 0 0 0 6 9 1 0 0 0 0 0 0 0 0 0 0 0 0 0 0 0 0 0 2 0 0 0 0 0
0 0 0 0 0 0 0 0 0 0 0 0 0 0 0 0 0 0 0 0 0 0 0 0 0 0 0 0 0 0 0 0 0 0 0 0 0 0 0 0 0 0 0 0 0 0 0 0 0
0 0 0 0 0 0 0 0 0 0 0 0 0 0 0 0 0 0 0 0 0 0 0 0 0 0 0 0 0 0 0 0 0 0 0 0 0 0 0 0 0 0 0 0 0 0 0 1 0
0 0 0 0 0 0 0 0 0 0 0 0 0 0 0 0 0 0 0 0 0 0 0 0 0 0 0 0 0 0 0 0 0 0 0 0 0 0 0 0 0 0 0 0 0 0 0 1 2
0 0 0 0 0 0 0 0 0 0 0 0 0 0 0 0 0 0 0 0 0 0 0 0 0 0 0 0 0 0 0 0 0 0 0 0 0 0 0 0 0 0 0 0 0 0 2 4 13
0 0 0 0 0 0 0 0 0 0 0 0 0 0 0 0 0 0 0 0 0 0 0 0 0 0 0 0 0 0 0 0 0 0 0 0 0 0 0 0 0 0 0 0 0 1 3 2 2
0 0 0 0 0 0 0 0 0 0 0 0 0 0 0 0 0 0 0 0 0 0 0 0 0 0 0 0 0 0 0 0 0 0 0 0 0 0 0 0 0 0 2 3 2 3 3 2 2
0 0 0 0 0 0 0 0 0 0 0 0 0 0 0 0 0 0 0 0 0 0 0 0 0 0 0 0 0 0 0 0 0 0 0 0 0 0 0 1 5 7 6 3 5 12 1 0 1
0 0 0 0 0 0 0 0 0 0 0 0 0 0 0 0 0 0 0 0 0 0 0 0 0 0 0 0 0 0 0 0 0 0 0 0 0 0 1 8 7 14 8 3 8 10 11 5 7
0 0 0 0 0 0 0 0 0 0 0 0 0 0 0 0 0 0 0 0 0 0 0 0 0 0 0 2 1 0 0 0 0 0 0 0 0 7 6 8 2 0 1 1 12 19 18 20 17
0 0 0 0 0 0 0 0 0 0 0 0 0 0 0 0 0 0 0 0 0 0 0 0 0 1 4 8 3 3 6 1 0 0 0 4 10 1 0 1 2 2 2 2 8 12 10 8 9
0 0 0 0 0 0 0 0 0 0 0 0 0 0 0 0 1 1 0 0 0 0 0 0 0 0 0 0 0 2 7 3 0 0 1 6 12 7 2 2 3 5 6 16 32 20 5 2 2

GFSSGP_con_mlcape_027.txt.gz
CAPE
0 0 0 0 0 0 0 25 24 16 11 10 0 19 15 147 289 338 364 201 411 561 666 740 878 1077 1100 1095 1066 1043 1029 1129 1289 1333 1291 1263 1303 1362 1166 997 1014 1061 1130 1199 1285 1498 1792 1806 1309
0 0 0 0 0 0 7 11 33 33 1 0 0 0 0 90 353 422 215 158 330 536 710 799 701 988 1124 1189 1298 1347 1327 1193 1136 1231 1297 1314 1343 1267 1109 906 642 814 1245 1447 1685 1842 1521 1419 1158
0 0 0 0 0 8 5 16 16 0 0 0 1 26 71 199 360 495 130 75 128 324 727 688 605 685 783 892 987 1227 1406 1498 1491 1464 1548 1474 1361 1285 1192 956 922 965 1474 1586 1510 1533 1111 855 832
0 0 0 0 0 0 0 27 25 0 0 0 0 16 220 275 405 302 98 64 126 303 442 429 406 329 298 383 626 849 1076 1267 1437 1592 1663 1576 1492 1320 1103 834 1111 1234 1141 1461 1619 1396 993 626 467
0 0 0 0 0 1 24 26 20 53 44 10 0 4 237 467 430 319 295 82 62 58 124 218 97 66 49 53 125 202 333 672 1093 1347 1410 1463 1392 1276 1176 1010 998 825 769 548 574 827 629 451 326
0 0 0 0 2 6 14 4 0 29 17 0 0 15 312 479 440 426 376 54 0 2 31 0 12 56 101 182 200 201 205 316 481 604 755 782 715 698 680 737 720 641 478 346 294 321 326 317 293
0 0 2 0 0 1 0 0 0 0 0 0 0 0 215 346 431 356 141 0 0 0 18 113 212 117 13 47 112 203 215 219 165 136 153 165 224 318 411 415 464 451 365 345 278 206 166 120 115
0 0 0 0 0 0 0 0 0 0 0 0 0 0 93 399 389 258 9 0 0 19 140 251 318 482 568 473 21 67 131 200 131 91 60 71 135 187 137 323 109 140 120 87 64 25 9 0 0
0 0 0 0 0 0 0 0 0 0 0 0 0 2 46 391 343 137 8 2 55 228 336 444 408 574 398 229 158 98 65 151 295 301 60 343 729 535 521 10 0 0 0 0 0 0 0 0 0
0 0 0 0 0 0 0 0 0 0 0 0 0 0 185 327 248 62 11 14 140 237 402 524 698 776 557 35 213 319 215 513 509 528 523 442 443 474 47 90 0 0 0 0 0 0 0 0 0
0 0 0 0 0 0 0 0 0 0 0 0 0 0 106 227 221 138 22 3 34 232 258 348 1006 893 543 124 43 87 126 172 441 645 573 515 361 431 326 331 492 520 35 53 2 1 0 0 0
0 0 0 0 0 0 0 0 0 0 0 0 0 0 16 98 128 176 175 35 1 199 148 337 803 779 436 47 0 18 49 204 214 472 570 433 217 175 212 51 23 12 28 20 13 9 2 0 0
0 0 0 0 0 0 0 0 0 0 0 0 0 0 16 140 154 112 78 12 17 28 24 391 1014 1362 78 26 31 83 145 260 418 345 329 302 107 80 29 2 0 0 0 1 2 3 1 4 0
0 0 0 0 0 0 0 0 0 0 0 0 0 0 0 0 13 17 28 7 0 11 91 320 1123 1414 76 18 102 54 218 191 264 99 64 87 106 17 0 0 0 0 0 0 0 0 0 0 0
0 0 0 0 0 0 0 0 0 0 0 0 0 0 0 0 0 7 81 112 27 18 148 515 1220 1158 383 95 92 1 1 0 0 0 0 4 24 6 10 0 0 0 0 0 0 1 2 5 2
0 0 0 0 0 0 0 1 0 0 0 0 0 0 0 0 0 4 0 0 24 55 156 476 853 896 783 59 21 0 0 1 0 0 0 0 3 13 15 7 0 1 13 0 0 4 17 18 13
0 0 0 0 0 0 0 0 0 0 0 0 0 0 0 0 2 25 40 187 162 183 279 471 772 1015 767 123 45 18 19 8 0 0 0 0 0 0 0 0 0 1 0 4 7 4 11 11 12
0 0 0 0 0 0 0 0 0 0 0 0 0 0 0 0 2 132 302 1 5 20 156 379 608 862 564 167 56 7 3 0 0 0 0 0 0 0 0 0 0 12 11 22 35 57 36 38 35
0 0 0 0 0 0 0 0 0 0 0 0 0 0 0 0 0 0 0 0 0 0 4 151 362 192 92 59 13 0 0 0 0 0 0 0 0 0 0 0 0 0 0 0 8 19 11 38 95
0 0 0 0 0 0 0 0 0 0 0 0 0 0 0 0 0 0 0 0 0 0 0 0 0 0 0 0 0 0 0 0 0 0 0 0 0 0 0 0 0 0 0 0 0 0 8 24 78
0 0 0 0 0 0 0 0 0 0 0 0 0 0 0 0 0 0 0 0 0 0 0 0 0 0 0 0 0 0 0 0 0 0 0 0 0 0 0 0 0 0 0 0 0 0 0 3 3
0 0 0 0 0 0 0 9 0 0 0 0 0 0 0 0 0 0 0 0 0 0 0 0 0 0 0 0 0 0 0 0 0 0 0 0 0 0 0 0 0 0 0 0 0 0 5 10 7
0 0 0 0 0 0 0 0 0 0 0 0 0 0 0 0 0 0 0 0 0 0 0 0 0 0 0 0 0 0 0 0 0 0 0 0 0 0 0 0 0 0 0 0 0 1 3 7 9
0 0 0 0 0 0 0 0 8 0 0 0 0 0 0 0 0 0 0 0 0 0 0 0 0 0 0 0 0 0 0 0 0 0 0 0 0 0 0 0 0 0 0 8 12 13 3 0 2
0 0 0 3 2 8 0 0 11 0 0 0 0 0 0 0 0 0 0 0 0 0 0 0 0 0 0 0 0 0 0 0 0 0 0 0 0 0 0 0 0 3 9 7 4 9 3 4 3
0 0 0 0 0 7 0 0 1 0 0 0 0 0 0 0 0 0 0 0 0 0 1 0 0 0 0 0 0 0 0 0 0 1 1 0 0 0 0 3 6 5 0 0 0 3 1 1 0
0 0 0 0 0 0 0 0 0 0 0 0 0 0 0 0 0 0 0 0 0 0 0 0 0 0 0 0 1 2 5 5 6 5 1 0 0 0 4 0 0 0 0 0 0 1 8 9 23
0 0 0 1 0 0 2 2 20 0 0 0 0 0 0 0 0 1 0 0 0 0 0 0 0 0 2 5 3 1 1 0 1 1 0 1 8 3 2 0 0 0 0 0 0 2 2 1 6
0 0 0 0 0 0 0 0 1 0 0 11 0 0 0 1 4 6 6 7 6 4 5 0 1 2 0 0 0 0 0 0 4 3 8 17 7 2 8 9 1 0 5 4 12 15 12 10 5
0 0 0 0 0 4 0 0 0 0 0 0 0 0 2 11 10 9 14 15 4 1 0 0 0 0 0 0 0 0 0 2 4 3 3 8 7 13 12 9 12 10 11 10 9 9 5 7 9

GFSSGP_con_mlcape_030.txt.gz
CAPE
0 0 0 0 0 0 0 16 12 6 6 0 0 0 21 123 392 168 144 369 609 502 644 746 790 843 852 843 781 814 1023 1171 1181 1158 1199 1240 1251 1087 987 966 1024 1121 1318 1516 1782 1721 1641 1484 1148
0 0 0 0 0 0 9 9 26 0 0 0 0 2 20 100 164 95 140 396 446 712 614 717 779 888 938 1012 1067 1052 1011 1026 1159 1215 1283 1315 1226 1178 993 770 726 864 1292 1466 1824 1669 1391 1108 936
0 0 0 0 0 0 0 14 0 0 0 0 0 22 56 134 162 74 124 296 495 700 552 475 556 645 734 848 1034 1154 1202 1199 1215 1263 1283 1244 1237 1293 1143 958 1055 1253 1218 1273 1642 1254 738 598 584
0 0 0 0 0 0 0 0 0 0 0 6 29 51 81 131 126 47 58 156 350 416 403 284 240 255 310 444 601 770 947 1112 1264 1406 1448 1426 1351 1195 892 1195 1026 886 885 1104 1377 1163 803 532 393
0 0 0 0 0 4 0 0 0 0 0 0 8 66 168 232 81 47 33 72 105 205 139 0 0 0 8 13 14 64 297 620 868 1038 1122 1066 970 897 823 754 654 665 462 373 413 330 181 87 141
0 0 0 0 0 0 0 0 4 33 3 0 18 103 232 228 176 164 9 0 0 0 0 0 0 0 15 53 41 62 150 202 264 293 310 294 297 330 373 383 364 360 353 315 248 212 197 167 138
0 0 0 4 0 0 1 0 0 0 0 0 0 40 201 301 251 146 0 0 0 0 0 9 1 0 0 4 29 39 35 28 38 58 63 77 85 107 154 228 208 186 186 177 153 107 76 40 31
0 0 0 0 0 0 0 0 0 0 0 0 0 12 124 324 199 15 0 0 0 0 8 153 139 294 193 20 2 13 32 12 10 4 7 98 131 137 241 274 42 0 0 0 0 0 0 0 0
0 0 0 0 0 0 0 0 0 0 0 0 0 0 241 312 202 0 0 0 0 16 177 158 361 391 655 258 23 15 9 84 102 39 58 182 588 439 500 31 0 0 0 0 0 0 0 0 0
0 0 0 0 0 0 0 0 0 0 0 0 0 222 371 261 159 2 0 0 21 144 201 507 374 460 236 31 130 494 367 502 549 581 407 596 254 317 82 112 7 0 0 0 0 0 0 0 0
0 0 0 0 0 0 0 0 0 0 0 0 0 104 280 281 121 4 0 0 83 153 241 364 595 520 459 56 40 343 332 464 602 500 457 439 235 399 385 329 88 68 94 72 33 0 0 3 0
0 0 0 0 0 0 0 0 0 0 0 0 0 0 172 137 111 26 0 3 16 148 137 519 471 486 285 45 60 57 78 276 247 629 501 390 239 174 43 49 0 0 7 6 2 4 5 2 4
0 0 0 0 0 0 0 0 0 0 0 0 0 0 38 22 5 12 72 54 6 189 59 407 568 617 151 0 64 126 115 405 334 305 325 297 90 87 39 1 0 0 0 0 0 0 0 0 0
0 0 0 0 0 0 0 0 0 0 0 0 0 0 10 107 102 121 110 11 5 11 31 569 934 1216 67 19 96 68 262 248 318 123 74 26 93 59 32 1 0 0 0 0 0 0 0 0 0
0 0 0 0 0 0 0 0 0 0 0 0 0 0 0 1 21 25 16 10 0 10 85 299 961 1303 405 69 115 29 60 6 5 1 0 7 11 13 0 5 0 0 3 0 0 0 0 0 0
0 0 0 0 0 0 0 0 0 0 0 0 0 0 0 10 2 33 90 70 19 0 70 414 762 1215 1011 444 83 21 10 6 0 0 0 0 0 5 7 22 18 19 15 11 15 10 2 1 1
0 0 1 0 0 0 0 0 0 0 0 0 0 0 0 0 16 29 21 4 46 194 283 443 600 903 984 664 147 36 14 6 15 1 0 0 0 1 0 1 3 12 15 12 21 18 26 23 21
0 0 0 0 0 0 0 0 0 0 0 0 0 0 0 0 21 59 19 13 0 9 92 248 505 966 823 332 90 37 5 11 10 0 0 0 0 0 0 0 0 1 2 1 6 12 22 39 43
0 0 0 0 0 0 0 0 0 0 0 0 0 0 0 0 0 0 0 0 0 1 43 114 126 47 35 60 2 0 0 0 0 0 0 0 1 0 0 0 0 0 0 0 0 0 0 0 26
0 0 0 0 0 0 0 0 0 0 0 0 0 0 0 0 0 0 0 0 0 0 0 0 0 0 0 0 0 0 0 0 0 1 0 0 0 0 0 0 0 0 0 0 0 0 0 0 0
0 0 0 0 0 0 0 0 0 0 0 0 0 0 0 0 0 0 0 0 0 0 0 0 0 0 0 0 0 0 0 0 0 1 0 0 0 0 0 0 0 0 0 0 0 0 0 0 0
0 0 0 0 0 0 0 0 0 0 0 0 0 0 0 0 0 0 0 0 0 0 0 0 0 0 0 0 0 0 0 0 0 0 0 0 0 0 0 0 0 0 0 0 0 0 0 3 0
0 0 0 0 0 0 0 0 29 0 0 0 0 0 0 0 0 0 0 0 0 0 0 0 0 0 0 0 0 0 0 0 0 0 0 0 0 0 0 0 0 0 0 0 4 0 0 0 0
0 0 0 0 0 0 6 0 0 0 0 0 0 0 0 0 0 0 0 0 0 0 0 0 0 0 0 0 0 0 0 0 0 0 0 0 0 0 0 0 0 0 0 0 0 0 0 0 0
0 0 16 15 62 21 29 42 44 0 0 0 0 0 0 0 0 0 0 0 0 0 0 0 0 0 0 0 0 0 0 0 0 0 0 0 0 0 0 0 0 0 0 0 0 1 1 0 0
0 0 2 0 15 57 2 0 0 0 0 0 0 0 0 0 0 0 0 0 0 0 0 0 0 0 0 0 0 0 0 0 0 0 0 0 0 0 0 0 0 0 0 0 0 0 0 0 2
0 7 0 0 0 0 0 11 0 0 0 0 0 0 0 0 0 0 0 0 0 0 0 0 0 0 0 0 0 0 0 0 0 1 0 0 0 0 0 0 0 0 0 0 0 0 0 2 0
0 0 0 7 0 0 0 0 6 0 0 0 0 0 0 0 0 4 1 0 0 0 0 0 0 0 0 0 0 0 0 0 0 0 0 0 0 0 0 1 2 3 0 0 0 2 3 5 0
0 0 0 0 0 0 0 0 0 1 6 13 34 18 0 0 0 0 0 0 0 0 0 0 0 0 0 0 0 0 0 0 0 0 0 0 0 0 4 8 0 4 13 9 8 11 6 5 6
0 0 0 0 0 0 0 0 0 0 0 0 0 0 0 1 1 0 0 0 2 2 1 0 0 0 0 0 0 0 0 0 0 0 0 0 6 5 11 13 14 10 6 10 7 5 16 15 9

GFSSGP_con_mlcape_033.txt.gz
CAPE
0 0 0 0 0 0 0 0 0 1 0 2 15 53 94 141 77 72 391 480 341 452 559 590 615 681 672 656 774 910 977 994 1004 1064 1116 1024 888 803 749 733 786 1033 1158 1499 1653 1504 1392 1261 984
0 0 0 0 0 0 3 0 0 0 0 20 26 61 16 50 111 250 433 452 446 485 576 642 681 731 788 775 744 757 946 1013 1038 1140 1117 1062 1018 843 793 672 687 951 1138 1355 1602 1386 1080 832 700
0 0 0 0 0 0 14 0 0 0 0 0 2 4 137 95 78 191 438 508 356 387 460 524 560 642 761 854 914 907 963 988 1019 1038 1036 1048 1060 947 853 1034 950 936 1215 1475 1452 1019 659 439 323
0 0 0 0 0 0 0 0 0 0 0 0 0 9 1 31 88 148 417 405 307 209 239 295 321 378 445 528 644 712 819 926 1022 1067 1140 1172 1121 860 873 622 605 541 522 779 940 520 275 93 67
0 0 0 0 2 0 0 0 0 0 0 7 3 111 14 11 20 90 162 212 93 46 4 0 0 0 3 0 2 129 331 443 545 637 623 562 454 412 314 331 296 210 162 143 126 95 60 54 42
0 0 0 0 0 0 0 0 8 0 0 34 60 161 82 15 0 9 101 54 0 0 0 0 0 0 0 0 0 0 11 28 63 88 95 87 56 92 106 140 167 178 184 145 98 74 60 43 23
0 0 0 0 0 0 0 0 0 0 0 0 70 148 183 148 0 0 0 0 0 0 0 0 0 0 0 0 0 0 0 2 5 4 6 8 45 70 74 28 1 4 1 0 0 0 0 0 0
0 0 0 0 0 0 0 0 0 0 0 0 6 151 245 171 0 0 0 0 0 0 0 0 0 0 0 0 0 0 0 0 0 0 8 32 77 150 119 68 0 0 0 0 0 0 0 0 0
0 0 0 0 0 0 0 0 0 0 0 0 2 196 210 99 0 0 0 0 0 0 16 29 31 39 3 0 0 0 2 4 3 11 65 161 172 289 237 115 0 0 0 0 0 0 0 0 0
0 0 0 0 0 0 0 0 0 0 0 38 191 262 181 86 0 0 0 0 5 91 164 193 219 287 159 21 8 0 36 139 138 103 103 192 320 354 244 58 14 15 7 3 0 0 0 0 0
0 0 0 0 0 0 0 0 0 0 0 0 224 267 186 114 0 0 0 0 73 65 278 328 234 75 147 142 49 124 69 233 310 417 202 352 143 261 169 131 53 12 13 8 17 0 0 0 0
0 0 0 0 0 0 0 0 0 0 0 0 250 258 161 109 4 0 0 0 82 92 300 350 111 123 15 0 0 205 306 382 446 502 275 115 77 53 15 40 13 0 0 0 0 0 0 0 0
0 0 0 0 0 0 0 0 0 0 0 0 125 179 172 123 54 1 0 0 60 195 317 259 106 8 0 0 0 0 84 76 117 326 203 83 31 21 21 0 0 0 0 0 0 0 0 0 0
0 0 0 0 0 0 0 0 0 0 0 0 0 66 54 69 71 8 0 9 90 122 275 361 300 221 0 2 2 24 54 130 43 144 76 38 15 12 7 0 0 0 0 0 0 0 0 0 0
0 0 0 0 0 0 0 0 0 0 0 0 0 0 0 5 0 45 54 0 74 17 187 382 597 267 0 6 12 1 199 6 2 1 0 0 0 1 0 0 2 0 0 0 0 0 0 0 0
0 0 0 0 0 0 0 0 0 0 0 0 0 0 0 22 21 65 50 5 0 0 178 537 1065 183 20 89 100 0 0 0 0 0 0 0 0 0 0 0 0 0 0 0 0 0 0 0 0
0 0 0 0 0 0 0 0 0 0 0 0 0 0 0 2 10 10 9 5 25 74 186 461 922 597 492 156 44 0 0 0 0 0 0 0 0 0 0 0 0 0 0 0 0 0 0 0 0
0 0 0 0 0 0 0 0 0 0 0 0 0 0 0 0 0 0 0 0 0 1 13 35 117 96 80 46 13 0 0 0 0 0 0 0 0 0 0 0 0 0 0 0 0 0 0 0 0
0 0 0 0 0 0 0 0 0 0 0 0 0 0 0 0 0 0 0 0 0 0 0 0 0 0 0 0 0 0 0 0 0 0 0 0 0 0 0 0 0 0 0 0 0 0 0 0 0
0 0 0 0 0 0 0 0 0 0 0 0 0 0 0 0 0 0 0 0 0 0 0 0 0 0 0 0 0 0 0 0 0 0 0 0 0 0 0 0 0 0 0 0 0 0 0 0 0
0 0 0 0 0 0 0 0 0 0 0 0 0 0 0 0 0 0 0 0 0 0 0 0 0 0 0 0 0 0 0 0 0 0 0 0 0 0 0 0 0 0 0 0 0 0 0 0 0
0 0 0 0 0 0 0 0 0 0 0 0 0 0 0 0 0 0 0 0 0 0 0 0 0 0 0 0 0 0 0 0 0 0 0 0 0 0 0 0 0 0 0 0 0 0 0 0 0
0 0 0 0 0 0 0 0 0 0 0 0 0 0 0 0 0 0 0 0 0 0 0 0 0 0 0 0 0 0 0 0 0 0 0 0 0 0 0 0 0 0 0 0 0 0 0 0 0
0 0 0 0 0 0 2 0 0 0 0 0 0 0 0 0 0 0 0 0 0 0 0 0 0 0 0 0 0 0 0 0 0 0 0 0 0 0 0 0 0 0 0 0 0 0 0 0 0
0 0 0 5 18 1 1 4 0 0 0 0 0 0 0 0 0 0 0 0 0 0 0 0 0 0 0 0 0 0 0 0 0 0 0 0 0 0 0 0 0 0 0 0 0 0 0 0 0
0 0 0 0 0 0 0 0 0 0 0 0 0 0 0 0 0 0 0 0 0 0 0 0 0 0 0 0 0 0 0 0 0 0 0 0 0 0 0 0 0 0 0 0 0 0 0 0 0
0 0 0 0 0 0 0 0 0 0 0 0 0 0 0 0 0 0 0 0 0 0 0 0 0 0 0 0 0 0 0 0 0 0 0 0 0 0 0 0 0 0 0 0 0 0 0 0 0
0 0 0 0 0 0 0 3 0 0 0 0 0 0 0 0 0 0 0 0 0 0 0 0 0 0 0 0 0 0 0 0 0 0 0 0 0 0 0 0 0 0 0 6 0 0 0 1 1
0 0 0 0 0 0 0 0 0 8 0 0 0 0 0 0 0 0 0 0 0 0 0 0 0 0 0 0 0 0 0 0 0 0 0 0 0 0 0 2 11 10 9 8 8 8 4 8 10
0 0 0 0 0 0 0 0 0 0 0 0 0 0 0 0 0 0 0 0 0 0 0 0 0 0 0 0 0 0 0 0 0 0 0 0 0 0 0 14 13 2 2 2 7 0 0 0 0

GFSSGP_con_mlcape_036.txt.gz
CAPE
0 0 0 0 0 0 0 0 0 0 40 54 42 96 93 73 55 114 295 281 419 409 483 456 421 461 645 711 743 786 837 890 933 925 808 756 671 618 560 540 748 951 1221 1499 1348 1217 1161 929 713
0 0 0 0 0 0 0 0 0 2 57 17 20 51 81 151 275 451 360 356 438 504 549 559 560 531 546 735 870 903 954 993 997 945 886 794 703 601 591 697 779 896 1087 1537 1383 980 728 508 388
0 0 0 0 0 0 2 0 0 4 3 0 41 57 115 226 365 397 322 361 392 428 506 575 613 650 643 594 659 750 820 869 888 844 842 800 723 801 781 619 574 739 1316 1357 1102 770 426 185 100
0 0 0 0 0 0 6 0 0 0 0 3 16 86 50 38 279 424 303 288 248 294 371 437 500 563 606 635 733 770 788 825 858 921 952 874 783 574 354 257 148 189 290 388 152 50 11 4 4
0 0 0 0 0 7 3 0 0 0 9 5 6 25 26 258 410 343 184 122 109 127 154 158 90 74 165 274 366 453 555 641 720 676 534 378 201 88 62 37 19 27 32 27 12 8 5 1 5
0 0 0 0 1 3 0 0 0 17 13 6 34 42 4 263 370 226 94 46 9 0 0 0 0 0 0 0 0 10 37 63 65 56 52 35 14 12 4 0 0 0 0 0 0 0 0 0 0
0 0 0 0 1 0 0 0 0 45 55 85 152 6 0 0 102 27 0 0 0 0 0 0 0 0 0 0 0 0 0 0 1 2 2 7 17 5 10 0 0 0 0 0 0 0 0 0 0
0 0 0 0 0 0 0 0 0 0 6 143 142 49 0 0 0 0 0 0 0 0 0 0 0 0 0 0 0 0 0 0 0 0 8 35 67 46 58 0 0 0 0 0 0 0 0 0 0
0 0 0 0 0 0 0 0 0 0 17 7 47 81 4 0 0 0 0 0 0 0 0 0 0 0 0 0 0 0 0 0 0 32 39 78 97 120 157 62 0 0 0 0 0 0 0 0 0
0 0 0 0 0 0 0 0 0 0 15 118 164 159 0 0 0 0 0 0 0 0 0 0 0 0 0 0 0 0 0 10 11 28 129 163 146 171 220 127 18 3 0 0 0 0 0 0 0
0 0 0 0 0 0 0 0 0 0 0 98 192 149 8 0 0 0 0 0 0 7 42 23 46 36 5 24 0 0 113 139 110 83 97 172 290 301 294 71 11 0 0 0 0 0 0 0 0
0 0 0 0 0 0 0 0 0 0 0 132 222 140 27 0 0 0 0 0 25 105 156 164 141 225 81 116 39 94 88 213 309 336 204 184 100 124 79 18 0 0 0 0 0 0 0 0 0
0 0 0 0 0 0 0 0 0 0 18 284 264 176 74 0 0 0 0 0 16 202 266 167 2 0 0 0 14 111 249 321 435 419 160 9 4 0 0 0 0 0 0 0 0 0 0 0 0
0 0 0 0 0 0 0 0 0 0 46 243 225 96 68 15 0 0 0 0 73 293 307 205 0 0 0 0 0 0 45 152 143 278 160 28 3 0 0 0 0 0 0 0 0 0 0 0 0
0 0 0 0 0 0 0 0 0 0 19 108 139 113 88 73 41 10 0 0 42 214 331 280 0 0 0 0 2 2 54 15 79 141 57 33 0 0 0 0 0 0 0 0 0 0 0 0 0
0 0 0 0 0 0 0 0 0 0 0 1 55 67 68 51 69 9 0 0 0 173 277 211 154 2 1 0 1 0 55 0 0 10 0 0 0 0 0 0 0 0 0 0 0 0 0 0 0
0 0 0 0 0 0 0 0 0 0 0 0 0 0 0 0 0 0 0 0 0 17 247 417 78 62 175 58 11 0 0 0 0 0 0 0 0 0 0 0 0 0 0 0 0 0 0 0 0
0 0 0 0 0 0 0 0 0 0 0 0 0 0 0 0 0 0 0 0 0 0 12 32 36 133 263 17 0 0 0 0 0 0 0 0 0 0 0 0 0 0 0 0 0 0 0 0 0
0 0 0 0 0 0 0 0 0 0 0 0 0 0 0 0 0 0 0 0 0 0 0 0 0 0 0 0 0 0 0 0 0 0 0 0 0 0 0 0 0 0 0 0 0 0 0 0 0
0 0 0 0 0 0 0 0 0 0 0 0 0 0 0 0 0 0 0 0 0 0 0 0 0 0 0 0 0 0 0 0 0 0 0 0 0 0 0 0 0 0 0 0 0 0 0 0 0
0 0 0 0 0 0 0 0 0 0 0 0 0 0 0 0 0 0 0 0 0 0 0 0 0 0 0 0 0 0 0 0 0 0 0 0 0 0 0 0 0 0 0 0 0 0 0 0 0
0 0 0 0 0 0 0 0 0 0 0 0 0 0 0 0 0 0 0 0 0 0 0 0 0 0 0 0 0 0 0 0 0 0 0 0 0 0 0 0 0 0 0 0 0 0 0 0 1
0 0 0 0 0 0 0 0 0 0 0 0 0 0 0 0 0 0 0 0 0 0 0 0 0 0 0 0 0 0 0 0 0 0 0 0 0 0 0 0 0 0 0 0 0 0 0 0 0
0 0 0 0 0 0 0 0 0 0 0 0 0 0 0 0 0 0 0 0 0 0 0 0 0 0 0 0 0 0 0 0 0 0 0 0 0 0 0 0 0 0 0 0 0 0 0 0 0
0 0 0 0 0 0 0 0 0 0 0 0 0 0 0 0 0 0 0 0 0 0 0 0 0 0 0 0 0 0 0 0 0 0 0 0 0 0 0 0 0 0 0 0 0 0 0 0 0
0 0 0 0 0 0 0 0 0 0 0 0 0 0 0 0 0 0 0 0 0 0 0 0 0 0 0 0 0 0 0 0 0 0 0 0 0 0 0 0 0 0 0 0 0 0 0 0 0
0 0 0 0 0 0 0 0 0 0 0 0 0 0 0 0 0 0 0 0 0 0 0 0 0 0 0 0 0 0 0 0 0 0 0 0 0 0 0 0 0 0 0 0 0 0 0 0 0
0 0 0 0 0 0 0 0 0 0 0 0 0 0 0 0 0 0 0 0 0 0 0 0 0 0 0 0 0 0 0 0 0 0 0 0 0 0 0 0 0 0 6 6 1 1 1 0 0
0 0 0 0 0 0 0 0 0 0 0 0 0 2 2 0 0 0 0 0 0 0 0 0 0 0 0 0 0 0 0 0 0 0 0 0 0 0 0 0 0 0 0 0 0 0 0 0 0
0 0 0 0 0 0 0 0 0 0 1 0 0 0 0 0 0 0 0 0 0 0 0 0 0 0 0 0 0 0 0 0 0 0 0 0 0 0 0 0 0 0 0 0 0 0 0 0 0

GFSSGP_con_mlcape_039.txt.gz
CAPE
0 0 0 0 0 0 0 0 0 0 0 0 14 72 92 89 69 96 195 244 308 251 246 311 448 556 671 684 656 699 756 763 734 667 639 611 575 473 405 555 704 927 1218 1240 1203 1026 788 530 387
0 0 0 0 0 0 0 0 28 1 17 13 25 61 127 200 308 299 254 357 323 327 302 329 506 594 640 673 731 765 841 857 784 738 659 604 516 536 633 654 780 945 1258 1097 1028 715 397 147 72
0 0 0 0 0 0 1 0 44 12 20 18 64 19 104 376 356 288 306 397 384 349 395 397 385 553 683 726 754 813 838 797 756 698 654 649 797 720 534 372 395 807 880 690 428 125 16 0 0
0 0 0 0 0 0 0 10 85 60 7 22 9 22 22 172 377 325 363 370 320 333 406 440 444 438 474 526 579 618 667 664 702 765 774 771 514 168 56 38 52 80 116 64 30 0 4 0 0
0 0 0 0 0 0 0 30 55 56 35 42 15 12 65 270 322 266 315 283 271 290 375 440 457 474 531 589 605 621 669 684 707 653 480 232 51 22 8 3 7 13 12 3 0 0 0 0 0
0 0 0 7 2 0 0 0 95 74 56 26 92 103 203 305 285 207 213 174 134 111 144 106 86 110 170 231 282 337 363 375 219 70 28 7 5 0 2 1 0 0 0 0 0 0 0 0 0
0 0 0 24 6 3 0 15 85 30 74 91 49 39 318 347 200 109 73 16 1 0 0 0 0 0 0 0 0 0 2 3 0 0 0 0 0 0 0 0 0 0 0 0 0 0 0 0 0
0 0 0 0 6 0 0 0 26 81 100 117 36 14 197 197 91 30 0 0 0 0 0 0 0 0 0 0 0 0 0 0 0 0 0 1 11 30 20 5 8 0 0 0 0 0 0 0 0
0 0 0 0 0 0 0 0 0 39 137 50 23 3 94 95 0 0 0 0 0 0 0 0 0 0 0 0 0 0 0 0 0 0 17 19 52 65 125 34 16 7 0 0 0 0 0 0 0
0 0 0 0 0 0 0 0 1 115 128 92 21 0 38 1 0 0 0 0 0 0 0 0 0 0 0 0 0 0 0 0 0 18 57 85 78 119 166 169 106 33 0 0 0 0 0 0 0
0 0 0 0 0 0 0 0 0 11 8 52 33 2 6 0 0 0 0 0 0 0 0 0 0 0 0 0 0 0 0 0 0 4 70 129 128 157 218 151 19 0 0 0 0 0 0 0 0
0 0 0 0 0 0 0 0 0 0 17 116 80 8 0 0 0 0 0 0 0 0 0 4 0 0 0 0 0 4 55 74 101 127 141 167 145 157 169 171 14 0 0 0 0 0 0 0 0
0 0 0 0 0 0 0 0 0 0 72 261 126 0 0 0 0 0 0 0 0 19 23 28 25 72 12 31 22 26 32 130 225 257 304 96 24 1 5 9 0 0 0 0 0 0 0 0 0
0 0 0 0 0 0 0 0 0 0 207 234 171 61 0 0 0 0 0 0 1 42 120 143 72 111 1 10 18 39 109 209 237 318 307 10 0 0 0 0 0 0 0 0 0 0 0 0 0
0 0 0 0 0 0 0 0 0 0 218 200 198 116 42 0 0 0 0 0 3 96 233 186 18 0 0 0 0 0 22 78 174 197 229 26 0 0 0 0 0 0 0 0 0 0 0 0 0
0 0 0 0 0 0 0 0 0 16 152 132 193 123 57 0 0 0 0 0 0 204 238 86 0 0 0 0 0 0 0 0 0 3 11 15 0 0 0 0 0 0 0 0 0 0 0 0 0
0 0 0 0 0 0 0 0 0 0 104 21 31 2 0 0 0 0 0 0 0 64 136 34 1 0 0 0 0 0 0 0 0 0 0 0 0 0 0 0 0 0 0 0 0 0 0 0 0
0 0 0 0 0 0 0 0 0 0 0 0 0 0 0 0 0 0 0 0 0 0 2 1 1 0 6 0 0 0 0 0 0 0 0 0 0 0 0 0 0 0 0 0 0 0 0 0 0
0 0 0 0 0 0 0 0 0 0 0 0 0 0 0 0 0 0 0 0 0 0 4 6 8 0 0 0 0 0 0 0 0 0 0 0 0 0 0 0 0 0 0 0 0 0 0 0 0
0 0 0 0 0 0 0 0 0 0 0 0 0 0 0 0 0 0 0 0 0 0 0 0 0 0 0 0 0 0 0 0 0 0 0 0 0 0 0 0 0 0 0 0 0 0 0 0 0
0 0 0 0 0 0 0 0 0 0 0 0 0 0 0 0 0 0 0 0 0 0 0 0 0 0 0 0 0 0 0 0 0 0 0 0 0 0 0 0 0 0 0 0 0 0 0 0 0
0 0 0 0 0 0 0 0 0 0 0 0 0 0 0 0 0 0 0 0 0 0 0 0 0 0 0 0 0 0 0 0 0 0 0 0 0 0 0 0 0 0 0 0 0 0 0 0 0
0 0 0 0 0 0 0 0 0 0 0 0 0 0 0 0 0 0 0 0 0 0 0 0 0 0 0 0 0 0 0 0 0 0 0 0 0 0 0 0 0 0 0 0 0 0 0 0 0
0 0 0 0 0 0 0 0 0 0 0 0 0 0 0 0 0 0 0 0 0 0 0 0 0 0 0 0 0 0 0 0 0 0 0 0 0 0 0 0 0 0 0 0 0 0 0 0 0
0 0 0 0 0 0 0 0 0 0 0 0 0 0 0 0 0 0 0 0 0 0 0 0 0 0 0 0 0 0 0 0 0 0 0 0 0 0 0 0 0 0 0 0 0 0 0 0 0
0 0 0 0 0 0 0 0 0 0 0 0 0 0 0 0 0 0 0 0 0 0 0 0 0 0 0 0 0 0 0 0 0 0 0 0 0 0 0 0 0 0 0 0 0 0 0 0 0
0 0 0 0 0 0 0 0 0 0 0 0 0 0 0 0 0 0 0 0 0 0 0 0 0 0 0 0 0 0 0 0 0 0 0 0 0 0 0 0 0 0 0 0 0 0 0 0 0
0 0 0 0 0 0 0 0 0 0 0 0 0 0 0 0 0 0 0 0 0 0 0 0 0 0 0 0 0 0 0 0 0 0 0 0 0 0 0 0 0 0 0 0 0 0 0 0 0
0 0 0 0 0 0 0 0 0 0 0 0 0 0 0 0 0 0 0 0 0 0 0 0 0 0 0 0 0 0 0 0 0 0 0 0 0 0 0 0 0 0 0 0 0 0 0 0 0
0 0 0 0 0 0 0 0 0 0 0 0 0 0 0 0 0 0 0 0 0 0 0 0 0 0 0 0 0 0 0 0 0 0 0 0 0 0 0 0 0 0 0 0 0 0 0 0 0

GFSSGP_con_mlcape_042.txt.gz
CAPE
0 0 0 0 0 0 0 0 0 2 20 7 17 24 88 110 82 58 211 259 308 170 284 460 588 602 613 553 578 625 576 537 550 550 524 485 411 395 472 530 710 969 949 883 804 549 309 134 78
0 0 0 0 0 0 0 0 2 8 26 26 20 51 76 180 323 265 269 356 250 195 382 504 653 692 677 710 710 675 665 648 606 572 529 481 462 504 503 572 658 967 639 511 578 188 22 0 0
0 0 0 0 0 0 0 8 77 60 15 32 12 3 10 237 361 272 457 377 288 263 441 556 600 653 674 666 707 780 754 684 634 572 513 566 626 538 375 295 581 674 543 369 142 14 0 0 0
0 0 0 0 0 0 0 19 131 77 30 2 0 0 0 69 316 374 452 393 283 292 348 495 560 601 628 672 770 740 692 623 554 553 631 654 400 125 29 25 72 160 129 72 23 0 0 0 0
0 0 0 0 0 0 0 93 143 84 7 0 0 0 0 282 378 445 422 347 323 331 374 361 408 507 573 629 643 587 527 503 597 592 522 242 21 5 2 4 13 21 7 0 0 0 0 0 0
0 0 0 0 0 0 2 84 83 88 26 50 5 1 128 266 399 371 351 338 319 345 396 420 453 460 468 519 501 473 465 466 464 260 79 4 0 0 0 0 0 0 0 0 0 0 0 0 0
0 0 0 1 1 1 15 82 129 113 82 90 49 99 302 404 277 301 279 238 248 230 191 159 136 136 172 212 180 196 221 151 27 2 0 0 0 0 0 0 0 0 0 0 0 0 0 0 0
0 0 1 30 11 6 0 28 44 7 45 64 138 83 255 382 175 192 162 114 57 0 0 0 0 0 0 0 0 0 0 0 0 0 0 0 0 0 0 0 0 0 0 0 0 0 0 0 0
0 0 0 4 5 1 13 35 8 23 129 49 41 185 353 250 113 117 47 0 0 0 0 0 0 0 0 0 0 0 0 0 0 0 0 18 0 5 34 1 0 0 0 0 0 0 0 0 0
0 0 0 14 14 0 0 0 0 201 128 79 17 86 300 232 126 21 0 0 0 0 0 0 0 0 0 0 0 0 0 0 0 0 19 13 17 49 81 99 67 20 0 0 0 0 0 0 0
0 0 0 0 7 0 0 0 0 199 87 49 0 170 300 131 9 0 0 0 0 0 0 0 0 0 0 0 0 0 0 0 0 14 30 66 71 67 114 90 23 0 0 0 0 0 0 0 0
0 0 0 0 23 1 0 0 48 51 0 42 33 182 173 35 0 0 0 0 0 0 0 0 0 0 0 0 0 0 0 0 0 9 60 93 114 112 108 112 38 0 0 0 0 0 0 0 0
0 0 0 0 0 0 0 0 1 0 73 94 50 143 70 1 0 0 0 0 0 0 0 0 0 0 0 0 0 0 0 38 62 116 170 211 157 82 18 14 0 0 0 0 0 0 0 0 0
0 0 0 0 0 0 0 0 0 0 150 57 47 67 35 0 0 0 0 0 0 0 0 0 0 0 0 0 0 0 0 8 82 205 282 237 49 0 0 0 0 0 0 0 0 0 0 0 0
0 0 0 0 0 0 0 0 0 14 189 63 57 19 1 0 0 0 0 0 0 0 0 0 0 0 0 0 0 0 0 8 78 126 123 28 0 0 0 0 0 0 0 0 0 0 0 0 0
0 0 0 0 0 0 0 0 0 36 113 128 158 43 0 0 0 0 0 0 0 0 2 6 0 0 0 0 0 0 0 0 0 0 0 0 0 0 0 0 0 0 0 0 0 0 0 0 0
0 0 0 0 0 0 0 0 0 38 181 89 98 32 7 0 0 0 0 0 0 0 0 0 0 0 0 0 0 0 0 0 0 0 0 0 0 0 0 0 0 0 0 0 0 0 0 0 0
0 0 0 0 0 0 0 0 0 0 92 32 12 0 0 0 0 0 0 0 0 0 0 0 0 0 0 0 0 0 0 0 0 0 0 0 0 0 0 0 0 0 0 0 0 0 0 0 0
0 0 0 0 0 0 0 0 0 0 1 0 0 0 0 0 0 0 0 0 0 0 3 5 0 4 0 0 0 0 0 0 0 0 0 0 0 0 0 0 0 0 0 0 0 0 0 0 0
0 0 0 0 0 0 0 0 0 0 0 0 0 0 0 0 0 0 0 0 0 0 0 0 0 0 0 0 0 0 0 0 0 0 0 0 0 0 0 0 0 0 0 0 0 0 0 0 0
0 0 0 0 0 0 0 0 0 0 0 0 0 0 0 0 0 0 0 0 0 0 0 0 0 0 0 0 0 0 0 0 0 0 0 0 0 0 0 0 0 0 0 0 0 0 0 0 0
0 0 0 0 0 0 0 0 0 0 0 0 0 0 0 0 0 0 0 0 0 0 0 0 0 0 0 0 0 0 0 0 0 0 0 0 0 0 0 0 0 0 0 0 0 0 0 0 0
0 0 0 0 0 0 0 0 0 0 0 0 0 0 0 0 0 0 0 0 0 0 0 0 0 0 0 0 0 0 0 0 0 0 0 0 0 0 0 0 0 0 0 0 0 0 0 0 0
0 0 0 0 0 0 0 0 0 0 0 0 0 0 0 0 0 0 0 0 0 0 0 0 0 0 0 0 0 0 0 0 0 0 0 0 0 0 0 0 0 0 0 0 0 0 0 0 0
0 0 0 0 0 0 0 0 0 0 0 0 0 0 0 0 0 0 0 0 0 0 0 0 0 0 0 0 0 0 0 0 0 0 0 0 0 0 0 0 0 0 0 0 0 0 0 0 0
0 0 0 0 0 0 0 0 0 0 0 0 0 0 0 0 0 0 0 0 0 0 0 0 0 0 0 0 0 0 0 0 0 0 0 0 0 0 0 0 0 0 0 0 0 0 0 0 0
0 0 0 0 0 0 0 0 0 0 0 0 0 0 0 0 0 0 0 0 0 0 0 0 0 0 0 0 0 0 0 0 0 0 0 0 0 0 0 0 0 0 0 0 0 0 0 0 0
0 0 0 0 0 0 0 0 0 0 0 0 0 0 0 0 0 0 0 0 0 0 0 0 0 0 0 0 0 0 0 0 0 0 0 0 0 0 0 0 0 0 0 0 0 0 0 0 0
0 0 0 0 0 0 0 0 0 0 0 0 0 0 0 0 0 0 0 0 0 0 0 0 0 0 0 0 0 0 0 0 0 0 0 0 0 0 0 0 0 0 0 0 0 0 0 0 0
0 0 0 0 0 0 0 0 0 0 0 0 0 0 0 0 0 0 0 0 0 0 0 0 0 0 0 0 0 0 0 0 0 0 0 0 0 0 0 0 0 0 0 0 0 0 0 0 0

GFSSGP_con_mlcape_045.txt.gz
CAPE
0 0 0 0 0 0 0 0 0 45 52 49 55 75 67 115 83 51 278 316 320 233 480 726 670 524 437 521 546 493 517 559 599 548 489 441 421 433 444 540 687 766 615 776 599 315 104 25 5
0 0 0 0 0 0 0 0 22 67 76 48 48 56 94 143 292 319 310 367 270 315 590 819 666 633 594 675 608 532 594 619 581 502 420 368 350 364 433 513 779 574 461 513 174 18 0 0 0
0 0 0 0 0 0 0 50 68 94 68 5 0 26 55 61 288 294 491 359 287 430 659 836 740 730 744 705 685 695 674 588 523 478 408 501 568 530 476 632 591 444 309 101 25 0 0 0 0
0 0 0 0 0 0 0 94 84 23 22 3 0 0 45 136 246 364 525 370 286 480 690 733 753 748 776 780 804 687 614 533 434 417 633 635 394 118 61 113 221 111 46 6 0 0 0 0 0
0 0 0 0 0 0 0 115 95 51 5 0 0 0 12 316 310 483 437 312 244 388 627 708 662 710 800 828 744 636 564 446 443 561 526 259 88 22 0 0 2 0 0 0 0 0 0 0 0
0 0 0 0 0 0 32 148 48 65 0 37 10 2 106 384 441 441 376 346 313 341 474 618 652 708 726 694 629 521 487 474 475 386 132 52 11 0 0 0 0 0 0 0 0 0 0 0 0
0 0 0 2 0 23 48 94 64 45 3 72 22 42 302 397 332 261 322 377 388 427 455 531 607 594 531 486 478 430 412 358 142 15 10 0 0 0 0 0 0 0 0 0 0 0 0 0 0
0 0 11 10 10 23 70 93 91 12 49 61 151 85 307 359 256 316 296 325 335 325 361 332 316 418 454 436 272 247 159 0 0 0 0 0 0 0 0 0 0 0 0 0 0 0 0 0 0
0 0 2 53 19 42 30 10 15 45 112 46 9 293 436 277 245 314 290 237 197 89 2 0 0 0 2 19 26 0 0 0 0 0 0 0 66 107 58 0 0 0 0 0 2 0 0 0 0
0 0 0 21 45 28 3 15 0 78 123 66 80 195 341 294 379 372 311 168 4 0 0 0 0 0 0 0 0 0 0 0 4 40 61 99 122 179 175 125 35 12 0 0 0 0 0 3 0
0 0 0 21 37 42 9 3 60 170 144 120 95 348 423 383 364 284 121 0 0 0 0 0 0 0 0 0 0 0 0 0 0 35 80 144 172 216 344 352 184 95 0 2 0 0 0 0 0
0 0 0 22 14 0 24 0 30 211 29 124 200 494 422 313 151 110 0 0 0 0 0 0 0 0 0 0 0 0 0 0 22 66 114 228 345 333 333 364 262 36 0 0 0 0 0 0 0
0 0 0 0 6 1 1 1 22 88 57 115 322 374 337 235 91 1 0 0 0 0 0 0 0 0 0 0 0 0 0 28 94 136 233 300 437 357 131 95 3 0 0 0 0 0 0 0 0
0 0 0 0 4 1 0 0 0 0 109 126 239 285 284 121 0 0 0 0 0 0 0 0 0 0 0 0 0 0 19 54 95 178 262 226 109 4 0 0 0 0 0 0 0 0 0 0 0
0 0 0 0 0 0 0 0 0 36 154 116 263 231 150 15 0 0 0 0 0 0 0 0 0 0 0 0 0 0 0 0 0 7 2 3 6 0 0 0 0 0 0 0 0 0 0 0 0
0 0 0 0 0 0 0 0 0 213 150 97 136 121 78 0 0 0 0 0 0 0 0 0 0 0 0 0 0 0 0 0 0 0 0 0 0 0 0 0 0 0 0 0 0 0 0 0 0
0 0 0 0 0 0 0 0 0 61 254 131 92 35 14 0 0 0 0 0 0 0 0 0 0 0 0 0 0 0 0 0 0 0 0 0 0 0 0 0 0 0 0 0 0 0 0 0 0
0 0 0 0 0 0 0 0 0 0 155 45 8 6 0 0 0 0 0 0 0 0 1 2 1 1 0 0 0 0 0 0 0 0 0 0 0 0 0 0 0 0 0 0 0 0 0 0 0
0 0 0 0 0 0 0 0 0 0 3 24 0 8 0 0 0 0 0 0 0 34 36 38 1 0 0 1 0 0 0 0 0 0 0 0 0 0 0 0 0 0 0 0 0 0 0 0 0
0 0 0 0 0 0 0 0 0 0 0 0 0 0 0 0 0 0 0 7 54 65 72 4 0 0 0 0 0 0 0 0 0 0 0 0 0 0 0 0 0 0 0 0 0 0 0 0 0
0 0 0 0 0 0 0 0 0 0 0 0 0 0 0 0 0 0 0 0 0 0 0 0 0 0 0 0 0 0 0 0 0 0 0 0 0 0 0 0 0 0 0 0 0 0 0 0 0
0 0 0 0 0 0 0 0 0 0 0 0 0 0 0 0 0 0 0 0 0 0 0 0 0 0 0 0 0 0 0 0 0 0 0 0 0 0 0 0 0 0 0 0 0 0 0 0 0
0 0 0 0 0 0 0 0 0 0 0 0 0 0 0 0 0 0 0 0 0 0 0 0 0 0 0 0 0 0 0 0 0 0 0 0 0 0 0 0 0 0 0 0 0 0 0 0 0
0 0 0 0 0 0 0 0 0 0 0 0 0 0 0 0 0 0 0 0 0 0 0 0 0 0 0 0 0 0 0 0 0 0 0 0 0 0 0 0 0 0 0 0 0 0 0 0 0
0 0 0 0 0 0 0 0 0 0 0 0 0 0 0 0 0 0 0 0 0 0 0 0 0 0 0 0 0 0 0 0 0 0 0 0 0 0 0 0 0 0 0 0 0 0 0 0 1
0 0 0 0 0 0 0 0 0 0 0 0 0 0 0 0 0 0 0 0 0 0 0 0 0 0 0 0 0 0 0 0 0 0 0 0 0 0 0 0 0 0 0 0 0 0 0 1 17
0 0 0 0 0 0 0 0 0 0 0 0 0 0 0 0 0 0 0 0 0 0 0 0 0 0 0 0 0 0 0 0 0 0 0 0 0 0 0 0 0 0 0 6 22 35 12 7 12
0 0 0 0 0 0 0 0 0 0 0 0 0 0 0 0 0 0 0 0 0 0 0 0 0 0 0 0 0 0 0 0 0 0 0 0 0 0 0 0 0 0 0 26 42 20 6 3 6
0 0 0 0 0 0 0 0 0 0 0 0 0 0 0 0 0 0 0 0 0 0 0 0 0 0 0 0 0 0 0 0 0 0 0 0 0 0 0 6 12 1 13 38 32 6 1 0 0
0 0 0 0 0 0 0 0 0 0 0 0 0 0 0 0 0 0 0 0 0 0 0 0 0 0 0 0 0 0 0 0 0 0 0 0 0 0 0 5 0 3 15 12 0 0 0 0 0

GFSSGP_con_mlcape_048.txt.gz
CAPE
0 0 0 0 0 0 0 0 2 337 292 235 125 197 357 382 267 123 396 390 454 347 678 629 453 349 426 468 510 576 592 576 554 541 529 510 525 557 631 672 635 527 574 408 179 23 9 0 0
0 0 0 0 0 0 0 0 31 344 308 182 65 157 313 384 456 345 374 447 410 478 636 809 493 427 544 553 581 651 679 624 563 530 449 428 382 373 420 672 403 415 382 128 49 22 8 0 0
0 0 0 0 0 0 0 0 466 278 12 0 0 8 44 242 432 358 468 416 489 685 827 917 599 549 646 607 661 735 674 583 535 491 506 533 546 607 701 575 365 226 85 29 3 0 0 0 0
0 0 0 0 0 0 20 458 550 230 76 17 0 2 75 279 130 392 415 444 588 816 961 752 711 670 711 729 718 660 588 521 442 505 623 505 290 143 180 192 100 37 0 0 0 0 0 0 0
0 0 0 0 0 0 267 471 261 95 0 0 0 0 0 604 434 311 328 457 637 792 1012 1067 753 808 798 811 755 666 550 438 499 606 398 168 57 22 14 8 0 0 0 0 0 0 0 0 0
0 0 0 0 0 0 19 571 283 102 0 0 33 1 199 652 745 648 413 418 575 798 872 889 811 825 848 798 671 589 483 458 515 348 91 54 2 0 0 0 0 0 0 0 0 0 0 0 0
0 0 0 0 7 53 390 358 150 12 58 74 67 95 317 653 839 598 562 514 550 680 839 875 911 820 739 651 558 481 452 476 323 53 2 0 0 0 0 0 0 0 0 0 0 0 0 0 0
0 0 0 16 57 119 529 372 94 21 151 227 236 121 226 622 465 649 712 690 705 659 661 642 599 572 570 583 446 377 359 172 12 0 0 0 0 0 0 0 0 0 0 0 0 0 0 0 0
0 0 30 87 153 287 203 64 47 124 198 218 160 557 737 319 623 729 748 697 633 606 595 438 347 368 323 207 271 172 49 17 0 1 0 46 209 258 168 0 3 10 0 0 0 0 0 0 0
0 0 2 26 281 124 26 2 0 122 236 219 422 890 869 566 799 667 583 540 474 354 143 121 126 75 20 0 31 60 5 1 180 260 323 359 558 609 458 235 44 12 0 0 0 0 0 0 0
0 0 0 44 239 89 41 1 14 76 70 320 393 872 857 828 828 684 594 482 231 2 0 5 13 24 2 0 1 0 0 18 372 607 642 693 652 763 748 787 634 582 33 26 0 0 0 0 0
0 0 7 109 89 54 20 34 75 148 150 189 455 1024 941 938 719 588 432 83 0 0 0 0 9 15 16 0 0 6 98 359 476 638 766 886 871 889 760 733 766 600 114 21 5 4 13 0 0
0 0 7 38 50 31 134 56 153 285 236 351 879 1075 946 561 346 421 56 0 0 0 0 28 32 3 13 103 189 282 444 529 716 732 904 1022 1116 1041 806 733 481 195 81 36 26 7 0 0 0
0 0 0 0 52 6 57 110 108 162 322 547 875 695 495 303 113 74 0 0 0 0 0 155 168 198 178 264 389 437 479 512 732 836 1019 905 747 360 192 171 145 65 1 0 0 0 0 0 0
0 0 0 0 12 53 5 11 0 213 335 488 430 419 369 272 38 0 0 0 0 0 24 224 327 427 375 153 25 0 0 1 48 138 169 331 365 224 139 102 7 0 0 0 0 0 0 0 0
0 0 2 0 8 0 0 0 0 350 319 414 428 396 325 199 40 5 0 0 0 0 112 245 229 216 39 15 6 0 0 0 1 21 32 24 13 2 0 0 0 0 0 0 0 0 0 0 0
0 0 0 0 0 0 0 0 0 270 345 405 456 408 350 145 54 31 54 92 18 54 267 284 267 33 2 0 0 1 0 7 0 0 0 0 0 0 0 0 0 0 0 0 0 0 0 0 0
0 0 0 0 0 0 0 0 0 287 472 376 360 366 277 206 69 48 173 212 205 328 428 390 316 2 0 0 0 0 0 0 0 0 0 0 0 0 0 0 0 0 0 0 0 0 0 0 0
0 0 0 0 0 0 0 0 0 158 412 336 351 340 263 209 144 236 330 372 384 400 337 374 66 1 0 0 0 0 0 0 0 0 0 0 0 0 0 0 0 0 0 0 0 0 0 0 0
0 3 0 0 0 3 0 18 0 39 232 368 376 363 294 260 264 273 447 509 557 520 473 428 265 85 169 49 0 0 0 0 0 0 0 0 0 0 0 0 0 0 0 0 0 0 0 0 0
18 46 0 0 0 0 0 0 0 0 8 30 122 208 265 303 238 271 358 531 569 580 465 308 302 285 32 0 0 0 0 0 0 0 0 0 0 0 0 0 0 0 0 0 0 0 0 0 0
49 0 0 0 2 23 0 22 10 0 0 0 0 63 112 31 12 1 0 0 1 10 9 1 6 2 0 0 0 0 0 0 0 0 0 0 0 0 0 0 0 0 0 0 0 0 0 0 0
11 0 0 1 6 1 0 0 14 0 0 0 0 41 73 12 0 0 0 0 0 0 0 0 0 0 0 0 0 0 0 0 0 0 0 0 0 0 0 0 0 0 0 0 0 0 0 0 1
1 33 25 11 0 0 2 0 0 0 0 1 4 19 14 0 0 0 0 0 0 0 0 0 0 0 0 0 0 0 0 0 0 0 0 0 0 0 0 0 0 0 2 3 7 10 10 14 17
36 11 0 0 0 0 0 0 0 0 0 0 2 0 0 0 0 0 0 0 0 0 0 0 0 0 0 0 0 0 0 0 0 0 0 0 0 0 0 4 18 23 38 44 31 35 10 3 8
5 0 0 0 0 0 0 0 29 0 0 0 0 0 0 0 0 0 0 0 0 0 0 0 0 0 0 0 0 0 0 0 0 0 0 0 0 0 0 7 28 43 33 23 21 13 8 10 20
0 0 0 0 0 0 0 0 0 0 0 0 0 0 0 0 0 0 0 0 0 0 0 0 0 0 0 0 0 0 0 0 0 0 0 0 0 2 6 16 31 45 20 22 18 14 15 10 19
0 0 0 0 0 0 0 0 0 0 0 0 0 0 0 0 0 0 0 0 0 0 0 0 0 0 0 0 0 0 0 0 0 0 0 0 0 0 0 2 7 19 18 4 9 12 20 18 14
0 0 0 0 0 0 0 0 0 0 0 0 0 0 0 0 0 0 0 0 0 0 0 0 0 0 0 0 0 0 0 0 0 0 0 0 0 0 0 0 0 4 10 3 11 23 14 10 9
0 0 0 0 0 0 0 0 0 0 0 0 0 0 0 0 0 0 0 0 0 0 0 0 0 0 0 0 0 0 0 0 0 0 0 0 0 0 0 0 0 5 17 16 11 4 12 2 1

GFSSGP_con_mlcape_054.txt.gz
CAPE
0 0 0 0 0 0 0 0 0 124 411 561 466 689 553 638 714 189 265 435 356 98 94 134 297 491 472 395 366 368 387 440 449 449 488 549 526 497 400 366 327 188 88 36 12 0 0 0 0
0 0 0 0 0 0 0 29 497 462 539 215 193 559 674 548 723 443 420 622 496 169 93 180 181 320 364 362 356 410 514 496 447 398 364 340 468 521 349 224 118 91 14 0 0 0 0 0 0
0 0 0 0 0 0 0 550 374 706 93 11 91 213 381 603 481 562 329 511 657 173 198 218 245 294 380 369 449 465 456 380 350 368 407 488 524 382 188 64 5 0 0 0 0 0 0 0 0
0 0 0 0 0 0 0 460 269 3 256 309 60 48 16 115 395 484 449 427 503 462 306 254 317 300 368 474 469 430 360 337 346 379 323 236 256 159 26 0 0 0 0 0 0 0 0 0 0
0 0 0 0 0 0 0 653 130 264 152 143 274 141 2 319 485 370 294 354 333 351 275 326 276 333 491 486 450 374 358 397 374 218 47 51 43 4 0 0 0 0 0 0 0 0 0 0 0
0 0 0 0 0 3 1 610 101 17 17 0 0 75 60 4 227 417 400 264 319 326 422 412 424 459 470 408 386 336 346 369 213 42 5 0 1 0 0 0 0 0 0 0 0 0 0 0 0
0 0 0 0 0 1 351 298 83 5 2 46 8 225 79 120 44 14 362 76 82 272 463 581 523 510 412 414 370 309 330 228 54 14 0 0 0 0 0 0 0 0 0 0 0 0 0 0 0
0 0 0 0 0 308 295 11 33 263 122 8 109 68 184 269 417 404 138 8 142 300 492 576 565 539 476 387 305 295 208 53 0 0 0 0 0 0 0 0 0 0 0 0 0 0 0 0 0
0 0 0 3 110 415 1 0 1 24 37 73 110 0 21 593 116 22 45 71 104 269 593 546 575 564 461 347 289 178 40 4 0 0 0 0 2 14 92 18 0 0 0 0 0 0 0 0 0
0 0 0 7 73 108 0 0 2 4 0 76 550 16 199 632 23 0 0 58 145 143 325 427 385 440 429 182 143 29 0 1 6 3 0 147 462 169 284 41 0 10 10 1 1 0 0 0 14
0 0 0 389 135 44 12 0 0 72 9 0 732 1025 1043 901 70 0 0 124 11 202 237 206 232 117 50 10 136 16 0 79 226 405 558 507 571 561 228 460 263 236 141 197 63 23 32 55 45
0 0 49 71 70 1 80 55 56 18 31 74 1108 905 738 720 360 100 20 333 117 1 13 83 50 22 0 1 24 0 62 361 512 657 678 590 509 439 226 286 448 417 254 122 107 71 37 37 5
0 0 42 26 0 1 3 0 0 37 62 760 819 626 665 775 679 419 60 65 0 0 0 44 4 27 0 60 210 346 513 400 407 441 584 727 519 298 266 273 334 179 96 1 0 0 0 0 0
0 1 10 3 0 6 72 0 36 112 154 249 207 558 527 543 0 131 15 0 0 0 39 12 79 221 333 470 420 245 69 13 37 161 292 480 519 584 558 353 120 0 0 0 0 0 0 0 0
6 0 8 0 38 0 59 118 94 166 286 196 221 259 111 230 294 11 0 0 1 103 150 107 239 428 452 284 122 0 0 0 0 29 67 92 167 168 40 6 0 0 0 0 0 0 0 0 0
0 0 0 0 8 9 1 5 117 163 220 264 253 153 139 113 28 7 0 0 22 235 305 275 383 473 226 84 2 9 0 0 0 0 0 0 0 0 0 0 0 0 0 0 0 0 0 0 0
0 0 0 1 0 1 7 8 133 206 203 196 184 139 59 17 10 3 0 0 25 328 521 553 432 197 19 0 0 0 0 0 0 0 0 0 0 0 0 0 0 0 0 0 0 0 0 0 0
0 0 0 0 0 12 0 3 88 194 218 144 137 152 95 4 9 41 28 20 3 346 686 574 328 12 0 0 0 0 0 0 0 0 0 0 0 0 0 0 0 0 0 0 0 0 0 0 0
0 2 26 1 0 0 0 0 34 68 133 44 193 213 201 137 270 291 288 304 264 355 810 539 205 19 2 0 0 0 0 0 0 0 0 0 0 0 0 0 0 0 0 0 0 0 0 0 0
0 3 0 0 0 0 1 9 0 23 25 217 356 363 382 303 394 444 578 616 618 896 642 348 295 60 104 227 218 13 0 0 0 0 0 0 0 0 0 0 0 0 0 0 0 0 0 0 0
8 2 2 17 0 0 13 0 6 14 75 177 267 384 459 491 555 709 865 907 908 788 707 507 448 261 370 233 10 0 0 0 0 0 0 0 0 0 0 0 0 0 0 0 0 0 0 0 0
4 0 2 1 5 0 3 11 9 23 89 181 302 329 452 559 708 888 1015 794 681 567 417 505 550 451 226 0 0 0 0 0 0 2 0 0 0 0 0 0 0 0 0 0 0 0 0 0 0
0 0 64 20 14 4 0 0 1 6 46 173 314 446 559 604 719 772 934 723 710 660 657 428 44 12 0 0 0 0 16 6 3 3 0 0 0 0 0 0 0 0 0 0 4 13 10 0 2
58 35 61 34 25 15 0 1 2 0 63 199 247 403 493 554 542 390 454 380 193 124 40 7 0 0 0 0 0 0 0 0 0 0 0 0 0 0 0 0 0 0 0 0 0 5 2 0 0
16 19 29 4 19 18 29 51 58 3 45 54 207 338 467 357 194 50 30 3 1 0 0 0 0 0 0 0 0 0 0 0 0 0 0 0 0 0 0 0 0 0 0 0 1 15 36 11 6
66 0 1 30 9 98 13 14 166 54 72 284 245 267 362 368 53 0 0 0 0 0 0 0 0 0 0 0 0 0 0 0 0 0 0 0 0 0 0 0 0 0 0 0 0 3 23 37 17
0 61 62 12 0 0 0 0 201 40 10 125 279 322 410 381 18 0 0 0 0 0 0 0 0 1 0 0 0 0 0 0 0 0 0 0 0 0 0 0 0 0 0 0 0 0 18 31 5
0 0 42 0 0 0 0 0 91 33 0 32 223 315 397 286 13 0 0 0 3 0 1 0 2 0 0 0 0 0 0 0 0 0 0 0 0 0 0 0 0 0 0 0 0 0 14 10 14
3 6 0 0 24 7 3 9 36 0 0 0 90 239 340 130 2 0 0 4 4 2 1 0 0 0 0 0 0 0 0 0 0 0 0 0 0 0 0 0 0 0 0 0 3 7 5 6 0
0 2 2 0 0 3 0 0 0 0 0 0 0 108 184 36 4 8 7 6 7 0 0 0 0 0 0 0 0 0 0 0 0 0 0 0 0 0 0 0 0 0 3 0 0 0 0 0 0

GFSSGP_con_mlcape_057.txt.gz
CAPE
0 0 0 0 0 0 0 0 0 162 432 419 752 598 594 713 660 189 345 164 1 37 465 705 723 603 570 439 362 335 269 266 308 344 357 278 235 249 176 87 68 15 0 0 0 0 0 0 0
0 0 0 0 0 0 0 0 315 636 304 117 394 163 165 481 599 639 487 85 0 31 440 684 663 600 485 414 439 374 345 308 288 289 271 275 260 186 60 31 0 0 0 0 0 0 0 0 0
0 0 0 0 0 0 0 516 531 488 254 207 245 391 592 493 810 768 662 141 12 53 284 637 498 414 430 499 497 397 310 271 273 281 360 328 211 86 3 0 0 0 0 0 0 0 0 0 0
0 0 0 0 0 0 0 293 714 497 401 186 160 93 203 359 674 635 652 74 139 241 263 306 273 379 494 450 402 327 287 225 205 223 255 176 82 11 0 0 0 0 0 0 0 0 0 0 0
0 0 0 0 0 0 104 484 112 306 326 290 323 80 198 647 585 524 602 346 291 96 226 222 289 395 398 349 338 315 230 173 95 45 33 37 12 0 0 0 0 0 0 0 0 0 0 0 0
0 0 0 0 0 615 512 282 305 85 72 66 59 40 125 742 603 518 458 344 80 16 84 139 347 379 306 279 304 265 216 98 5 0 3 3 0 0 0 0 0 0 0 0 0 0 0 0 0
0 0 0 0 0 351 447 208 104 28 46 14 148 148 24 264 446 389 349 74 6 36 106 192 280 305 310 304 279 235 148 23 8 1 0 0 0 0 0 0 0 0 0 0 0 0 0 0 0
0 0 0 0 0 261 263 189 150 147 126 3 188 110 34 25 77 82 205 18 1 118 81 203 382 394 351 319 255 152 36 12 0 0 0 0 0 0 0 0 0 0 0 0 0 0 0 0 0
0 0 0 0 32 184 29 31 39 4 3 0 14 6 334 257 178 0 0 0 22 42 156 246 479 403 310 258 179 64 17 1 0 0 0 0 0 0 0 0 0 0 0 0 0 0 0 0 0
0 0 0 66 210 46 10 2 0 0 0 0 0 23 507 417 238 173 3 0 13 27 133 272 447 351 249 163 47 4 0 0 0 0 0 2 6 30 36 0 0 0 0 0 0 0 0 2 0
0 0 1 216 107 50 8 15 24 1 0 0 0 29 399 47 56 64 91 0 23 31 163 333 430 328 54 17 0 0 0 0 13 9 24 58 219 102 176 70 74 41 30 32 73 22 1 2 0
0 10 150 205 105 36 9 0 0 0 0 12 0 201 422 74 0 26 69 82 149 126 100 144 93 68 8 10 0 0 5 61 235 367 246 196 180 72 9 4 69 33 0 0 0 0 0 0 0
0 136 95 49 18 5 0 0 0 0 69 282 360 792 538 92 1 14 83 126 89 27 57 22 0 0 0 13 83 171 253 318 268 335 417 269 165 94 209 10 0 0 0 0 0 0 0 0 0
2 91 66 48 18 12 4 0 1 13 0 18 726 620 332 170 18 57 262 131 5 12 1 0 0 0 171 171 26 0 1 18 24 111 180 243 136 85 23 0 0 0 0 0 0 0 0 0 0
22 21 67 52 2 0 0 0 19 59 88 140 377 363 156 24 0 1 93 32 6 6 4 0 5 283 184 10 1 0 0 0 0 0 3 9 1 1 0 0 0 0 0 0 0 0 0 0 0
0 0 8 1 7 0 0 0 42 144 188 295 135 381 45 117 1 21 36 0 5 4 9 88 277 254 51 5 0 0 0 0 0 0 0 0 0 0 0 0 0 0 0 0 0 0 0 0 0
0 0 0 0 2 0 0 0 87 172 214 185 127 143 182 58 10 0 1 30 90 93 114 198 229 69 12 0 0 0 0 0 0 0 0 0 0 0 0 0 0 0 0 0 0 0 0 0 0
0 0 0 0 0 1 0 1 89 163 183 137 81 38 21 4 0 0 0 60 200 255 245 218 83 9 0 0 0 0 0 0 0 0 0 0 0 0 0 0 0 0 0 0 0 0 0 0 0
0 0 0 0 0 0 0 4 99 124 130 96 55 20 11 4 4 1 15 58 349 365 263 150 50 0 0 0 0 0 0 0 0 0 0 0 0 0 0 0 0 0 0 0 0 0 0 0 0
0 0 0 0 1 2 0 2 69 129 106 14 91 74 13 89 123 190 201 168 447 420 284 158 24 3 0 0 0 0 0 0 0 0 0 0 0 0 0 0 0 0 0 0 0 0 0 0 0
1 0 0 0 0 0 0 0 4 23 144 19 16 83 32 133 195 267 379 482 447 416 294 145 36 4 0 7 40 0 0 0 0 0 0 0 0 0 0 0 0 0 0 0 0 0 0 0 0
0 0 1 1 0 0 1 0 0 0 29 56 155 128 141 225 351 521 621 642 664 537 355 282 126 31 46 224 22 0 0 0 0 0 0 0 0 0 0 0 0 0 0 0 0 0 0 0 0
2 0 7 10 16 8 0 0 0 0 3 13 235 311 332 400 479 684 778 700 564 438 344 277 70 92 197 12 0 0 0 0 0 0 0 0 0 0 0 0 0 0 0 0 0 0 0 0 0
28 0 4 11 3 0 5 0 0 0 0 39 167 249 271 436 572 798 781 590 414 286 283 306 263 75 0 0 0 0 0 0 0 0 0 0 0 0 0 0 0 0 0 0 0 0 0 0 0
5 7 6 0 0 4 23 0 2 0 0 10 90 297 462 532 515 653 608 463 316 297 214 62 0 0 0 0 0 0 0 0 0 0 0 0 0 0 0 0 0 0 0 0 0 0 0 0 3
1 11 2 0 0 1 3 0 14 0 0 0 18 260 377 361 288 251 230 175 29 0 0 0 0 0 0 0 0 0 0 0 0 0 0 0 0 0 0 0 0 0 0 0 0 0 0 0 2
0 23 58 2 0 0 0 0 66 0 67 40 6 339 370 246 84 57 8 1 0 0 0 0 0 0 0 0 0 0 0 0 0 0 0 0 0 0 0 0 0 0 0 0 0 0 0 0 0
17 0 19 6 0 0 0 0 24 0 115 159 196 289 341 211 17 0 0 0 0 0 0 0 0 0 0 0 0 0 0 0 0 0 0 0 0 0 0 0 0 0 0 0 0 0 0 0 0
0 1 0 0 0 0 0 0 30 0 0 140 252 295 359 302 28 0 0 0 0 2 1 0 0 0 0 0 0 0 0 0 0 0 0 0 0 0 0 0 0 0 0 0 0 0 0 0 0
0 1 1 0 0 0 0 0 0 0 0 1 118 254 331 279 45 0 0 0 3 6 3 0 0 0 0 0 0 0 0 0 0 0 0 0 0 0 0 0 0 0 0 0 0 0 0 0 0

GFSSGP_con_mlcape_060.txt.gz
CAPE
0 0 0 0 0 0 0 0 0 0 57 825 771 705 584 832 578 229 320 188 269 680 833 603 511 489 460 333 340 403 475 344 278 257 179 166 114 26 0 0 0 0 0 0 0 0 0 0 0
0 0 0 0 0 0 0 0 60 416 431 609 596 657 545 651 760 520 462 208 441 729 815 724 475 530 413 418 401 432 517 443 329 290 178 138 43 27 4 0 0 0 0 0 0 0 0 0 0
0 0 0 0 0 0 0 413 636 505 332 334 543 571 647 828 946 805 305 153 525 695 769 722 499 440 402 489 440 456 359 264 263 307 168 67 45 14 0 0 0 0 0 0 0 0 0 0 0
0 0 0 0 0 0 0 0 661 524 343 323 265 308 556 720 834 832 160 92 247 620 793 629 543 542 531 494 463 350 326 304 336 250 120 77 20 3 0 0 0 0 0 0 0 0 0 0 0
0 0 0 0 0 107 400 386 219 367 539 404 251 170 584 914 882 639 104 247 304 555 394 305 236 495 392 411 315 284 236 196 213 143 97 47 4 0 0 0 0 0 0 0 0 0 0 0 0
0 0 0 0 0 285 437 266 136 87 276 209 130 214 372 917 798 514 388 378 166 29 11 83 112 148 252 374 321 214 140 97 88 63 35 3 0 0 0 0 0 0 0 0 0 0 0 0 0
0 0 0 0 0 0 215 196 108 96 35 186 292 132 354 904 723 548 309 146 46 9 9 38 64 111 234 314 251 156 71 50 29 9 0 0 0 0 0 0 0 0 0 0 0 0 0 0 0
0 0 0 0 0 7 316 237 200 229 5 61 115 128 214 504 594 353 171 92 50 62 29 31 123 273 311 267 174 79 33 8 0 0 0 0 0 0 0 0 0 0 0 0 0 0 0 0 0
0 0 0 0 0 83 146 155 165 84 12 0 73 75 98 404 253 96 57 13 0 82 61 55 167 289 262 209 153 30 1 0 0 0 0 0 0 0 0 0 0 0 0 0 0 0 0 0 0
0 0 0 6 190 57 14 26 43 18 0 0 55 383 151 77 122 7 6 38 14 5 6 127 201 275 218 155 57 10 0 0 0 0 0 4 2 0 0 0 0 0 0 0 2 0 0 0 0
0 0 0 23 55 15 0 2 11 0 0 0 0 254 248 31 35 0 7 0 0 0 136 169 206 276 164 66 6 0 0 0 0 0 0 4 36 27 1 24 55 27 73 0 0 0 0 0 0
0 0 0 180 66 36 28 0 11 0 9 19 0 214 243 133 22 0 8 0 0 38 167 141 205 133 6 0 0 0 0 0 6 94 157 138 83 14 0 0 0 0 0 0 0 0 0 0 0
0 115 86 67 14 88 0 0 0 0 252 52 113 100 53 5 47 0 1 27 7 56 149 212 185 3 0 0 0 0 12 156 263 240 129 52 12 20 0 0 0 0 0 0 0 0 0 0 0
19 68 36 28 33 9 1 0 0 10 10 32 38 62 30 58 93 89 96 33 37 55 65 156 93 3 41 8 0 4 89 110 177 137 96 36 3 0 0 0 0 0 0 0 0 0 0 0 0
69 54 0 10 0 0 2 5 11 0 7 57 153 170 86 55 48 22 59 143 46 38 4 0 2 56 2 0 20 9 1 19 18 0 0 0 0 0 0 0 0 0 0 0 0 0 0 0 0
0 0 0 3 0 0 3 6 53 9 191 271 364 293 120 75 33 85 24 130 33 33 6 13 131 40 16 0 0 0 0 0 0 0 0 0 0 0 0 0 0 0 0 0 0 0 0 0 0
0 0 0 1 3 0 12 5 267 85 273 292 268 281 112 20 19 45 151 17 10 0 0 79 177 44 3 0 0 0 0 0 0 0 0 0 0 0 0 0 0 0 0 0 0 0 0 0 0
0 0 0 0 0 0 0 0 156 121 175 142 227 209 59 12 3 24 183 16 10 15 0 108 173 48 0 0 0 0 0 0 0 0 0 0 0 0 0 0 0 0 0 0 0 0 0 0 0
0 0 0 0 0 0 0 0 79 177 130 86 228 194 145 39 18 71 128 43 70 70 71 150 145 15 0 0 0 0 0 0 0 0 0 0 0 0 0 0 0 0 0 0 0 0 0 0 0
0 0 0 0 0 0 2 0 34 168 159 131 80 9 8 8 2 10 32 141 171 148 159 161 150 24 0 0 0 0 0 0 0 0 0 0 0 0 0 0 0 0 0 0 0 0 0 0 0
0 0 0 0 0 0 0 1 35 106 94 56 36 0 0 0 0 0 32 220 218 175 113 97 83 5 0 0 0 0 0 0 0 0 0 0 0 0 0 0 0 0 0 0 0 0 0 0 0
0 0 0 0 0 0 0 0 0 20 164 58 10 30 0 8 42 200 183 313 297 188 55 18 14 2 0 0 0 0 0 0 0 0 0 0 0 0 0 0 0 0 0 0 0 0 0 0 0
0 0 0 1 0 0 0 0 0 0 0 61 122 4 24 69 139 283 320 345 366 257 207 139 64 9 0 0 19 0 0 0 0 0 0 0 0 0 0 0 0 0 0 0 0 0 0 0 0
0 0 0 0 0 0 0 0 0 0 0 0 1 101 93 126 252 478 572 589 577 449 342 207 78 22 7 46 0 0 0 0 0 0 0 0 0 0 0 0 0 0 0 0 0 0 0 0 0
0 0 0 0 0 0 5 0 0 0 0 0 0 100 147 176 434 557 605 624 538 409 269 98 48 4 0 0 0 0 0 0 0 0 0 0 0 0 0 0 0 0 0 0 0 0 0 0 0
0 6 14 0 0 0 2 0 0 11 0 0 0 81 146 313 499 646 655 505 298 198 148 72 8 0 0 0 0 0 0 0 0 0 0 0 0 0 0 0 0 0 0 0 0 0 0 0 0
0 1 2 14 0 0 0 0 4 0 0 0 0 108 339 332 531 703 553 239 84 56 44 37 0 0 0 0 0 0 0 0 0 0 0 0 0 0 0 0 0 0 0 0 0 0 0 0 0
0 0 0 2 0 0 0 0 0 8 96 11 5 53 381 308 396 409 343 181 11 0 0 0 0 0 0 0 0 0 0 0 0 0 0 0 0 0 0 0 0 0 0 0 0 0 0 0 0
0 0 0 0 0 0 0 0 0 0 35 1 24 38 201 200 136 137 148 50 18 0 0 0 0 0 0 0 0 0 0 0 0 0 0 0 0 0 0 0 0 0 0 0 0 0 0 0 0
5 0 0 0 0 0 0 0 0 0 4 64 107 159 232 135 22 4 14 3 0 0 0 0 0 0 0 0 0 0 0 0 0 0 0 0 0 0 0 0 0 0 0 0 0 0 0 0 0

GFSSGP_con_mlcape_063.txt.gz
CAPE
0 0 0 0 0 0 0 0 0 0 0 822 960 972 666 783 578 285 297 51 490 881 901 698 515 300 156 182 240 298 372 324 314 232 133 44 1 7 0 0 0 0 0 0 0 0 0 0 0
0 0 0 0 0 0 0 0 51 481 397 992 719 573 723 678 800 630 405 310 646 881 800 692 538 361 223 285 275 400 373 385 239 184 84 31 37 4 0 0 0 0 0 0 0 0 0 0 0
0 0 0 0 0 0 0 0 319 499 418 496 719 654 767 931 788 730 528 498 582 811 742 768 482 387 331 367 397 530 451 374 242 152 63 54 41 8 0 0 3 0 0 0 0 0 0 0 0
0 0 0 0 0 0 0 203 298 573 388 334 352 514 675 856 932 815 573 630 649 851 832 548 324 578 469 406 447 285 328 317 213 121 69 51 24 11 0 4 1 0 0 0 0 0 0 0 0
0 0 0 0 0 5 440 394 440 358 464 285 182 396 635 1021 986 448 497 807 909 814 735 414 259 434 538 408 283 291 252 272 181 124 74 38 16 3 0 0 0 0 0 0 0 0 0 0 0
0 0 0 0 0 2 392 279 181 150 131 148 310 393 619 980 724 441 579 569 480 355 233 122 84 125 176 221 244 194 207 192 135 104 52 9 11 0 0 0 0 0 0 0 0 0 0 0 0
0 0 0 0 0 0 36 262 210 169 149 262 296 97 559 928 688 494 369 334 174 41 0 5 28 101 180 250 192 131 147 123 99 51 10 2 0 0 0 0 0 0 0 0 0 0 0 0 0
0 0 0 0 0 0 104 311 243 244 228 194 167 45 338 898 686 405 339 171 63 7 2 30 53 56 164 170 119 93 75 64 72 1 0 0 0 0 0 0 0 0 0 0 0 0 0 0 0
0 0 0 0 0 5 297 307 250 113 129 30 167 68 444 627 529 436 217 77 25 39 27 0 34 129 216 219 150 66 45 40 9 2 0 0 0 1 0 0 0 0 0 0 0 0 0 0 0
0 0 0 0 90 129 157 154 122 205 63 41 394 433 671 540 466 346 105 15 9 27 0 0 55 218 252 199 100 39 25 0 2 3 0 0 0 3 0 0 5 4 0 0 0 0 0 0 0
0 0 0 1 87 76 21 18 24 56 8 0 285 447 480 199 145 109 75 24 0 5 3 21 72 203 211 107 46 8 2 0 1 0 0 3 15 18 29 33 26 12 0 0 0 0 0 0 0
0 0 0 0 94 51 35 59 70 0 3 1 295 241 94 27 52 75 56 15 1 18 1 29 66 213 162 41 3 0 0 0 0 0 2 87 28 28 0 0 0 0 0 0 0 0 0 0 0
0 54 67 199 114 54 3 0 0 2 87 25 430 206 72 25 49 28 9 0 3 0 32 86 83 197 61 0 0 0 0 1 83 155 100 49 1 0 0 0 0 0 0 0 0 0 0 0 0
48 100 100 83 76 22 1 0 0 86 149 116 113 82 71 38 8 5 3 0 0 11 51 103 193 45 0 0 0 0 39 153 191 108 73 4 0 0 0 0 0 0 0 0 0 0 0 0 0
103 84 117 98 53 1 0 8 13 0 68 71 29 6 80 29 8 0 0 9 18 18 83 128 101 3 1 0 5 29 113 176 145 49 1 0 0 0 0 0 0 0 0 0 0 0 0 0 0
60 54 75 38 4 0 25 32 17 3 148 48 100 38 100 68 50 14 33 47 46 35 42 67 144 9 5 0 1 25 66 43 4 0 0 0 0 0 0 0 0 0 0 0 0 0 0 0 0
0 0 6 43 5 3 7 74 88 23 287 202 193 150 107 158 165 105 53 56 100 62 17 72 120 4 0 0 0 1 0 0 0 0 0 0 0 0 0 0 0 0 0 0 0 0 0 0 0
2 0 0 0 0 5 7 9 142 114 342 355 427 288 144 87 63 95 42 75 73 44 0 9 2 0 0 0 0 0 0 0 0 0 0 0 0 0 0 0 0 0 0 0 0 0 0 0 0
0 0 0 0 0 0 0 0 70 176 262 304 349 373 216 85 16 14 159 120 27 7 12 24 0 0 0 0 0 0 0 0 0 0 0 0 0 0 0 0 0 0 0 0 0 0 0 0 0
0 0 0 0 0 0 0 0 0 100 142 276 280 320 211 82 18 14 120 138 7 22 0 21 50 10 0 0 0 0 0 0 0 0 0 0 0 0 0 0 0 0 0 0 0 0 0 0 0
0 0 0 0 0 0 0 0 0 37 86 96 249 229 195 69 22 5 45 163 13 22 1 0 42 26 0 0 0 0 0 0 0 0 0 0 0 0 0 0 0 0 0 0 0 0 0 0 0
0 0 0 0 0 0 0 0 0 0 53 37 182 107 77 39 3 0 3 143 32 25 39 12 30 4 0 0 0 0 0 0 0 0 0 0 0 0 0 0 0 0 0 0 0 0 0 0 0
0 0 0 0 0 0 0 0 0 0 53 58 8 31 0 1 0 0 3 37 20 2 11 1 24 9 0 0 0 0 0 0 0 0 0 0 0 0 0 0 0 0 0 0 0 0 0 0 0
0 0 0 0 1 1 0 0 0 0 0 49 5 0 0 0 0 6 0 94 89 4 13 13 23 81 2 0 0 0 0 0 0 0 0 0 0 0 0 0 0 0 0 0 0 0 0 0 0
0 0 0 0 0 0 0 0 0 0 0 0 0 2 0 0 4 98 37 82 73 44 42 32 101 105 16 0 0 14 8 0 0 0 0 0 0 0 0 0 0 0 0 0 0 0 0 0 0
0 0 0 0 0 0 0 0 0 0 0 0 0 0 0 0 21 203 293 216 177 149 128 145 143 79 1 0 0 0 0 0 0 0 0 0 0 0 0 0 0 0 0 0 0 0 0 0 0
0 0 0 0 0 0 0 0 0 0 0 0 9 0 4 54 181 248 408 424 439 313 287 138 37 0 0 0 0 0 0 0 0 0 0 0 0 0 0 0 0 0 0 0 0 0 0 0 0
2 0 0 0 0 0 0 0 0 0 16 2 11 130 119 226 327 392 428 466 459 355 136 12 0 0 0 0 0 0 0 0 0 0 0 0 0 0 0 0 0 0 0 0 0 0 0 0 0
9 0 0 0 0 0 0 0 0 0 0 23 0 8 83 193 365 410 475 493 263 49 10 0 0 0 0 0 0 0 0 0 0 0 0 0 0 0 0 0 0 0 0 0 0 0 0 0 0
0 0 0 0 0 0 0 0 0 0 0 0 0 0 62 250 387 457 549 275 18 12 0 0 0 0 0 0 0 0 0 0 0 0 0 0 0 0 0 0 0 0 0 0 0 0 0 0 0

GFSSGP_con_mlcape_066.txt.gz
CAPE
0 0 0 0 0 0 0 0 0 0 0 995 837 865 727 716 562 304 335 336 788 1081 869 626 361 297 282 339 417 409 371 311 238 173 90 58 20 0 0 0 0 0 0 0 0 0 46 62 0
0 0 0 0 0 0 0 0 103 383 495 875 715 727 914 862 895 558 228 812 1139 1043 811 598 426 294 259 341 407 412 438 225 226 120 64 48 6 0 0 0 0 0 0 0 0 0 45 9 0
0 0 0 0 0 0 0 0 2 294 532 645 667 650 746 848 814 628 573 842 1102 1033 794 624 378 423 414 507 504 476 341 179 120 65 70 41 3 0 0 0 0 0 0 0 0 0 24 0 0
0 0 0 0 0 0 0 76 231 545 423 423 450 507 752 1006 1065 805 648 910 964 835 848 572 370 526 645 641 583 542 203 158 93 84 82 31 12 7 8 15 0 0 0 0 0 0 0 0 0
0 0 0 0 0 0 97 433 409 436 488 346 231 438 647 1077 818 738 757 901 1008 912 642 482 276 529 699 612 497 426 189 208 102 127 84 21 13 24 7 2 0 0 0 0 0 0 0 0 0
0 0 0 0 0 0 63 455 391 377 307 304 458 483 659 785 843 777 741 721 876 647 461 358 122 178 279 156 222 288 331 134 105 142 59 36 35 23 3 0 0 0 0 0 0 0 0 0 0
0 0 0 0 0 0 0 438 360 236 252 329 333 399 712 980 861 693 647 430 298 199 229 96 111 100 52 145 267 407 287 60 127 104 40 26 13 7 0 0 0 0 0 0 0 0 0 0 0
0 0 0 0 0 0 39 518 430 352 250 238 175 198 546 1017 732 558 473 331 187 59 10 7 30 30 64 155 290 278 128 110 90 27 17 3 17 8 0 0 0 0 0 0 0 0 0 0 0
0 0 0 0 0 0 335 513 420 264 220 212 403 303 653 942 616 341 226 204 102 20 9 23 27 30 107 182 186 124 64 84 36 24 10 7 5 1 2 2 0 0 0 0 0 0 0 0 0
0 0 0 0 0 11 228 419 302 318 153 274 433 754 832 892 644 397 215 132 32 1 2 0 24 2 158 177 120 75 68 31 15 12 9 7 4 0 0 1 5 3 0 0 0 0 0 0 0
0 0 0 0 8 172 114 113 78 79 111 112 329 744 723 338 247 215 94 10 2 0 0 13 16 58 166 184 89 35 16 20 5 1 0 1 7 1 9 4 0 0 0 0 0 0 0 0 0
0 0 0 0 35 101 81 123 160 22 76 42 377 539 254 161 344 87 14 3 0 0 0 0 8 34 202 98 26 6 0 0 0 0 10 53 59 24 3 0 0 0 0 0 0 0 0 0 0
0 28 44 61 133 120 49 12 1 61 177 345 317 194 72 156 107 47 13 1 2 3 0 0 0 31 150 22 0 0 0 0 3 9 29 30 7 0 0 0 0 0 0 0 0 0 0 0 0
55 106 148 136 166 45 15 25 1 275 408 336 240 56 43 90 59 29 2 0 3 0 0 0 35 86 73 3 0 0 0 4 47 85 66 4 0 0 0 0 0 0 0 0 0 0 0 0 0
88 143 129 117 75 27 3 37 29 307 198 1 120 28 6 55 42 19 8 0 0 0 17 13 29 29 4 0 0 0 6 159 185 119 32 0 0 0 0 0 0 0 0 0 0 0 0 0 0
93 56 89 60 15 0 0 22 27 225 165 0 14 107 57 95 26 1 0 0 0 0 13 43 73 66 2 0 0 8 83 120 65 12 0 0 0 0 0 0 0 0 0 0 0 0 0 0 0
0 7 9 27 22 0 0 48 37 154 235 27 42 71 129 85 11 0 0 0 0 1 23 46 68 22 0 0 0 5 26 10 0 0 0 0 0 0 0 0 0 0 0 0 0 0 0 0 0
10 2 2 1 0 0 0 1 32 99 207 103 116 97 134 130 33 37 58 72 7 0 0 0 7 2 0 0 0 0 0 0 0 0 0 0 0 0 0 0 0 0 0 0 0 0 0 0 0
2 3 0 0 0 0 0 0 69 59 260 214 218 243 178 147 144 132 86 54 41 5 6 15 39 3 0 0 0 0 0 0 0 0 0 0 0 0 0 0 0 0 0 0 0 0 0 0 0
0 0 0 0 0 0 0 0 0 108 275 292 339 336 268 153 135 135 129 92 20 41 44 4 0 1 0 0 0 0 0 0 0 0 0 0 0 0 0 0 0 0 0 0 0 0 0 0 0
0 0 0 0 0 0 0 0 0 0 151 231 236 330 320 199 68 26 48 101 67 51 86 72 17 0 0 0 0 0 0 0 0 0 0 0 0 0 0 0 0 0 0 0 0 0 0 0 0
0 0 0 0 0 0 0 0 0 0 9 138 163 261 296 274 134 16 0 33 94 36 31 37 15 0 0 0 0 0 0 0 0 0 0 0 0 0 0 0 0 0 0 0 0 0 0 0 0
0 0 0 0 0 0 0 0 0 0 2 32 86 137 204 233 164 41 4 3 57 18 4 0 0 0 0 0 0 0 0 0 0 0 0 0 0 0 0 0 0 0 0 0 0 0 0 0 0
0 0 0 0 0 0 0 0 0 0 0 0 9 31 49 89 77 24 0 0 2 9 1 0 0 0 0 0 0 0 0 0 0 0 0 0 0 0 0 0 0 0 0 0 0 0 0 0 0
0 0 0 0 0 0 0 0 0 0 0 0 0 7 2 13 0 0 0 0 0 12 13 0 4 2 0 0 0 0 0 0 0 0 0 0 0 0 0 0 0 0 0 0 0 0 0 0 0
0 0 0 0 0 0 0 0 0 0 0 0 0 0 0 0 5 2 0 0 11 24 10 19 28 19 0 0 0 0 0 0 0 0 0 0 0 0 0 0 0 0 0 0 0 0 0 0 0
0 0 0 0 0 0 0 0 0 0 0 0 0 0 0 0 0 22 16 15 17 15 27 34 30 7 0 0 0 0 0 0 0 0 0 0 0 0 0 0 0 0 0 0 0 0 0 0 0
0 0 0 0 0 0 0 0 0 0 0 0 2 4 0 0 0 4 91 114 105 84 88 31 6 11 0 0 0 0 0 0 0 0 0 0 0 0 0 0 0 0 0 0 0 0 0 0 0
0 0 0 0 0 0 0 0 0 0 0 0 0 0 3 1 13 68 129 155 205 131 98 96 22 0 0 0 0 0 0 0 0 0 0 0 0 0 0 0 0 0 0 0 0 0 0 0 0
0 0 0 0 0 0 0 0 0 0 0 0 0 0 0 20 123 199 211 196 215 184 115 90 4 0 0 0 0 0 0 0 0 0 0 0 0 0 0 0 0 0 0 0 0 0 0 0 0

GFSSGP_con_mlcape_069.txt.gz
CAPE
0 0 0 0 0 0 0 0 0 0 0 613 1040 935 814 750 630 405 460 368 975 858 582 575 493 373 220 111 99 185 334 347 269 166 115 56 0 0 0 0 0 0 0 1 111 102 36 158 97
0 0 0 0 0 0 0 0 5 138 355 743 790 960 1078 1048 1004 612 440 836 1028 968 650 680 542 476 432 381 368 391 389 282 180 138 104 32 1 0 0 0 0 0 0 45 210 227 87 108 176
0 0 0 0 0 0 0 0 0 102 406 635 715 842 949 1098 955 601 606 1122 1251 1010 702 628 565 638 716 642 553 530 411 251 171 125 77 21 6 0 0 0 0 0 0 108 204 92 128 164 165
0 0 0 0 0 0 0 0 571 637 602 605 670 712 1068 1234 1362 875 845 1217 1222 1002 754 610 577 670 700 669 628 434 282 190 161 132 54 26 26 8 5 3 0 0 0 19 100 1 5 134 65
0 0 0 0 0 0 0 159 558 580 527 515 282 637 938 911 1112 898 1101 1327 1212 1018 795 571 392 598 746 722 424 180 133 156 140 81 61 61 65 49 26 12 0 0 0 0 0 4 16 56 3
0 0 0 0 0 0 0 336 578 524 464 563 621 758 818 1001 1155 1094 1179 1184 1129 949 733 498 218 371 566 347 190 142 146 132 115 70 65 60 51 28 13 6 0 0 0 0 0 0 0 0 0
0 0 0 0 0 0 0 501 562 390 336 486 520 622 822 1084 1072 914 885 909 718 626 403 225 199 184 71 179 205 121 108 163 108 27 32 31 23 4 0 0 0 0 0 0 0 0 0 0 0
0 0 0 0 0 0 1 523 513 443 374 365 357 416 706 1194 959 818 684 639 432 291 193 138 83 27 12 42 211 201 158 95 2 17 10 7 1 0 0 0 0 0 0 0 0 0 0 0 0
0 0 0 0 0 0 217 478 483 288 312 466 540 499 857 1027 876 817 646 351 214 130 31 2 1 0 11 34 68 139 110 9 11 18 14 10 12 10 7 8 2 0 0 0 0 0 0 0 0
0 0 0 0 0 0 94 427 368 347 291 402 531 687 969 921 710 504 342 279 123 41 4 2 0 1 0 1 71 121 69 13 19 29 8 15 28 23 14 2 1 0 0 0 0 0 0 0 0
0 0 0 0 0 7 127 213 202 153 167 255 413 838 1076 821 556 455 262 75 7 1 1 2 3 0 1 70 76 57 34 12 17 15 34 33 15 29 41 50 0 0 0 0 0 0 0 0 0
0 0 0 0 6 68 118 153 191 77 133 208 548 788 553 500 486 319 4 3 1 5 1 0 0 6 24 93 62 22 18 16 28 13 37 41 48 55 14 0 0 0 0 0 0 0 0 0 0
0 2 83 0 85 87 37 14 17 116 347 329 708 665 394 258 132 13 1 0 0 0 0 10 3 23 84 36 5 0 0 0 0 30 165 174 67 6 0 0 0 0 0 0 0 0 0 0 0
21 111 175 165 156 69 17 22 9 124 444 263 209 166 53 79 31 3 3 3 0 0 0 0 0 10 88 15 0 0 0 8 22 89 193 74 0 0 0 0 0 0 0 0 0 0 0 0 0
36 136 117 134 131 65 39 78 55 248 427 250 169 55 112 100 78 10 3 2 0 0 0 0 0 59 121 21 0 0 5 14 37 96 95 0 0 0 0 0 0 0 0 0 0 0 0 0 0
62 45 83 65 66 29 39 40 55 244 53 84 68 55 30 53 64 26 26 6 6 0 0 0 15 95 132 0 0 0 27 152 144 85 23 0 0 0 0 0 0 0 0 0 0 0 0 0 0
0 17 26 20 27 17 4 23 35 290 30 3 61 40 75 112 47 35 17 0 0 0 2 7 104 97 85 0 0 3 82 116 48 15 4 0 0 0 0 0 0 0 0 0 0 0 0 0 0
0 0 3 4 0 0 1 3 58 183 182 40 62 67 153 124 45 11 1 5 2 1 15 37 86 107 6 0 0 15 41 13 0 0 0 0 0 0 0 0 0 0 0 0 0 0 0 0 0
0 0 0 0 0 0 0 2 33 139 218 125 134 107 84 154 95 41 22 9 0 0 0 4 35 35 0 0 0 1 24 3 0 0 0 0 0 0 0 0 0 0 0 0 0 0 0 0 0
0 0 0 0 0 0 0 0 0 114 163 189 168 197 164 134 188 93 71 90 23 2 1 1 19 18 1 0 0 0 0 1 0 0 0 0 0 0 0 0 0 0 0 0 0 0 0 0 0
0 0 0 0 0 0 0 0 0 9 120 264 268 266 281 247 142 185 130 147 119 120 68 74 83 61 42 0 0 0 0 0 0 0 0 0 0 0 0 0 0 0 0 0 0 0 0 0 0
0 0 0 0 0 0 0 0 0 0 13 156 280 346 371 337 262 181 113 146 174 106 54 110 47 19 7 0 0 0 0 0 0 0 0 0 0 0 0 0 0 0 0 0 0 0 0 0 0
0 0 0 0 0 0 0 0 0 0 0 1 86 246 315 377 356 198 71 44 115 66 29 26 33 16 0 0 0 0 0 0 0 0 0 0 0 0 0 0 0 0 0 0 0 0 0 0 0
0 0 0 0 0 0 0 0 0 0 0 0 0 42 197 247 356 361 137 21 17 2 26 13 16 16 0 0 0 0 0 0 0 0 0 0 0 0 0 0 0 0 0 0 0 0 0 0 0
0 0 0 0 0 0 0 0 0 0 0 0 0 0 9 124 224 308 209 93 11 0 8 28 24 15 0 0 0 1 0 0 0 0 0 0 0 0 0 0 0 0 0 0 0 0 0 0 0
0 0 0 0 0 0 0 0 0 0 0 0 0 0 0 0 48 129 185 159 57 0 0 14 29 51 17 0 1 2 0 0 0 0 0 0 0 0 0 0 0 0 0 0 0 0 0 0 0
0 0 0 0 0 0 0 0 0 0 0 0 0 1 0 0 0 1 12 92 84 13 0 2 41 50 12 13 12 2 0 0 0 0 0 0 0 0 0 0 0 0 0 0 0 0 0 0 0
0 0 0 0 0 0 0 0 0 0 0 0 0 1 3 0 0 0 1 81 107 65 46 57 72 74 4 3 2 0 0 0 0 0 0 0 0 0 0 0 0 0 0 0 0 0 0 0 0
0 0 0 0 0 0 0 0 0 0 0 0 0 0 0 0 0 0 36 71 139 177 145 113 81 37 0 0 1 0 0 0 0 0 0 0 0 0 0 0 0 0 0 0 0 0 0 0 0
0 0 0 0 0 0 0 0 0 0 0 0 0 0 0 0 5 59 154 230 241 224 176 90 38 0 0 0 0 0 0 0 0 0 0 0 0 0 0 0 0 0 0 0 0 0 0 0 0

GFSSGP_con_mlcape_072.txt.gz
CAPE
0 0 0 0 0 0 0 0 0 0 37 22 270 1135 1280 1334 925 726 1174 930 1240 1028 354 546 761 835 795 700 568 484 446 410 309 122 5 0 0 0 0 0 0 0 0 63 205 370 278 223 165
0 0 0 0 0 0 4 0 29 206 279 733 606 971 940 1012 1506 1124 1093 1113 1409 973 405 389 651 748 688 577 534 536 468 293 148 31 0 0 0 0 0 0 0 20 220 267 221 317 318 211 80
0 0 0 0 0 0 3 0 0 608 586 959 183 628 984 1363 1319 1207 1108 1357 1487 982 425 474 489 552 551 604 650 537 296 167 113 12 0 0 8 6 0 0 0 115 331 386 383 330 335 174 6
0 0 0 0 0 0 0 0 490 1168 888 1053 1058 132 1253 1283 1675 1048 1160 1535 1394 1026 703 594 528 551 601 687 575 321 147 127 76 13 11 31 22 8 7 4 27 204 337 284 382 345 256 64 0
0 0 0 0 0 0 0 4 412 1063 1089 1077 827 592 367 986 1438 1180 1474 1557 1284 1020 862 614 517 513 642 642 475 271 132 123 52 28 54 59 55 38 13 5 17 51 181 138 181 266 159 9 0
0 0 0 0 0 0 0 93 634 1018 1002 1051 996 541 57 847 1454 1441 1597 1487 1220 872 828 627 450 540 720 673 403 145 104 75 47 58 96 102 78 53 13 4 2 0 0 19 44 114 27 0 0
0 0 0 0 0 33 13 728 917 899 800 989 988 1018 1364 1318 1415 1586 1559 1116 834 627 683 633 447 516 413 369 314 177 113 69 58 98 99 58 42 9 2 0 0 0 0 0 2 1 0 0 0
0 0 0 0 11 50 149 860 981 910 834 918 852 853 1162 1287 1226 1229 1180 888 835 364 317 145 69 64 27 127 194 195 130 87 55 45 18 8 0 0 2 0 0 0 0 0 0 0 0 0 0
0 0 0 0 28 5 288 654 904 800 863 880 1022 950 1337 1265 1024 1101 829 528 306 201 88 2 1 1 20 48 127 144 112 64 52 1 0 0 1 1 4 9 7 4 0 0 0 0 0 0 0
0 0 0 0 0 0 109 630 786 747 728 816 907 1070 1405 1146 941 718 545 423 270 70 2 1 0 0 7 52 84 167 104 37 31 13 6 1 9 10 4 9 0 0 0 0 0 0 0 0 0
0 0 0 0 0 0 131 542 552 465 321 452 791 1129 1103 1176 851 701 380 212 135 4 3 3 3 0 0 0 0 35 57 105 60 37 12 47 60 24 24 0 0 0 0 0 0 0 0 0 0
1 0 0 0 60 315 451 440 393 378 550 581 528 1034 979 848 641 361 158 26 0 4 6 2 0 0 0 0 0 2 75 121 91 92 97 124 109 164 229 60 0 0 0 0 0 0 0 0 0
0 8 150 34 243 435 178 226 291 356 593 699 630 944 543 426 288 39 4 3 2 1 1 0 0 4 34 66 103 79 82 95 117 207 221 237 312 330 207 0 0 0 0 0 0 0 0 0 0
53 149 345 419 456 270 119 183 217 559 456 394 372 348 414 347 84 3 3 2 1 0 0 0 0 0 0 0 75 91 79 92 170 295 433 521 444 248 0 0 0 0 0 0 0 0 0 0 0
121 188 236 305 332 188 122 281 280 446 495 467 382 122 55 162 11 1 3 4 2 3 0 4 15 45 101 116 86 54 79 92 225 411 516 220 78 0 0 0 0 0 0 0 0 0 0 0 0
111 135 123 145 154 119 104 102 322 439 509 309 236 167 21 128 14 5 0 18 8 12 32 91 25 187 221 124 40 29 91 262 409 490 525 206 52 2 0 0 0 0 0 0 0 0 0 0 0
54 52 32 48 45 68 55 46 353 356 62 68 116 74 86 77 17 136 116 8 51 0 1 0 54 293 288 240 31 43 225 434 491 497 519 323 55 0 0 0 0 0 0 0 0 0 0 0 0
35 15 10 22 19 5 24 38 172 517 238 95 62 116 216 162 130 108 130 156 78 0 0 3 173 233 364 244 115 180 331 499 415 464 398 110 5 0 0 0 0 0 0 0 0 0 0 0 0
0 12 29 33 1 0 11 30 72 491 416 186 159 120 308 182 142 74 98 61 33 5 8 132 335 472 422 177 10 48 150 281 250 251 145 2 0 0 0 0 0 0 0 0 0 0 0 0 0
1 10 14 11 0 0 18 27 31 308 448 444 307 231 146 261 131 125 102 123 81 70 116 189 310 439 423 76 27 186 351 177 281 210 1 0 0 0 0 0 0 0 0 0 0 0 0 0 0
0 2 0 0 0 0 0 25 35 73 341 458 434 407 334 167 214 136 121 117 112 72 85 141 277 354 402 288 68 229 314 126 105 35 0 0 0 0 0 0 0 0 0 0 0 0 0 0 0
4 0 0 0 0 37 0 19 10 41 107 233 422 551 477 420 213 267 157 165 221 206 125 139 213 362 484 433 205 79 90 141 70 2 0 0 0 0 0 0 0 0 0 0 0 0 0 0 0
2 0 0 0 0 0 0 0 31 8 36 51 191 424 653 660 489 256 288 258 230 246 315 406 403 499 534 483 339 236 219 173 1 0 0 0 0 0 0 0 0 0 0 0 0 0 0 0 0
0 0 0 0 0 1 2 1 36 26 16 52 75 93 420 667 770 689 400 292 301 401 480 400 383 379 384 323 335 287 247 23 0 0 0 0 0 0 0 0 0 0 0 0 0 0 0 0 0
0 3 26 9 1 8 0 1 22 0 5 2 5 24 80 295 638 830 745 544 330 389 494 450 432 380 392 320 291 149 156 34 0 0 0 0 0 0 0 0 0 0 0 0 0 0 0 0 0
0 5 23 2 3 9 0 0 1 0 1 0 23 40 9 76 225 630 853 796 478 380 395 413 449 452 402 365 271 134 139 92 11 0 0 0 0 0 0 0 0 0 0 0 0 0 0 0 0
0 0 0 0 0 0 0 0 0 0 0 8 82 141 235 35 91 264 577 844 680 501 434 404 369 437 408 297 278 233 157 52 4 0 0 0 0 0 0 0 0 0 0 0 0 0 0 0 0
1 1 0 0 0 0 0 0 0 0 0 0 0 0 253 24 26 138 272 528 665 702 621 496 452 425 407 367 250 101 127 98 0 0 1 1 1 0 0 0 0 0 0 0 0 0 0 0 0
0 0 0 8 0 2 0 1 0 0 0 0 0 13 12 224 97 58 159 291 476 660 665 589 522 476 571 423 200 88 115 11 2 0 1 0 0 0 0 0 0 0 0 0 0 0 0 0 0
8 22 37 4 13 0 0 0 0 0 0 0 0 0 7 9 358 304 351 404 453 652 693 618 620 621 592 430 205 125 6 0 0 0 0 0 0 0 0 0 0 0 0 0 0 0 0 0 0

GFSSGP_con_mlcape_075.txt.gz
CAPE
0 0 0 0 0 0 0 8 12 0 0 94 13 0 263 428 466 337 1468 1450 1582 892 747 1137 1293 1189 1079 920 786 676 595 557 324 63 0 0 0 0 0 0 0 172 438 452 376 266 247 80 0
0 0 0 0 0 1 2 1 0 5 144 307 101 4 60 90 0 360 1577 1516 1645 913 772 1150 1229 1199 1118 965 835 699 593 428 188 3 0 0 0 0 0 0 7 137 295 532 420 326 205 31 0
0 0 0 9 7 14 6 0 1 133 469 679 334 156 341 1010 940 1426 1551 1740 1666 940 743 1118 1160 1102 1037 929 758 637 474 257 24 0 6 7 0 0 16 37 209 389 338 429 462 364 205 17 0
0 0 0 0 1 3 0 0 29 277 320 392 618 64 259 1379 1599 1674 1433 1766 1685 859 682 885 993 999 966 814 647 486 320 56 9 17 31 10 6 45 22 119 373 430 564 480 548 379 71 0 0
0 0 0 15 10 4 3 34 200 211 230 446 780 360 270 523 39 1187 1363 1431 1372 705 739 739 900 920 770 664 531 338 138 15 15 40 24 43 60 49 66 138 302 314 546 593 464 221 0 0 0
0 0 0 1 4 0 44 30 0 530 414 795 781 323 5 0 0 249 1469 1383 1151 600 695 570 726 720 709 630 413 189 44 36 60 69 72 68 63 64 78 77 114 175 328 396 265 76 0 0 0
0 9 16 6 4 61 117 551 612 558 279 109 777 690 465 362 0 294 1151 1158 799 515 153 518 618 579 708 438 218 110 53 74 92 69 59 59 55 63 50 14 33 64 99 161 98 2 0 0 0
0 0 3 13 8 25 171 532 747 887 668 838 912 463 512 1276 1404 1057 1141 723 499 39 195 290 202 203 296 70 70 146 120 144 146 87 56 20 40 25 9 0 10 12 54 71 7 0 0 0 0
0 0 1 7 26 4 79 315 1043 904 643 685 897 1024 1605 1590 1568 1184 853 440 171 41 72 71 10 10 0 0 174 181 191 179 95 57 24 1 12 6 63 56 27 10 0 0 0 0 0 0 0
0 9 7 0 0 1 0 185 500 540 604 532 881 1191 1631 1467 1389 813 675 418 212 111 11 3 2 0 0 18 82 143 104 84 33 24 7 5 12 61 74 63 16 0 0 0 0 0 0 0 0
5 0 0 0 0 4 11 229 477 415 191 435 385 1078 1446 1401 1135 701 405 154 52 9 4 4 0 0 0 16 3 79 86 51 28 32 47 52 105 86 85 30 0 0 0 0 0 0 0 0 0
0 5 3 5 6 107 220 260 209 237 359 459 379 841 1338 1306 845 423 195 71 2 3 3 3 1 1 4 9 0 8 53 59 58 77 141 251 178 201 103 43 1 0 0 0 0 0 0 0 0
0 1 10 77 36 294 174 145 126 157 496 837 763 742 899 738 248 128 23 3 3 3 5 7 5 4 0 0 0 0 0 35 88 167 227 256 239 312 270 188 21 0 0 0 0 0 0 0 0
23 3 55 107 173 247 80 146 112 731 621 574 621 560 370 198 34 4 1 1 1 1 0 0 10 4 4 11 7 8 92 158 189 237 314 391 338 308 307 132 25 0 0 0 0 0 0 0 0
38 8 12 67 99 124 121 50 1 415 438 588 440 251 97 162 16 2 4 2 0 0 0 0 0 0 0 0 0 0 90 180 191 278 526 514 397 393 215 86 19 3 0 0 0 0 0 0 0
23 24 24 5 69 84 43 13 7 498 440 272 286 147 81 85 7 5 3 3 2 1 0 0 0 0 0 0 3 12 88 171 274 402 468 539 452 341 284 141 17 0 0 0 0 0 0 0 0
35 14 7 51 10 32 23 19 188 403 323 230 248 16 33 51 1 1 2 0 2 9 2 0 0 0 13 86 70 65 147 246 276 361 360 476 393 319 196 80 0 0 0 0 0 0 0 0 0
42 29 31 3 0 23 18 22 50 380 229 146 160 75 0 0 45 49 18 1 38 36 14 19 27 38 103 197 109 108 173 258 366 469 452 469 392 251 136 11 0 0 0 0 0 0 0 0 0
14 6 45 47 16 0 14 23 13 360 373 293 80 243 56 0 78 90 62 48 13 5 2 1 52 62 215 314 157 62 85 326 449 464 556 510 330 203 106 1 0 0 0 0 0 0 0 0 0
1 8 21 40 16 0 4 24 5 132 285 391 295 125 226 102 80 77 87 99 10 0 0 0 89 280 346 226 53 3 79 365 494 459 414 229 3 1 68 1 0 0 0 0 0 0 0 0 0
7 16 22 28 7 0 0 2 20 63 295 398 446 236 242 189 137 86 142 144 98 6 0 38 196 367 495 239 16 43 173 272 351 302 273 93 6 25 14 0 0 0 0 0 0 0 0 0 0
14 8 0 3 0 2 8 1 2 23 87 275 377 421 239 254 142 132 166 170 143 128 152 230 353 451 555 557 102 126 317 320 295 325 147 0 0 0 0 0 0 0 0 0 0 0 0 0 0
13 0 0 3 11 23 32 0 6 2 16 63 188 441 416 290 270 178 173 160 201 197 193 225 344 397 483 565 533 234 257 211 277 210 17 0 0 0 0 0 0 0 0 0 0 0 0 0 0
2 0 0 10 17 30 8 9 7 0 0 4 36 175 384 481 347 280 270 187 197 326 371 380 343 384 498 712 649 511 374 328 305 98 0 0 0 0 0 0 0 0 0 0 0 0 0 0 0
0 6 41 33 57 16 31 2 9 11 0 0 0 30 132 345 590 477 276 310 266 325 441 514 556 550 592 837 770 750 650 504 231 33 1 0 0 0 0 0 0 0 0 0 0 0 0 0 0
0 25 65 45 53 96 2 0 0 0 0 0 0 2 13 112 376 684 747 432 326 411 564 656 682 632 577 620 674 675 746 572 265 45 4 0 0 1 2 0 1 0 0 0 0 0 0 0 0
25 11 37 64 24 27 63 57 39 1 0 0 1 48 90 184 136 323 672 879 752 533 547 824 837 680 638 667 750 759 575 458 357 187 29 0 0 1 0 0 1 0 0 0 0 0 0 0 0
1 15 16 14 11 21 43 40 60 3 0 0 0 0 171 201 197 226 381 689 986 959 698 914 821 677 702 725 829 623 467 452 432 198 33 0 0 3 0 0 0 0 0 0 0 0 0 0 0
0 5 26 48 22 32 43 47 7 0 0 0 0 0 0 93 229 260 400 547 797 1117 1014 949 814 631 621 794 790 489 308 342 225 63 4 2 0 0 0 0 0 0 0 0 0 0 0 0 2
21 0 23 29 22 29 12 6 13 0 2 1 0 0 0 5 122 278 358 397 578 955 1098 1157 1059 791 691 790 850 340 191 100 1 0 0 0 0 0 0 0 0 2 0 0 0 0 0 0 0

GFSSGP_con_mlcape_078.txt.gz
CAPE
0 0 0 0 0 0 0 0 3 0 0 8 14 1 0 114 273 291 0 0 115 991 1251 1489 1358 1099 939 771 642 548 646 423 142 10 0 0 0 0 0 133 321 353 382 269 208 119 0 0 0
0 0 0 0 0 0 0 0 0 2 140 130 68 61 13 97 56 38 0 0 0 988 1382 1594 1383 1164 1069 901 789 770 695 332 61 0 0 0 0 6 86 238 402 461 381 237 235 92 0 0 0
0 0 0 0 0 0 0 0 0 0 220 190 19 25 24 297 273 349 423 10 122 814 1403 1604 1229 1068 966 936 799 794 645 206 8 1 0 1 16 77 114 185 327 557 500 336 271 35 0 0 0
0 0 0 0 0 0 0 0 0 15 105 23 133 94 739 850 85 0 0 592 902 805 1343 1181 1049 1026 841 724 708 683 352 57 5 5 2 18 70 86 207 395 403 509 576 446 244 2 0 0 0
0 0 0 0 0 0 13 12 8 0 86 12 0 0 478 751 405 430 1082 1414 884 746 1035 933 892 947 794 787 636 444 176 57 46 22 21 76 84 179 403 412 578 601 655 446 127 0 0 0 0
0 0 0 6 12 1 7 1 246 118 90 0 0 15 61 269 46 79 1309 1289 958 606 816 813 853 814 814 730 548 323 110 74 61 38 69 64 59 160 246 255 567 692 493 293 50 0 0 0 0
0 0 0 4 2 25 0 1 217 182 37 0 0 82 159 453 243 689 1160 903 237 31 597 797 647 615 538 478 339 116 71 69 61 59 42 38 35 80 120 171 426 471 309 156 17 0 0 0 0
0 0 0 0 2 0 1 31 191 557 404 128 10 121 0 301 1288 816 537 181 2 0 0 62 311 365 283 206 99 77 88 85 65 53 22 23 20 35 84 119 181 217 194 98 4 0 0 0 0
0 0 0 2 4 0 0 0 9 440 385 140 168 334 677 1484 1154 662 209 179 2 0 1 0 7 10 37 54 58 84 87 82 51 29 11 4 5 46 67 81 115 137 137 28 0 0 0 0 0
0 0 0 0 0 0 0 0 8 203 64 18 0 362 1301 1311 928 620 354 80 109 23 21 1 0 3 4 10 30 40 73 53 36 15 17 13 95 96 65 38 25 30 9 0 0 0 0 0 0
0 0 0 0 0 0 0 47 47 131 152 102 27 449 1089 1142 716 547 354 144 7 1 1 2 1 0 0 0 0 9 3 17 11 2 29 79 109 128 51 10 4 0 0 0 0 0 0 0 0
0 0 0 0 4 0 0 46 101 181 574 451 664 1196 1039 591 512 236 150 17 5 2 2 3 0 0 0 0 0 0 0 0 0 25 29 113 141 122 73 64 1 0 0 0 0 0 0 0 0
0 0 0 0 6 0 40 9 123 272 443 629 751 762 657 280 144 6 4 3 2 4 5 4 4 2 0 0 0 15 31 8 62 81 146 188 176 100 137 105 25 1 0 0 0 0 0 0 0
0 0 0 0 19 19 41 74 118 0 4 487 538 499 205 60 9 2 2 1 2 2 1 3 3 3 0 2 24 33 17 76 133 152 193 224 215 214 258 142 75 0 0 0 0 0 0 0 0
0 0 6 0 1 10 3 19 0 0 0 193 339 266 159 11 2 1 2 1 1 1 1 2 0 0 0 4 3 12 41 57 55 133 195 250 295 267 242 113 22 0 1 0 0 0 0 0 0
0 0 3 0 0 13 24 1 0 0 102 339 196 139 125 10 3 2 2 1 2 1 0 0 0 0 0 0 0 0 0 36 92 30 115 77 190 317 238 93 17 29 0 0 0 0 0 0 0
0 0 7 14 19 4 6 12 0 0 43 255 18 75 62 3 2 2 2 2 0 1 0 0 0 0 0 0 0 0 0 51 39 83 84 113 238 343 280 187 90 0 0 0 0 0 0 0 0
0 6 32 3 19 16 19 6 15 148 89 231 0 4 1 0 3 1 0 0 0 0 0 0 0 0 0 0 0 2 79 76 80 94 166 219 349 387 190 128 0 0 0 0 0 0 0 0 0
2 0 0 27 6 2 8 0 0 187 148 129 0 0 0 0 5 2 1 0 1 0 0 0 0 0 0 0 0 47 20 84 27 2 107 241 358 351 233 47 0 0 0 0 0 0 0 0 0
0 0 0 12 18 0 0 0 11 100 166 256 169 0 0 54 24 32 38 23 4 0 0 0 0 0 0 5 72 5 48 53 29 105 222 285 328 308 205 40 0 0 0 0 0 0 0 0 0
0 0 2 17 14 19 5 0 0 1 46 359 169 199 12 23 67 19 17 51 35 4 5 3 5 0 43 44 162 3 84 84 130 182 283 298 134 60 74 79 1 0 0 0 0 0 0 0 0
1 0 11 0 2 15 0 0 0 2 19 180 425 177 199 74 91 93 50 25 9 8 11 6 2 124 269 266 55 0 10 108 181 220 260 218 79 8 49 51 0 0 0 0 0 0 0 0 0
0 2 0 0 0 7 2 15 0 9 19 78 257 452 195 205 156 74 126 192 120 0 0 0 24 189 314 378 304 6 128 148 238 283 267 63 0 0 3 0 0 0 0 0 0 0 0 0 0
0 0 0 0 0 1 20 8 0 0 7 21 78 301 371 232 186 148 157 178 177 169 64 59 235 354 396 467 384 220 297 230 287 292 173 29 0 0 0 0 0 0 0 0 0 0 0 0 0
0 0 1 2 12 13 8 25 78 3 1 1 1 35 353 404 267 132 159 191 236 221 256 338 307 272 509 516 630 434 385 272 306 263 65 0 0 0 0 0 0 0 0 0 0 0 0 0 0
0 0 5 2 0 20 1 23 4 11 0 0 0 0 138 313 525 386 202 188 226 272 369 329 367 335 392 754 757 583 772 463 508 308 49 0 0 0 0 0 0 0 0 0 0 0 0 0 0
3 0 0 13 5 32 41 3 111 24 0 0 0 0 1 12 290 623 565 366 218 265 445 554 631 606 603 917 967 810 699 890 596 203 75 35 0 0 0 0 0 0 0 0 0 0 0 0 0
0 2 20 21 5 0 0 31 10 0 0 0 0 0 64 235 175 186 648 761 391 352 424 665 744 705 825 799 890 1004 698 825 647 338 169 83 2 0 0 0 0 0 0 0 0 0 0 0 0
0 0 31 25 18 19 3 38 0 0 0 0 4 1 0 2 172 183 268 458 1023 654 632 812 907 958 969 848 896 941 914 704 522 445 179 28 0 0 0 0 0 0 0 0 0 0 0 0 0
1 0 9 36 15 18 31 21 8 0 0 0 1 0 0 0 6 107 256 385 640 1197 882 865 1010 1024 964 861 965 948 680 490 338 122 10 0 0 0 0 0 0 0 0 0 0 0 0 0 0

GFSSGP_con_mlcape_081.txt.gz
CAPE
0 0 0 0 0 0 0 0 0 0 46 78 19 80 166 323 227 74 38 124 365 453 26 1585 1266 1005 853 739 679 565 488 445 268 58 1 0 0 48 296 341 295 280 136 0 0 0 0 0 0
0 0 0 0 0 0 0 0 0 42 15 59 53 88 195 143 236 166 140 153 243 371 76 625 1323 1186 1104 934 849 797 693 453 206 12 0 0 1 129 368 271 304 218 127 0 0 0 0 0 0
0 0 0 0 0 0 0 2 0 41 0 3 23 26 583 567 451 653 214 132 13 86 40 0 971 950 1101 980 855 701 472 240 43 0 0 3 101 361 364 420 342 191 133 0 0 0 0 0 0
0 0 0 0 0 0 5 97 72 44 34 0 0 8 70 233 453 140 2 0 0 0 0 0 614 691 947 935 868 579 306 138 20 0 36 86 192 352 450 565 433 348 217 31 0 0 0 0 0
0 0 0 0 0 0 27 16 53 23 15 0 0 0 0 56 181 132 566 328 2 12 11 26 638 649 935 907 775 482 249 74 7 32 63 116 275 344 379 590 568 388 207 0 0 0 0 0 0
0 0 0 0 0 1 19 41 156 72 0 6 0 0 0 2 12 460 825 479 85 3 247 258 390 637 865 839 587 321 162 47 46 80 116 330 348 411 440 589 566 343 71 0 0 0 0 0 0
0 0 0 0 0 3 10 105 101 90 93 3 0 0 14 23 390 448 365 197 30 0 0 0 557 416 595 491 338 210 153 76 72 5 44 175 319 475 639 700 501 194 22 0 0 0 0 0 0
0 0 0 0 0 3 3 0 26 206 82 0 0 2 2 36 565 362 111 7 1 0 44 0 2 316 281 218 173 109 60 25 5 0 11 94 100 329 609 581 314 148 38 0 0 0 0 0 0
0 0 0 0 0 0 0 1 36 183 128 10 21 0 0 642 285 238 78 16 0 0 0 0 1 53 123 97 110 32 2 0 0 0 0 8 21 88 233 322 196 145 67 0 0 0 0 0 0
0 0 0 0 0 0 0 10 9 79 41 1 0 8 48 613 452 283 138 41 0 0 0 14 85 65 54 41 6 0 0 0 0 0 0 1 18 54 120 155 149 123 34 0 0 0 0 0 0
0 0 0 0 0 3 0 11 272 254 153 260 111 272 754 680 370 261 80 15 22 2 3 1 8 32 11 27 0 0 0 0 0 0 12 22 30 55 47 78 78 43 4 0 0 0 0 0 0
0 0 0 0 0 13 1 13 165 277 434 448 718 757 666 464 299 172 68 4 0 0 1 1 1 0 0 0 0 0 0 0 0 0 31 61 16 21 8 5 7 1 0 0 0 0 0 0 0
0 0 0 0 5 23 16 28 47 3 15 505 590 400 357 209 127 39 1 2 3 2 2 1 0 0 0 0 0 0 0 0 0 2 103 88 40 51 36 4 2 0 0 0 0 0 0 0 0
0 0 0 0 0 0 21 21 15 0 7 462 472 224 99 30 21 1 1 2 2 3 3 1 1 0 0 0 0 0 0 0 31 61 104 102 84 111 96 23 14 1 0 0 0 0 0 0 0
0 0 0 0 0 0 0 0 4 0 0 355 375 206 58 2 3 4 2 2 1 2 3 0 0 0 0 0 0 0 1 78 63 70 62 106 187 165 179 81 51 17 0 0 0 0 0 0 0
0 0 0 0 2 7 0 0 6 0 72 314 274 189 10 3 4 4 3 2 2 2 2 1 1 0 0 0 0 0 24 18 9 8 13 64 245 191 189 107 2 0 0 0 0 0 0 0 0
0 0 0 0 0 1 0 0 0 0 3 38 19 76 6 4 2 2 1 3 2 0 0 0 0 0 0 0 5 16 0 0 0 13 55 23 79 205 147 60 0 0 0 0 0 0 0 0 0
0 0 0 0 0 0 2 0 0 0 8 32 0 0 0 1 1 3 2 2 1 0 0 0 0 0 0 0 0 0 0 0 0 4 30 0 0 42 144 63 4 0 0 0 0 0 0 0 0
0 0 0 0 1 0 3 0 8 24 18 0 0 0 0 0 2 0 1 0 0 1 0 0 0 0 0 0 0 0 0 0 0 0 4 10 19 54 91 96 0 0 0 0 0 0 0 0 0
0 0 0 0 0 0 0 0 0 15 10 4 0 0 0 0 1 1 0 0 0 0 0 0 0 0 0 0 0 0 0 1 11 0 0 0 31 72 72 10 0 0 0 0 0 0 0 0 0
0 0 0 0 0 0 0 0 0 4 0 0 0 0 0 0 0 0 0 0 0 0 0 0 0 0 0 0 0 0 0 5 0 0 0 2 86 132 119 4 0 0 0 0 0 0 0 0 0
0 0 0 2 0 0 0 0 0 0 54 10 4 7 49 1 0 0 0 0 0 0 0 0 0 0 0 0 0 0 0 0 0 0 0 55 111 78 58 39 0 0 0 0 0 0 0 0 0
0 0 1 0 0 0 0 0 0 0 0 120 108 1 18 38 0 0 0 0 0 0 0 0 0 0 0 0 0 0 0 0 18 41 43 126 51 42 32 3 0 0 0 0 0 0 0 0 0
0 0 0 1 0 0 0 0 0 0 0 0 134 70 5 48 14 0 0 0 0 0 0 0 0 0 0 5 16 27 0 3 35 71 64 72 47 20 0 0 0 0 0 0 0 0 0 0 0
0 0 0 0 0 0 4 0 0 1 0 0 105 117 70 29 48 9 0 0 0 0 0 0 0 0 28 85 74 119 18 0 52 97 107 57 32 7 0 0 0 0 0 0 0 0 0 0 0
0 0 0 0 0 0 4 15 8 1 0 1 9 165 101 69 50 29 22 17 6 1 0 0 0 0 54 132 178 165 122 50 73 152 144 90 19 3 0 0 0 0 0 0 0 0 0 0 0
0 0 0 4 3 1 6 1 0 0 0 0 0 0 123 131 67 59 35 51 117 93 21 0 0 0 85 237 325 315 185 120 230 203 97 45 8 0 0 0 0 0 0 0 0 0 0 0 0
0 0 5 18 6 0 0 13 14 0 0 0 0 0 31 86 123 56 41 57 92 90 93 122 96 171 137 122 352 462 446 358 226 191 133 65 8 0 0 0 0 0 0 0 0 0 0 0 0
0 0 2 7 12 10 0 0 0 0 0 0 0 0 0 0 47 68 109 51 46 105 108 165 155 185 265 191 471 689 590 422 417 365 100 71 5 0 0 0 0 0 0 0 0 0 0 0 0
0 0 0 0 15 32 16 2 0 0 0 0 0 0 0 0 4 15 41 89 92 85 95 206 292 269 378 375 512 825 725 508 388 363 134 7 0 0 0 0 0 0 0 0 0 0 0 0 0

GFSSGP_con_mlcape_084.txt.gz
CAPE
0 0 0 0 0 0 0 0 0 1 43 25 2 139 236 268 294 338 191 495 697 1200 1808 1451 1336 913 751 757 658 586 527 260 119 100 134 293 383 494 412 348 113 0 0 0 0 0 0 0 0
0 0 0 0 0 0 0 0 0 0 2 2 18 166 352 307 360 273 164 289 565 668 1373 1311 1220 1178 1044 836 638 655 438 169 121 85 150 310 584 528 553 431 79 0 0 0 0 0 0 0 0
0 0 0 0 0 0 0 0 0 13 2 0 0 31 422 354 621 709 404 233 614 561 741 1175 831 665 909 927 784 600 301 139 92 80 164 389 699 542 582 333 15 0 0 0 0 0 0 0 0
0 0 0 0 0 0 0 0 9 62 37 1 0 0 1 41 560 357 316 179 270 292 319 221 906 83 414 1012 787 548 260 128 70 118 252 519 691 666 453 343 11 0 0 0 0 0 0 0 0
0 0 0 0 0 0 0 0 11 60 30 29 2 3 0 46 50 678 217 184 165 153 130 59 517 929 758 908 716 434 214 86 49 122 286 726 898 700 567 400 26 0 0 0 0 0 0 0 0
0 0 0 0 0 0 0 2 123 65 18 15 3 3 69 102 510 420 572 258 269 180 277 87 59 446 416 949 547 317 151 74 126 129 336 676 854 891 782 471 27 0 0 0 0 0 0 0 0
0 0 0 0 0 0 0 10 83 54 29 8 0 0 0 130 437 301 196 91 116 23 25 40 0 132 189 555 399 153 102 79 80 217 446 667 758 867 739 385 0 0 0 0 0 0 0 0 0
0 0 0 0 0 0 0 5 26 143 52 0 1 1 0 0 355 58 111 4 44 19 1 0 0 0 129 318 148 9 81 88 117 151 150 432 690 801 581 218 0 0 0 0 0 0 0 0 0
0 0 0 0 0 0 0 1 108 58 36 9 32 0 0 183 338 270 98 0 0 0 0 0 0 8 17 119 40 35 71 30 21 39 134 382 616 657 413 82 0 0 0 0 0 0 0 0 0
0 0 0 0 0 0 0 0 23 120 60 57 12 0 0 44 223 210 108 25 0 0 0 25 32 34 38 87 60 81 4 0 0 2 0 28 192 338 276 106 55 10 0 0 0 0 0 0 0
0 0 0 0 0 0 0 1 159 48 79 249 177 171 4 520 299 157 77 1 0 0 0 63 25 2 6 56 73 0 0 0 0 0 0 11 82 122 101 125 64 10 0 0 0 0 0 0 0
0 0 0 0 0 1 0 8 38 152 249 542 524 441 631 389 209 111 56 1 2 1 2 8 8 5 16 8 3 0 0 0 0 0 0 0 2 34 40 57 30 0 0 0 0 0 0 0 0
0 0 0 0 0 0 0 0 12 79 224 585 355 365 348 190 24 7 3 1 1 0 0 0 0 0 0 1 0 0 0 0 1 0 0 0 3 14 42 34 0 0 0 0 0 0 0 0 0
0 0 0 0 0 0 0 0 0 0 197 463 221 30 27 74 25 2 2 1 1 1 1 2 0 0 0 0 0 0 0 0 0 0 0 0 0 4 2 0 0 0 0 0 0 0 0 0 0
0 0 0 0 0 0 0 0 0 0 24 371 238 51 3 0 8 12 11 2 0 2 3 2 0 0 0 0 0 0 0 0 0 8 4 3 8 7 3 0 0 0 0 0 0 0 0 0 0
0 0 0 0 0 0 0 0 0 0 1 214 210 58 0 2 1 1 2 2 1 2 3 2 1 0 0 0 0 0 0 7 20 56 63 33 50 57 2 3 15 0 0 0 0 0 0 0 0
0 0 0 0 0 0 0 0 0 0 0 138 168 42 0 0 0 2 2 2 2 0 1 3 1 0 0 0 0 0 0 0 0 14 39 59 81 110 55 30 2 1 0 0 0 0 0 0 0
0 0 0 0 0 0 0 0 0 0 0 41 61 15 0 0 0 2 2 2 3 1 1 1 1 0 0 0 0 0 0 0 0 0 0 53 28 93 62 38 0 0 0 0 0 0 0 0 0
0 0 0 0 0 3 0 0 0 0 0 20 37 0 0 0 2 2 3 2 3 2 1 1 0 0 0 0 0 0 0 0 0 1 1 35 0 55 106 60 1 0 0 0 0 0 0 0 0
0 0 0 0 0 0 0 0 0 0 0 11 4 0 0 0 3 3 0 1 1 1 1 1 0 0 0 0 0 0 0 0 0 0 0 0 0 0 25 38 14 0 0 0 0 0 0 0 0
0 0 0 0 0 0 0 0 0 0 1 0 0 0 0 0 0 0 0 0 0 0 0 0 0 0 0 0 0 0 0 0 0 0 0 0 0 0 12 22 7 0 0 0 0 0 0 0 0
0 0 0 0 0 0 0 0 0 0 0 0 0 0 0 0 0 0 0 0 0 0 0 0 0 0 0 0 0 0 0 0 0 0 0 0 0 0 11 20 0 0 0 0 0 0 0 0 0
0 0 0 0 0 0 0 0 0 0 0 0 0 0 0 0 0 0 0 0 0 0 0 0 0 0 0 0 0 0 0 0 0 0 0 0 0 0 7 26 0 0 0 0 0 0 0 0 0
0 0 0 0 0 0 0 0 0 0 0 0 0 0 0 0 0 0 0 0 0 0 0 0 0 0 0 0 0 0 0 0 0 0 0 0 0 0 1 29 4 0 0 0 0 0 0 0 0
0 0 0 0 0 0 0 0 0 0 0 0 4 0 0 0 0 0 0 0 0 0 0 0 0 0 0 0 0 0 0 0 0 0 6 0 0 3 30 13 1 0 0 0 0 0 0 0 0
0 0 0 0 0 0 0 0 0 0 0 0 25 41 0 11 0 0 0 0 0 0 0 0 0 0 0 0 0 0 0 0 0 5 9 5 0 1 13 3 0 0 0 0 0 0 0 0 0
0 0 0 0 0 0 0 0 0 0 0 0 0 3 11 0 29 3 0 0 0 0 0 0 0 0 0 0 1 16 22 14 4 21 23 17 4 8 0 0 0 0 0 0 0 0 0 0 0
0 0 0 3 1 0 0 0 0 0 0 0 0 2 17 42 10 22 5 0 0 0 0 0 0 0 0 0 12 44 112 74 43 13 14 33 13 0 0 0 0 0 0 0 0 0 0 0 0
0 0 10 10 0 0 0 0 0 0 0 0 0 0 0 36 37 23 25 15 2 0 0 0 0 0 0 0 0 52 130 140 82 66 29 19 4 0 0 0 0 0 0 0 0 0 0 0 0
0 0 0 0 0 0 0 0 0 0 0 0 0 0 0 4 31 67 53 15 0 4 0 0 0 0 0 0 0 46 168 229 205 81 12 0 1 0 0 0 0 0 0 0 0 0 0 0 0

GFSSGP_con_mlcape_087.txt.gz
CAPE
0 0 0 0 0 0 0 0 0 0 3 7 6 30 124 231 234 226 282 575 879 1710 1528 1311 901 982 1301 1135 653 718 858 194 496 491 610 598 541 317 51 0 0 0 0 1 4 3 1 0 0
0 0 0 0 0 0 0 0 0 0 0 0 0 17 349 319 339 341 271 310 1093 1306 1491 1388 892 807 1190 1120 849 730 864 950 898 831 741 663 532 271 66 0 1 0 2 4 7 8 9 4 0
0 0 0 0 0 0 0 0 0 0 1 0 0 25 132 52 712 732 484 557 1038 942 1335 1548 1145 585 649 673 1194 663 433 560 743 740 725 700 629 273 119 3 0 42 9 3 1 0 0 0 0
0 0 0 0 0 0 0 0 0 0 0 0 0 0 0 43 518 526 294 284 777 712 904 1383 1065 727 213 311 494 1085 425 456 514 651 846 742 699 359 124 23 7 38 0 0 0 0 0 0 0
0 0 0 0 0 0 0 0 0 0 0 8 8 17 33 72 180 349 338 190 544 455 447 970 572 206 205 225 156 555 707 376 319 718 856 862 732 285 87 11 1 0 0 0 0 0 0 0 0
0 0 0 0 0 0 0 0 0 3 1 22 29 36 104 136 403 437 648 173 120 194 251 351 585 463 296 117 172 152 403 328 358 681 822 838 615 350 89 1 0 0 0 0 0 0 0 0 0
0 0 0 0 0 0 0 0 1 31 70 96 12 24 56 205 423 363 280 119 73 99 110 52 54 465 359 270 375 152 154 243 137 867 915 729 601 371 47 0 0 0 0 0 0 0 0 0 0
0 0 0 0 0 0 0 0 0 40 119 0 19 63 3 6 318 94 98 71 73 37 49 2 1 128 306 258 185 93 70 244 358 767 803 666 677 356 4 0 0 0 0 0 0 0 0 1 0
0 0 0 0 0 0 0 0 17 38 38 7 84 22 5 404 177 103 26 26 31 12 4 1 0 0 153 205 82 101 47 492 410 652 605 572 585 300 0 0 0 0 0 0 0 0 0 0 0
0 0 0 0 0 0 0 0 16 24 24 51 46 73 0 195 289 256 172 10 6 1 2 14 16 30 0 149 110 78 67 105 342 457 665 604 464 151 0 0 0 0 0 0 0 0 0 0 0
0 0 0 0 0 0 0 0 6 0 0 140 147 252 7 406 382 246 101 38 0 0 5 107 26 4 1 0 23 12 34 111 91 232 315 226 272 64 0 0 0 0 0 0 0 0 0 0 0
0 0 0 0 0 0 0 0 0 0 31 387 464 193 263 501 379 221 55 9 0 0 2 1 0 12 3 66 67 5 23 62 56 45 68 112 118 23 0 0 0 0 0 0 0 0 0 0 0
0 0 0 0 0 0 0 0 0 0 258 436 364 325 388 166 107 41 31 4 1 0 0 0 0 1 2 1 0 0 7 40 37 33 48 58 49 5 12 1 0 0 0 0 0 0 0 0 0
0 0 0 0 0 0 0 0 0 0 152 254 165 66 58 21 2 8 18 16 1 0 0 0 0 3 4 4 0 4 5 1 3 39 48 28 20 23 26 4 0 0 0 0 0 0 0 0 0
0 0 0 0 0 0 0 0 0 0 33 228 109 43 20 7 2 6 7 18 2 0 0 0 0 0 0 1 0 0 0 2 5 5 16 31 11 29 21 7 0 0 0 0 0 0 0 0 0
0 0 0 0 0 0 0 0 0 0 15 41 62 25 5 2 1 1 0 1 1 1 1 1 0 0 0 0 0 0 0 0 13 28 13 5 17 12 9 1 0 0 0 0 0 0 0 0 0
0 0 0 0 0 0 0 0 0 0 0 4 49 32 0 0 0 1 1 1 1 2 2 3 2 0 0 0 0 0 0 4 45 33 2 16 4 11 4 0 0 0 0 0 0 0 0 0 0
0 0 0 0 0 0 0 0 0 0 0 0 22 13 0 0 0 1 1 1 2 2 1 2 2 0 0 0 0 5 0 0 12 38 35 51 55 40 0 0 0 0 0 0 0 0 0 0 0
0 0 0 0 0 0 0 0 0 0 0 0 0 5 0 0 0 0 2 1 1 2 1 1 1 0 0 0 0 0 0 0 0 5 38 30 51 109 72 10 8 0 0 0 0 0 0 0 0
0 0 0 0 0 0 0 0 0 0 0 0 0 1 2 0 0 0 3 2 2 1 1 1 0 0 0 0 0 0 0 0 0 6 2 18 22 56 63 31 4 0 0 0 0 0 0 0 0
0 0 0 0 0 0 0 0 0 0 0 0 0 0 0 0 0 0 3 3 1 0 1 0 0 0 0 0 0 0 0 0 0 0 2 6 28 2 9 41 0 0 0 0 0 0 0 0 0
0 0 0 0 0 0 0 0 0 0 0 0 0 0 0 0 0 0 0 0 2 1 0 0 0 0 0 0 0 0 0 0 0 0 0 0 0 0 0 1 0 0 0 0 0 0 0 0 0
0 0 0 0 0 0 0 0 0 0 0 0 0 0 0 0 0 0 0 0 0 0 0 0 0 0 0 0 0 0 0 0 0 0 0 0 0 0 0 0 0 0 0 0 0 0 0 0 0
0 0 0 0 0 0 0 0 0 0 0 0 0 0 0 0 0 0 0 0 0 0 0 0 0 0 0 0 0 0 0 0 0 0 0 0 0 0 0 0 0 0 0 0 0 0 0 0 0
0 0 0 0 0 0 0 0 0 0 0 0 0 0 0 0 0 0 0 0 0 0 0 0 0 0 0 0 0 0 0 0 0 0 0 0 0 0 0 0 0 0 0 0 0 0 0 0 0
0 0 0 0 0 0 0 0 0 0 0 0 0 0 0 0 0 0 0 0 0 0 0 0 0 0 0 0 0 0 0 0 0 0 0 0 0 0 0 0 0 0 0 0 0 0 0 0 0
0 0 0 0 0 0 0 0 0 0 0 0 0 0 0 0 0 0 0 0 0 0 0 0 0 0 0 0 0 0 0 0 0 0 0 0 0 0 0 0 0 0 0 0 0 0 0 0 0
0 0 0 0 0 0 0 0 0 0 0 0 0 0 0 0 0 0 0 0 0 0 0 0 0 0 0 0 0 0 0 0 0 0 0 0 2 0 0 0 0 0 0 0 0 0 0 0 0
0 0 0 0 0 0 0 0 0 0 0 0 0 0 0 0 0 0 1 0 0 0 0 0 0 0 0 0 0 0 0 0 0 0 0 0 4 1 0 0 0 0 0 0 0 0 0 0 0
0 0 0 0 0 0 0 0 0 0 0 0 0 0 0 4 0 0 17 0 0 0 0 0 0 0 0 0 0 0 0 0 0 10 20 0 0 0 0 0 0 0 0 0 0 0 0 0 0

GFSSGP_con_mlcape_090.txt.gz
CAPE
0 0 0 0 0 0 0 0 0 0 0 0 0 0 14 142 140 49 247 410 732 1561 1470 1294 1277 1289 1165 1067 1458 1347 1275 1149 1024 973 886 830 582 390 170 29 1 0 0 0 0 3 0 0 1
0 0 0 0 0 0 0 0 0 0 0 0 0 0 68 161 233 191 318 153 1167 1748 1638 1387 1291 1473 1290 1032 1455 1425 1239 1068 954 974 943 811 581 284 47 76 23 15 3 5 9 2 0 0 0
0 0 0 0 0 0 0 0 0 0 0 0 0 0 69 6 110 493 271 282 1150 1570 1667 1561 1380 1479 1421 1102 1105 1196 1146 979 566 950 930 658 400 110 125 96 67 82 56 38 10 4 0 0 0
0 0 0 0 0 0 0 0 0 0 0 0 0 0 0 0 161 474 240 363 977 1114 1438 1454 1446 1456 1281 1196 933 779 629 911 545 537 744 625 361 144 216 126 125 121 103 64 1 0 0 0 0
0 0 0 0 0 0 0 0 0 0 0 0 0 0 0 0 56 157 385 56 834 744 957 1384 1277 1310 1124 866 570 552 756 810 946 937 807 570 453 211 275 242 176 78 2 0 0 0 0 0 0
0 0 0 0 0 0 0 0 0 0 0 0 1 0 0 23 148 180 234 283 201 519 384 464 730 513 1295 954 776 523 573 693 805 880 769 564 436 277 279 191 37 2 0 0 0 0 0 0 0
0 0 0 0 0 0 0 0 0 0 1 0 3 0 0 29 72 218 112 190 119 119 164 464 622 669 635 804 721 450 471 549 937 1040 620 639 401 245 187 85 3 0 0 0 0 0 0 0 0
0 0 0 0 0 0 0 0 0 0 0 0 0 1 0 0 100 121 74 142 90 80 75 85 210 407 414 481 343 230 127 140 209 525 733 591 363 225 99 0 0 0 0 0 0 0 0 0 0
0 0 0 0 0 0 0 0 0 0 0 0 3 9 0 63 110 98 115 138 97 72 34 5 8 32 293 235 356 222 55 50 92 453 397 593 268 140 0 0 0 0 0 0 1 0 0 0 0
0 0 0 0 0 0 0 0 0 0 5 14 8 8 97 99 50 75 46 44 80 44 1 2 0 0 11 180 86 93 41 1 26 272 396 452 178 27 0 0 0 0 0 0 2 0 0 0 0
0 0 0 0 0 0 0 0 0 0 0 8 17 51 6 20 144 189 88 20 0 0 0 37 66 33 2 21 150 76 21 0 34 259 309 297 179 8 0 0 0 0 0 0 0 0 0 0 0
0 0 0 0 0 0 0 0 0 0 0 61 203 437 1 177 323 195 113 12 0 0 6 1 2 18 16 2 91 24 1 1 2 83 207 293 150 0 0 0 0 0 0 0 0 0 0 0 0
0 0 0 0 0 0 0 0 0 0 20 386 402 168 321 323 217 157 72 31 0 0 1 0 0 1 1 6 17 1 1 0 0 89 128 244 126 0 0 0 0 0 0 0 0 0 0 0 0
0 0 0 0 0 0 0 0 0 0 107 214 179 201 147 57 26 12 22 20 25 0 0 0 1 2 0 3 3 4 5 0 1 37 92 176 111 14 0 0 0 0 0 0 0 0 0 0 0
0 0 0 0 0 0 0 0 0 0 105 87 99 62 6 0 1 0 1 26 9 0 0 0 0 1 2 2 0 1 3 9 2 55 68 103 99 22 3 0 0 0 0 0 0 0 0 0 0
0 0 0 0 0 0 0 0 0 0 6 31 96 14 1 1 1 1 1 0 0 0 0 0 0 0 1 2 2 0 0 5 2 30 59 80 91 60 4 0 0 0 0 0 0 0 0 0 0
0 0 0 0 0 0 0 0 0 0 0 12 57 0 0 0 0 0 1 0 1 1 1 0 0 0 0 0 1 0 0 0 11 31 47 74 59 75 32 0 0 0 0 0 0 0 0 0 0
0 0 0 0 0 0 0 0 0 0 0 0 30 1 0 0 0 0 1 2 1 2 1 2 2 0 0 0 0 0 0 27 52 53 66 68 79 72 38 1 0 0 0 0 0 0 0 0 0
0 0 0 0 0 0 0 0 0 0 0 0 0 1 0 0 0 1 2 2 2 2 0 1 1 1 0 0 0 0 3 16 32 22 15 17 38 33 34 5 1 0 1 0 0 0 0 0 0
0 0 0 0 0 0 0 0 0 0 0 0 0 0 0 0 0 2 1 1 1 1 2 1 1 2 0 0 3 8 9 32 16 11 11 14 3 41 26 20 2 2 0 0 0 0 0 0 0
0 0 0 0 0 0 0 0 0 0 0 0 0 0 0 0 0 0 2 0 1 1 0 1 1 1 0 0 0 0 5 19 9 43 28 34 46 82 88 59 21 0 0 0 0 0 0 0 0
0 0 0 0 0 0 0 0 0 0 0 0 0 0 0 0 0 0 1 4 0 0 1 1 0 0 0 0 0 0 1 0 0 0 31 42 49 35 84 62 38 12 0 0 0 0 0 0 0
0 0 0 0 0 0 0 0 0 0 0 0 0 0 0 0 0 0 0 1 1 0 0 0 0 0 0 0 0 0 0 0 0 0 4 8 9 19 24 18 13 3 0 0 0 0 0 0 0
0 0 0 0 0 0 0 0 0 0 0 0 0 0 0 0 0 0 0 0 1 0 0 0 0 0 0 0 0 0 0 0 0 0 0 0 0 0 0 0 0 0 0 0 0 0 0 0 0
0 0 0 0 0 0 0 0 0 0 0 0 0 0 0 0 0 0 0 0 0 0 1 2 1 0 0 0 0 0 0 0 0 0 0 0 0 0 0 0 0 0 0 0 0 0 0 0 0
0 0 0 0 0 0 0 0 0 0 0 0 0 0 0 0 0 0 0 0 0 0 0 0 0 0 0 0 0 0 0 0 0 0 0 0 0 0 0 0 0 0 0 0 0 0 0 0 0
0 0 0 0 0 0 0 0 0 0 0 0 0 0 0 0 0 0 0 0 0 0 0 0 0 0 0 0 0 0 0 0 0 0 0 0 0 0 0 0 0 0 0 0 0 0 0 0 0
0 0 0 0 0 0 0 0 0 0 0 0 0 0 0 0 0 0 0 0 0 0 0 0 0 0 0 0 0 0 0 0 0 0 0 0 0 0 0 0 0 0 0 0 0 0 0 0 0
0 0 0 0 0 0 0 0 0 0 0 0 0 0 0 0 0 0 0 0 0 0 0 0 0 0 0 0 0 0 0 0 0 0 0 0 0 0 0 0 0 0 0 0 0 0 0 1 0
0 0 0 0 0 0 0 0 0 0 0 0 0 0 0 0 0 0 0 0 0 0 0 0 0 0 0 0 0 0 0 0 0 0 0 0 0 0 0 0 0 0 0 0 0 0 0 0 0

GFSSGP_con_mlcape_096.txt.gz
CAPE
0 0 0 0 0 0 0 0 0 0 0 0 0 0 0 0 0 1 366 1158 1398 1472 1263 1249 1583 1727 2013 1757 1434 1271 1489 1348 1284 1124 1022 1055 1202 1047 934 788 421 224 48 10 6 4 5 7 4
0 0 0 0 0 0 0 0 0 0 0 0 0 0 0 0 59 143 286 750 1528 1637 1467 1365 1470 1627 2080 1987 1669 1629 1709 1529 1318 1211 1163 1193 1231 1076 859 573 269 127 3 6 3 2 4 3 0
0 0 0 0 0 0 0 0 0 0 0 0 0 0 0 0 191 347 698 472 980 1231 1721 1393 1478 1600 2010 2071 1866 1798 1808 1586 1349 1259 1172 1203 1136 990 690 323 180 70 3 2 3 0 0 0 0
0 0 0 0 0 0 0 0 0 0 0 0 0 0 0 0 57 507 624 542 791 1223 1812 1431 1214 1469 1889 2131 2025 1961 1870 1584 1436 1286 1249 1147 946 718 387 208 113 82 0 0 0 0 0 0 0
0 0 0 0 0 0 0 0 0 0 0 0 0 0 0 0 3 513 715 618 827 1146 1593 633 764 1053 1511 2075 2057 2002 1781 1638 1412 1320 1108 941 725 485 240 172 178 102 32 0 0 0 0 0 0
0 0 0 0 0 0 0 0 0 0 0 0 0 0 0 118 199 318 677 678 731 754 917 157 41 51 305 1623 2022 1935 1793 1578 1324 1174 894 790 611 388 252 256 161 181 86 0 0 0 0 0 0
0 0 0 0 0 0 0 0 0 0 0 0 0 0 0 139 426 580 497 722 744 561 397 36 0 35 40 497 1625 1369 1613 1398 1223 941 795 663 482 387 385 198 319 238 105 46 0 0 0 0 0
0 0 0 0 0 0 0 0 0 0 0 0 0 0 0 174 513 510 547 594 207 352 373 92 0 4 2 155 214 204 604 878 1042 757 736 488 371 335 334 349 220 145 69 35 0 0 0 0 0
0 0 0 0 0 0 0 0 0 0 0 0 7 0 61 314 264 300 448 710 475 73 178 218 0 0 0 87 19 0 118 574 740 629 649 397 502 379 324 232 122 61 43 12 0 0 0 0 0
0 0 0 0 0 0 0 0 0 0 0 0 0 1 60 352 307 255 415 472 588 529 22 113 22 15 13 32 86 0 15 480 794 611 591 199 396 273 192 112 41 32 64 18 0 0 0 0 0
0 0 0 0 0 0 0 0 0 0 0 0 0 0 24 399 431 421 374 415 393 290 200 34 144 139 192 229 250 217 39 232 535 503 277 304 310 220 114 11 11 104 69 35 0 0 0 0 0
0 0 0 0 0 0 0 0 0 0 0 0 0 1 179 353 438 316 389 297 316 273 149 138 49 197 184 156 203 113 102 297 340 368 241 410 355 156 22 0 10 64 54 46 10 0 1 0 0
0 0 0 0 0 0 0 0 0 0 0 0 0 281 216 229 387 529 234 27 58 115 40 110 119 104 97 178 197 105 173 109 277 219 172 254 160 44 7 9 14 36 75 63 48 34 14 0 0
0 0 0 0 0 0 0 0 0 0 0 0 10 101 388 464 442 293 63 22 0 0 8 54 79 32 35 32 53 50 55 139 244 253 140 137 113 5 6 11 0 35 88 87 58 29 0 0 0
0 0 0 0 0 0 0 0 0 0 0 0 31 211 308 228 198 67 12 4 15 1 2 2 3 12 4 3 5 65 65 51 133 164 112 42 8 0 0 7 0 0 2 14 27 3 0 0 0
0 0 0 0 0 0 0 0 0 0 0 0 0 140 150 142 125 0 0 5 6 2 0 2 2 3 4 1 1 13 56 8 29 122 108 21 1 22 1 1 0 0 0 0 0 0 0 0 0
0 0 0 0 0 0 0 0 0 0 0 0 0 31 124 138 88 0 0 3 2 6 2 2 4 4 0 0 1 7 23 23 17 90 89 12 21 28 42 14 0 0 0 0 0 0 0 0 0
0 0 0 0 0 0 0 0 0 0 0 0 0 3 68 89 67 9 0 1 1 3 2 2 3 3 1 0 3 5 9 16 22 22 44 16 17 21 18 0 6 0 0 0 0 0 0 0 0
0 0 0 0 0 0 0 0 0 0 0 0 0 0 60 71 78 0 0 1 1 3 3 2 2 3 2 0 1 2 2 1 2 2 8 14 18 42 11 12 12 0 0 1 0 0 0 0 0
0 0 0 0 0 0 0 0 0 0 0 0 0 0 5 56 57 0 0 0 2 4 4 3 2 2 2 1 0 0 2 2 2 1 0 17 24 44 23 12 30 18 10 9 2 0 0 0 0
0 0 0 0 0 0 0 0 0 0 0 0 0 0 0 15 65 4 0 1 4 2 3 3 3 1 1 0 0 0 0 2 2 2 16 10 20 41 25 42 41 61 61 34 16 0 0 0 0
0 0 0 0 0 0 0 0 0 0 0 0 0 0 0 7 39 34 0 0 3 2 10 7 1 2 2 2 0 0 0 0 3 1 1 1 5 31 68 73 63 76 68 68 30 3 0 0 0
0 0 0 0 0 0 0 0 0 0 0 0 0 0 0 12 46 51 18 0 2 1 4 2 5 3 2 2 2 1 0 0 0 15 17 1 7 28 30 44 48 55 58 75 76 11 1 3 19
0 0 0 0 0 0 0 0 0 0 0 0 0 0 0 8 44 73 32 0 0 4 5 3 3 4 2 0 1 0 0 0 0 0 0 5 14 17 8 3 20 14 61 86 119 124 91 32 13
0 0 0 0 0 0 0 0 0 0 0 0 0 0 0 14 37 73 26 0 0 1 4 6 3 3 4 4 2 0 0 0 0 0 0 10 2 0 0 7 11 22 38 83 103 123 108 114 56
0 1 0 0 0 0 0 0 0 0 0 0 0 0 0 9 43 69 61 18 0 0 1 5 7 4 2 1 0 0 2 0 0 0 0 1 0 0 10 21 11 1 0 32 38 68 105 144 113
0 0 0 0 0 0 2 3 0 0 0 0 0 0 0 0 41 63 89 45 2 0 0 3 3 4 1 1 0 0 0 0 0 4 0 0 0 7 25 24 32 27 29 33 57 43 60 99 112
0 0 0 0 0 0 0 0 0 0 0 0 0 0 0 0 16 58 82 67 17 0 0 0 0 1 3 4 2 0 0 0 0 2 0 0 0 0 0 5 6 18 12 11 22 27 36 43 55
0 0 0 0 0 0 0 0 0 0 0 0 0 0 0 0 15 48 90 88 38 2 0 0 1 0 0 1 4 3 3 3 0 0 0 0 0 0 0 0 3 4 4 9 22 12 4 3 7
0 0 0 0 0 0 0 0 0 0 0 0 0 0 0 9 42 40 92 100 56 30 5 0 1 0 0 0 0 0 0 0 0 0 0 0 0 0 0 0 0 0 0 1 1 5 2 1 3

GFSSGP_con_mlcape_099.txt.gz
CAPE
0 0 0 0 0 0 0 0 0 0 0 0 0 0 0 0 0 0 416 888 1489 1554 1549 1353 1136 1547 1992 1655 1438 1412 1411 1467 1316 1173 1280 1214 1163 1011 779 675 599 296 89 6 5 11 9 11 1
0 0 0 0 0 0 0 0 0 0 0 0 0 0 0 0 0 0 135 985 1585 1671 1652 1781 1320 1475 1823 1894 1605 1594 1624 1576 1186 963 1353 1320 1174 1122 1073 680 475 211 125 41 11 9 10 9 0
0 0 0 0 0 0 0 0 0 0 0 0 0 0 0 0 16 27 773 699 1101 1152 1521 1737 1603 1383 1784 2079 1752 1668 1667 1664 1489 1211 1318 1511 1264 1269 1021 578 306 184 79 3 7 8 9 4 0
0 0 0 0 0 0 0 0 0 0 0 0 0 0 0 0 0 282 634 613 663 940 1241 1463 1576 1449 1522 1971 1842 1694 1710 1467 1306 1332 1540 1599 1212 1075 815 386 200 144 90 4 3 3 3 0 0
0 0 0 0 0 0 0 0 0 0 0 0 0 0 0 12 40 461 733 684 751 842 1315 1961 1031 1412 1287 1348 1543 1635 1674 1428 1295 1397 1631 1317 937 992 522 245 166 104 51 0 2 2 1 0 0
0 0 0 0 0 0 0 0 0 0 0 0 0 0 0 123 184 247 851 760 848 951 1373 1389 506 648 613 492 141 1039 1529 1310 1132 1368 1411 1243 899 767 359 229 182 75 24 0 0 0 0 0 0
0 0 0 0 0 0 0 0 0 0 0 0 0 0 0 55 470 792 687 797 1035 1051 928 908 237 53 0 43 6 59 1231 1219 1061 1211 1192 1077 822 483 394 338 164 48 0 0 0 0 0 0 0
0 0 0 0 0 0 0 0 0 0 0 0 0 0 0 527 785 633 707 880 699 729 641 702 2 0 49 67 1 1 825 889 819 972 925 749 523 415 381 384 200 6 0 0 0 0 0 0 0
0 0 0 0 0 0 0 0 0 0 0 0 0 0 0 146 376 446 631 937 903 588 462 484 198 3 0 50 20 104 441 473 754 676 656 461 564 256 295 294 227 64 0 0 0 0 0 0 0
0 0 0 0 0 0 0 0 0 0 0 0 0 0 15 285 438 381 504 542 714 895 300 395 230 4 0 66 0 39 10 157 541 766 629 460 415 312 189 310 236 73 0 0 0 0 0 0 0
0 0 0 0 0 0 0 0 0 0 0 0 0 0 0 37 432 536 584 568 520 438 284 112 260 11 0 42 42 132 1 51 194 623 571 304 341 235 449 271 160 108 0 0 0 0 0 0 0
0 0 0 0 0 0 0 0 0 0 0 0 0 0 0 55 424 609 590 695 491 359 247 185 233 193 183 32 118 299 86 0 59 563 353 351 226 163 344 222 86 81 0 0 0 0 0 0 0
0 0 0 0 0 0 0 0 0 0 0 0 0 0 0 108 297 537 772 535 296 276 169 87 162 278 284 148 265 260 95 53 182 316 260 277 165 226 121 88 110 70 33 0 0 0 17 14 0
0 0 0 0 0 0 0 0 0 0 0 0 0 0 0 269 444 685 668 396 280 229 148 62 52 101 201 269 282 133 93 55 104 84 207 277 269 157 70 100 140 108 104 35 21 14 16 10 0
0 0 0 0 0 0 0 0 0 0 0 0 0 0 19 279 478 439 374 292 238 122 85 7 11 55 60 92 116 224 125 90 102 48 121 273 178 61 40 128 138 99 131 135 78 76 10 0 0
0 0 0 0 0 0 0 0 0 0 0 0 0 0 19 259 333 276 217 207 106 166 21 9 0 4 23 15 46 94 55 133 82 88 19 59 59 51 24 61 102 139 155 160 84 35 0 0 0
0 0 0 0 0 0 0 0 0 0 0 0 0 0 1 166 387 291 143 93 41 32 3 1 0 6 15 6 4 11 47 65 99 109 32 58 14 22 12 28 39 117 148 96 61 1 0 0 0
0 0 0 0 0 0 0 0 0 0 0 0 0 0 0 5 231 374 132 80 6 9 3 3 0 3 1 2 4 5 5 57 69 99 28 12 5 10 23 1 46 97 102 60 8 0 0 0 0
0 0 1 0 0 0 0 0 0 0 0 0 0 0 0 6 163 266 69 47 5 3 3 1 3 2 4 1 1 5 7 29 54 78 20 0 0 15 21 12 57 87 27 0 0 2 5 0 0
0 0 0 0 0 0 0 0 0 0 0 0 0 0 0 3 127 206 65 48 5 3 3 0 2 3 3 1 1 1 1 9 30 21 3 0 0 0 45 73 75 60 32 9 22 38 12 10 0
0 0 0 0 0 0 0 0 0 0 0 0 0 0 0 0 56 192 48 42 19 1 2 1 2 6 3 0 0 1 1 3 1 1 2 3 0 1 5 42 101 91 85 78 84 54 36 26 0
0 0 0 0 0 0 0 0 0 0 0 0 0 0 0 0 0 228 102 11 37 4 4 7 3 1 1 0 0 2 0 1 1 1 3 4 1 10 45 48 119 132 114 112 91 73 63 56 16
0 0 0 0 0 0 0 0 0 0 0 0 0 0 0 0 0 156 137 17 16 26 4 3 4 4 5 0 1 0 0 1 0 1 1 10 33 43 57 72 115 143 97 88 112 71 64 55 44
0 0 0 0 0 0 0 0 0 0 0 0 0 0 0 0 2 114 217 15 12 6 0 0 2 1 3 1 0 0 0 1 1 2 2 3 10 39 46 74 113 119 118 116 109 67 49 54 81
0 2 6 5 10 0 1 0 0 0 0 0 0 0 0 0 3 124 194 53 16 3 1 1 1 2 5 2 0 0 0 0 0 0 0 0 1 13 22 39 68 83 87 83 83 51 67 95 112
10 0 12 5 2 5 8 1 0 0 0 0 0 0 0 0 35 141 202 114 39 53 24 2 2 2 3 2 2 1 4 0 0 2 17 5 11 20 18 1 2 9 3 15 57 99 30 35 94
0 8 1 7 1 0 0 0 1 0 0 0 0 0 0 0 70 161 204 194 63 71 42 4 0 2 4 1 2 3 1 2 0 0 2 13 17 32 30 6 8 16 18 20 14 32 29 33 39
0 1 22 18 0 0 0 0 8 0 0 0 0 0 0 0 34 154 207 271 130 73 56 15 2 0 0 4 1 1 3 5 3 0 0 12 18 0 0 2 1 7 9 16 26 29 21 16 26
0 0 0 5 6 0 3 1 0 3 0 0 0 1 6 0 7 128 222 291 215 97 52 37 17 0 0 0 3 2 3 6 4 7 15 10 12 16 17 14 20 30 32 29 26 13 9 15 23
15 0 0 13 2 0 0 0 0 0 0 0 14 5 11 0 9 86 259 304 274 137 73 40 12 4 0 0 0 2 4 4 1 2 4 12 14 15 7 0 2 2 0 1 8 9 5 11 8

GFSSGP_con_mlcape_102.txt.gz
CAPE
0 0 0 0 0 0 0 0 0 0 0 0 0 0 0 0 0 0 480 1241 1030 1487 1611 1146 1225 1677 1455 1350 1258 1232 1324 1244 1302 1336 1202 1196 1022 794 621 676 550 302 248 91 31 3 5 5 0
0 0 0 0 0 0 0 0 0 0 0 0 0 0 0 0 0 6 754 1181 1230 982 1668 1656 1121 1508 1849 1546 1481 1456 1445 1312 1306 1326 1145 1212 1188 891 903 738 409 237 177 71 33 22 5 1 0
0 0 0 0 0 0 0 0 0 0 0 0 0 0 0 0 0 344 709 757 863 867 1054 1773 1478 1223 1726 1907 1618 1458 1480 1450 1301 1135 232 869 947 1051 1012 612 339 284 200 34 42 38 11 0 0
0 0 0 0 0 0 0 0 0 0 0 0 0 0 0 0 0 267 591 479 490 669 1240 1375 1557 1441 1364 1675 1829 1516 1371 1501 1230 918 137 468 664 1018 830 512 321 215 52 25 47 22 0 0 0
0 0 0 0 0 0 0 0 0 0 0 0 0 0 0 0 153 465 560 544 591 682 1225 1722 1464 1510 1489 1423 1648 1745 1418 1486 1287 887 774 738 643 862 693 413 274 120 50 14 14 2 0 0 0
0 0 0 0 0 0 0 0 0 0 0 0 0 0 0 32 80 256 886 632 802 868 1259 1810 1005 1094 1510 1575 1360 1454 1475 779 1176 1091 865 553 121 305 443 333 240 129 21 16 1 0 0 0 0
0 0 0 0 0 0 0 0 0 0 0 0 0 0 0 227 535 735 739 768 1027 1277 1253 1278 1118 607 503 917 900 704 380 44 656 730 647 25 100 393 344 290 177 51 21 5 0 0 0 0 0
0 0 0 0 0 0 0 0 0 0 0 0 0 0 0 713 880 673 784 876 789 953 808 885 641 187 91 59 29 50 69 0 0 511 499 42 430 411 263 184 73 9 0 0 0 0 0 0 0
0 0 0 0 0 0 0 0 0 0 0 0 0 0 0 214 530 604 800 1057 1073 790 675 579 321 130 29 10 18 46 1 0 1 312 299 242 354 368 218 131 32 0 0 0 0 0 0 0 0
0 0 0 0 0 0 0 0 0 0 0 0 0 0 1 183 313 272 391 567 1052 1179 790 712 443 255 13 2 0 27 4 0 0 270 230 270 386 361 201 91 7 0 0 0 0 0 0 0 0
0 0 0 0 0 0 0 0 0 0 0 0 0 0 0 94 292 310 390 449 524 663 954 434 307 87 0 32 3 8 0 0 4 128 111 241 410 227 213 112 0 0 0 0 0 0 0 0 0
0 0 0 0 0 0 0 0 0 0 0 0 0 0 0 0 0 218 509 597 606 695 592 387 230 9 0 73 0 40 36 25 44 251 206 331 241 160 171 100 0 0 0 0 0 0 0 0 0
0 0 0 0 0 0 0 0 0 0 0 0 0 0 0 0 5 115 513 807 668 427 358 296 175 156 11 2 34 41 14 0 8 64 217 220 106 197 158 114 30 0 0 0 0 0 0 0 0
0 0 0 0 0 0 0 0 0 0 0 0 0 0 0 0 13 194 800 813 366 359 295 158 153 204 210 150 34 62 8 0 0 33 220 193 145 238 129 108 84 0 0 0 0 0 4 0 0
0 0 0 0 0 0 0 0 0 0 0 0 0 0 0 0 59 354 606 547 406 263 126 8 91 115 109 135 147 134 101 0 34 32 119 174 204 179 63 65 91 54 8 6 0 0 11 1 0
0 0 0 0 0 0 0 0 0 0 0 0 0 0 0 1 70 327 341 244 251 176 33 3 3 15 19 31 108 153 103 78 21 0 18 67 151 120 49 56 66 87 70 74 5 47 2 0 0
0 0 0 0 0 0 0 0 0 0 0 0 0 0 0 21 252 258 233 177 160 169 8 3 1 0 6 7 5 56 95 42 44 4 6 13 50 53 85 65 90 144 99 111 91 9 0 0 0
0 0 0 0 0 0 0 0 0 0 0 0 0 0 0 1 317 380 249 159 50 30 3 1 0 2 3 0 0 0 37 99 84 2 0 8 1 27 28 50 96 48 66 95 58 17 0 0 0
0 0 0 0 0 0 0 7 0 0 0 0 0 0 0 0 64 509 242 177 1 0 1 0 2 1 0 0 1 0 0 1 93 68 1 0 3 0 14 32 25 18 44 57 52 14 2 0 0
0 0 0 0 0 0 0 0 0 0 0 0 0 0 0 1 111 428 228 132 0 0 0 0 3 0 1 3 2 4 4 1 22 86 8 0 0 0 0 2 27 28 6 10 26 12 1 2 1
0 0 0 0 0 0 0 0 0 0 0 0 0 0 0 0 102 333 211 133 0 0 0 0 0 1 1 2 1 1 2 18 25 59 5 2 0 0 0 0 0 18 18 19 28 30 22 34 28
0 0 0 0 0 0 0 0 0 0 0 0 0 0 0 0 1 309 200 163 12 0 0 1 0 0 2 1 1 0 1 2 2 41 3 2 0 0 0 4 12 1 17 42 35 59 90 69 35
0 0 0 0 0 0 0 0 0 0 0 0 0 0 0 0 0 344 204 147 71 0 0 1 2 1 1 1 0 0 1 2 1 1 1 1 2 0 0 2 0 8 44 68 68 92 95 71 34
2 0 0 0 0 0 0 0 0 0 0 0 0 0 0 0 0 223 292 122 34 12 0 1 2 1 0 0 0 0 0 2 2 1 2 2 2 3 0 0 6 34 42 69 69 94 89 73 57
0 0 0 0 0 0 0 0 0 0 0 0 0 1 0 0 11 144 246 74 7 20 0 0 1 1 1 0 2 0 0 0 0 1 1 1 1 1 0 0 6 16 26 14 42 100 83 65 68
0 0 0 0 0 7 0 0 0 0 0 0 0 1 0 0 53 127 276 83 7 17 1 0 1 1 0 1 0 0 0 0 1 0 1 2 1 2 4 0 6 13 25 34 46 29 51 59 67
0 6 0 12 0 0 0 0 4 0 0 0 0 8 0 11 40 152 290 168 31 12 1 4 0 0 2 0 0 0 0 0 0 0 0 0 2 12 20 7 10 19 8 0 38 12 8 44 41
0 0 0 7 2 0 0 0 0 0 1 0 0 2 0 0 44 224 303 278 139 60 43 0 1 1 0 3 0 0 0 0 0 4 0 0 0 1 1 7 4 4 7 3 8 9 26 38 31
0 0 0 0 0 5 5 0 2 0 12 0 0 1 11 0 23 230 300 390 189 122 89 20 7 0 0 3 3 2 0 0 0 0 0 0 0 0 9 12 6 9 2 5 9 12 8 0 0
54 0 0 0 0 3 0 0 0 0 0 0 0 0 0 3 3 192 314 489 314 140 90 43 31 23 1 0 0 0 0 0 1 0 0 0 2 5 1 1 8 3 0 0 0 0 15 16 20

GFSSGP_con_mlcape_105.txt.gz
CAPE
0 0 0 0 0 0 0 0 0 0 0 0 0 0 0 0 0 0 930 823 1594 1476 1459 1500 1308 1123 1203 1210 1162 1147 1114 1086 1079 1292 1102 993 803 604 438 451 540 464 378 291 261 193 51 0 0
0 0 0 0 0 0 0 0 0 0 0 0 0 0 0 0 24 683 823 1002 1609 1543 1400 1503 1441 1323 1234 1184 1242 1417 1203 1213 1205 1357 1318 1033 917 795 723 656 526 398 282 106 40 39 1 0 0
0 0 0 0 0 0 0 0 0 0 0 0 0 0 0 0 110 498 687 923 886 1445 1565 1466 1515 1468 1407 1295 1300 1407 1305 1401 1265 1227 1132 999 639 1075 944 642 460 379 227 60 32 14 2 0 0
0 0 0 0 0 0 0 0 0 0 0 0 0 0 0 0 2 159 527 343 525 852 1424 1673 1506 1575 1527 1513 1431 1322 1588 1419 1033 1157 980 523 555 694 732 604 449 292 140 74 20 8 0 7 6
0 0 0 0 0 0 0 0 0 0 0 0 0 0 0 3 201 276 287 382 455 977 1189 1348 1476 1528 1685 1619 1625 1448 1502 1440 1199 753 477 190 97 404 399 396 573 287 102 50 3 0 0 0 0
0 0 0 0 0 0 0 0 0 0 0 0 0 0 0 107 131 305 381 459 588 922 1483 1419 1418 1495 1619 1876 1840 1647 1499 1385 1127 505 267 68 79 10 279 328 404 218 77 24 4 0 0 0 0
0 0 0 0 0 0 0 0 0 0 0 0 0 0 5 66 234 370 468 687 896 966 1403 1402 1080 912 1316 1565 1793 1810 1577 1254 887 307 218 252 46 87 320 308 279 135 48 28 1 0 0 0 0
0 0 0 0 0 0 0 0 0 0 0 0 0 0 0 101 403 425 464 662 854 955 812 804 787 553 199 343 828 1080 1407 1080 588 343 85 228 85 138 322 290 182 85 18 4 0 0 0 0 0
0 0 0 0 0 0 0 0 0 0 0 0 0 0 0 305 513 414 329 570 603 630 511 350 341 80 1 0 5 24 175 307 313 79 73 100 63 239 253 206 138 34 4 0 0 0 0 0 0
0 0 0 0 0 0 0 0 0 0 0 0 0 0 0 268 333 234 226 443 751 777 692 571 380 198 53 0 0 1 6 31 18 6 0 91 83 131 114 144 105 20 0 0 0 0 0 0 0
0 0 0 0 0 0 0 0 0 0 0 0 0 0 0 194 251 204 234 321 652 956 803 665 487 188 21 0 0 0 8 29 0 0 1 67 196 189 97 36 13 3 0 0 0 0 0 0 0
0 0 0 0 0 0 0 0 0 0 0 0 0 0 0 3 81 159 169 244 454 732 710 457 250 40 0 0 0 0 0 0 2 0 0 80 199 168 31 2 1 0 0 0 0 0 0 0 0
0 0 0 0 0 0 0 0 0 0 0 0 0 0 0 0 0 90 203 471 477 616 461 325 192 27 0 0 0 0 14 3 16 1 90 134 143 124 11 1 0 0 0 0 0 0 0 0 0
0 0 0 0 0 0 0 0 0 0 0 0 0 0 0 0 0 53 390 565 515 277 293 196 109 70 0 0 0 0 1 0 3 0 58 90 92 74 8 0 0 0 0 0 0 0 0 0 0
0 0 0 0 0 0 0 0 0 0 0 0 0 0 0 0 0 19 210 443 491 226 193 35 21 87 21 15 0 1 1 1 22 61 129 136 160 55 15 0 0 0 0 0 0 0 0 0 0
0 0 0 0 0 0 0 0 0 0 0 0 0 0 0 0 0 39 397 597 396 131 27 0 54 40 30 52 9 38 3 0 29 30 117 121 186 110 60 5 0 0 0 0 0 0 0 0 0
0 0 0 0 0 0 0 0 0 0 0 0 0 0 0 0 0 176 361 247 152 23 0 0 2 13 9 9 38 57 12 0 41 35 90 85 94 91 54 40 3 11 0 0 0 0 0 0 0
0 0 0 0 0 0 0 0 0 0 0 0 0 0 0 0 0 221 154 114 70 0 0 0 0 1 2 0 3 15 53 14 4 1 40 56 57 30 22 42 28 21 6 16 0 0 0 0 0
0 0 0 0 0 0 0 0 0 0 0 0 0 0 0 0 15 188 110 61 48 0 0 0 0 4 0 0 0 0 6 19 18 2 30 40 15 12 8 35 36 70 42 36 4 0 0 0 0
0 0 0 0 0 0 0 0 0 0 0 0 0 0 0 0 46 213 115 66 47 0 0 0 0 0 0 0 0 0 0 2 63 14 8 27 2 0 0 7 21 45 39 52 24 0 0 0 0
0 0 0 0 0 0 0 0 0 0 0 0 0 0 0 0 62 221 151 50 13 0 0 0 0 0 0 2 1 0 0 1 4 45 4 8 0 0 0 0 1 25 20 17 3 1 1 0 0
0 0 0 0 0 0 0 0 0 0 0 0 0 0 0 0 128 225 132 40 7 0 0 0 0 0 1 3 0 3 3 1 1 0 2 3 0 0 0 0 0 8 12 1 0 0 2 7 10
0 0 0 0 0 0 0 0 0 0 0 0 0 0 0 0 20 160 149 39 0 0 0 0 0 0 0 1 0 0 0 1 1 7 2 2 1 0 0 0 0 0 0 0 0 7 24 34 28
0 0 0 0 0 0 0 0 0 0 0 0 0 0 0 0 10 141 133 18 0 0 0 0 1 0 0 2 2 0 0 1 0 5 1 1 2 1 0 0 0 0 3 3 2 23 44 38 38
0 0 0 0 0 0 0 0 0 0 0 0 0 0 0 0 8 132 157 85 0 0 0 0 0 0 0 1 2 0 0 1 0 1 1 1 1 1 0 0 0 0 2 4 1 13 27 17 48
0 0 0 0 0 0 0 0 0 0 0 2 0 0 1 27 97 183 127 53 0 0 0 0 0 0 0 2 1 0 0 0 1 0 1 1 1 1 1 0 0 0 1 5 20 18 7 25 37
0 0 0 5 0 0 0 0 0 20 0 0 0 0 0 78 203 216 83 35 0 0 0 0 0 0 0 1 0 0 0 0 1 1 0 1 1 2 1 0 0 0 0 10 4 8 3 10 28
0 0 0 1 6 0 0 0 0 0 0 0 0 0 0 65 113 203 95 34 4 0 0 0 0 0 0 0 1 0 0 0 0 0 0 0 1 0 0 0 0 0 2 6 5 1 3 1 0
1 0 0 0 2 0 0 0 68 9 1 0 0 0 0 0 110 247 145 79 22 0 0 0 0 0 0 1 0 0 0 0 0 0 0 0 0 0 3 1 0 3 0 0 1 0 0 19 15
0 0 23 0 0 0 0 0 1 0 0 0 0 0 0 0 33 274 277 138 46 9 0 0 0 0 0 0 0 0 0 0 0 0 0 0 0 0 0 0 0 0 0 0 0 0 0 5 0

GFSSGP_con_mlcape_108.txt.gz
CAPE
0 0 0 0 0 0 0 0 0 0 0 0 0 0 0 0 0 0 420 1016 1264 1197 1332 1193 1187 1295 1033 1000 944 963 1113 1369 1334 1181 1089 1007 944 835 725 712 836 815 651 381 299 352 387 255 53
0 0 0 0 0 0 0 0 0 0 0 0 0 0 0 0 0 415 494 1173 1275 1232 1319 1255 1195 1263 1166 1113 1125 1288 1301 1340 1334 1260 1092 986 864 821 790 700 699 678 529 493 483 295 133 37 13
0 0 0 0 0 0 0 0 0 0 0 0 0 0 0 0 67 230 558 1143 1518 1348 1459 1354 1186 1199 1145 1105 1235 1297 1405 1438 1339 1293 1128 928 797 816 816 656 585 516 415 370 400 179 6 0 0
0 0 0 0 0 0 0 0 0 0 0 0 0 0 0 0 64 279 702 1023 1353 1231 1406 1531 1323 1224 1247 1237 1351 1379 1453 1008 911 1356 1065 1064 1068 1009 724 610 586 459 296 211 108 15 0 0 9
0 0 0 0 0 0 0 0 0 0 0 0 0 0 0 1 81 244 480 560 608 1173 1429 1575 1511 1411 1421 1483 1453 1548 1628 1336 1185 1105 767 341 861 798 623 558 467 387 298 158 79 24 8 6 5
0 0 0 0 0 0 0 0 0 0 0 0 0 0 0 26 18 237 185 132 489 847 1257 1387 1570 1672 1674 1711 1675 1601 1280 1343 1183 550 53 23 487 742 573 476 391 275 253 81 49 13 0 0 0
0 0 0 0 0 0 0 0 0 0 0 0 0 0 7 93 16 81 99 229 775 1026 1096 1220 1361 1533 1766 1969 1917 1788 1471 1021 900 254 67 119 188 125 363 269 361 200 127 52 27 7 0 0 0
0 0 0 0 0 0 0 0 0 0 0 0 0 0 0 7 149 213 320 486 769 951 981 983 955 946 1072 1456 1564 1749 1718 1025 628 244 34 47 0 30 213 227 317 158 49 9 4 0 0 0 0
0 0 0 0 0 0 0 0 0 0 0 0 0 0 0 3 370 437 499 518 582 643 663 741 602 353 213 219 545 890 892 1067 518 204 12 16 0 13 357 363 206 101 25 0 1 0 0 0 0
0 0 0 0 0 0 0 0 0 0 0 0 0 0 0 60 377 356 295 53 182 383 338 273 249 92 25 18 3 13 47 363 350 149 72 95 4 68 47 272 124 61 4 7 10 0 0 0 0
0 0 0 0 0 0 0 0 0 0 0 0 0 0 0 58 270 299 128 41 152 437 516 464 288 177 87 21 1 0 0 4 136 87 91 140 92 58 119 167 70 10 0 0 0 0 0 0 0
0 0 0 0 0 0 0 0 0 0 0 0 0 0 0 4 138 230 68 84 350 585 628 572 422 240 21 0 0 0 0 0 43 32 67 76 72 44 143 99 10 0 0 0 0 0 0 0 0
0 0 0 0 0 0 0 0 0 0 0 0 0 0 0 0 19 102 45 69 307 515 645 567 312 116 0 0 0 0 0 0 0 18 2 21 74 63 62 20 2 0 0 0 0 0 0 0 0
0 0 0 0 0 0 0 0 0 0 0 0 0 0 0 0 0 9 120 152 419 543 637 345 152 5 0 0 0 0 0 1 3 3 2 0 27 60 35 2 0 0 0 0 0 0 0 0 0
0 0 0 0 0 0 0 0 0 0 0 0 0 0 0 0 0 2 184 221 470 512 357 184 32 0 0 0 0 0 0 0 4 8 0 11 80 66 1 1 0 0 0 0 0 0 0 0 0
0 0 0 0 0 0 0 0 0 0 0 0 0 0 0 0 0 0 153 235 300 347 233 21 17 27 6 10 0 0 0 1 7 3 51 47 28 60 5 0 0 0 0 0 0 0 0 0 0
0 0 0 0 0 0 0 0 0 0 0 0 0 0 0 0 0 0 94 297 217 278 127 4 6 18 0 24 2 0 0 1 7 0 64 100 91 56 0 0 0 0 0 0 0 0 0 0 0
0 0 0 0 0 0 0 0 0 0 0 0 0 0 0 0 0 3 182 284 196 101 22 0 0 9 0 1 28 6 1 0 38 20 33 82 89 60 0 0 0 0 0 0 0 0 0 0 0
0 0 0 0 0 0 0 0 0 0 0 0 0 0 0 0 0 37 271 204 93 40 3 0 0 0 0 0 1 6 1 0 6 26 33 46 64 55 11 0 0 0 0 0 0 0 0 0 0
0 0 0 0 0 0 0 0 0 0 0 0 0 0 0 0 0 50 343 196 110 40 1 0 0 0 0 0 0 1 2 1 0 2 22 74 41 20 12 0 0 0 0 0 0 0 0 0 0
0 0 0 0 0 0 0 0 0 0 0 0 0 0 0 0 0 68 312 164 49 37 0 0 0 0 0 0 0 0 0 0 6 3 16 29 7 1 4 5 0 0 0 0 0 0 0 0 0
0 0 0 0 0 0 0 0 0 0 0 0 0 0 0 0 6 82 254 132 70 20 0 0 0 0 0 0 0 0 0 0 0 18 7 39 9 0 12 8 1 7 5 2 0 0 0 0 0
0 0 0 0 0 0 0 0 0 0 0 0 0 0 0 0 1 110 240 194 27 7 0 0 0 0 0 1 0 0 0 0 0 0 24 10 13 2 0 0 4 19 15 8 2 0 0 0 0
0 0 0 0 0 0 0 0 0 0 0 0 0 0 0 0 0 73 217 79 17 3 0 0 0 0 0 0 0 0 0 2 0 1 1 4 10 2 0 0 0 6 0 2 1 0 0 0 0
0 0 0 0 0 0 0 0 0 0 0 0 0 0 0 0 0 43 162 165 36 4 0 0 0 0 0 0 1 2 0 1 0 1 4 3 3 3 1 0 0 0 1 1 5 0 0 0 0
0 0 0 0 0 0 0 0 0 0 0 0 0 0 0 0 0 12 128 166 59 4 0 0 0 0 0 0 0 0 0 0 1 0 1 1 1 2 2 0 0 0 0 0 0 0 0 0 17
0 0 0 0 0 0 0 0 0 0 0 0 6 0 0 67 15 107 159 142 63 2 0 0 0 0 0 0 1 0 0 0 0 0 1 1 1 1 2 0 1 0 0 0 0 0 0 3 5
4 0 0 0 0 0 0 0 0 0 0 0 1 0 0 5 237 224 256 164 67 0 0 0 0 0 0 0 2 0 0 0 0 0 0 2 2 2 1 2 1 0 1 0 0 0 0 3 2
0 1 1 0 0 0 0 0 60 18 1 0 0 0 0 0 1 209 125 152 41 0 0 0 0 0 0 0 0 0 0 0 0 0 0 0 0 0 0 1 2 3 0 0 1 0 0 5 0
0 0 0 0 0 0 5 0 0 86 56 0 0 0 0 0 0 5 136 79 70 2 0 0 0 0 0 0 0 0 0 0 0 0 0 0 0 1 1 0 0 1 1 0 0 0 3 0 0